<?xml version="1.0" encoding="UTF-8" standalone="no" ?>
<gpx xmlns="http://www.topografix.com/GPX/1/1" xmlns:xsi="http://www.w3.org/2001/XMLSchema-instance" xsi:schemaLocation="http://www.topografix.com/GPX/1/1 http://www.topografix.com/GPX/1/1/gpx.xsd" version="1.1" creator="VisuGPX - https://www.visugpx.com">
  <metadata>
    <name>Saint Pierre de Tourtour</name>
    <desc><![CDATA[TEST RECO]]></desc>
  </metadata>
  <wpt lat="43.60217" lon="6.34026">
    <ele>689.3</ele>
    <name><![CDATA[051]]></name>
  </wpt>
  <wpt lat="43.61452" lon="6.32849">
    <ele>746.2</ele>
    <name><![CDATA[Minerai de fer]]></name>
  </wpt>
  <wpt lat="43.61544" lon="6.32153">
    <ele>738.9</ele>
    <name><![CDATA[Trous ?]]></name>
  </wpt>
  <trk>
    <name><![CDATA[Saint Pierre de Tourtour]]></name>
    <extensions>
      <line xmlns="http://www.topografix.com/GPX/gpx_style/0/2">
        <color>0000FF</color>
        <opacity>1</opacity>
        <width>4</width>
      </line>
    </extensions>
    <trkseg>
      <trkpt lat="43.60236" lon="6.32819">
        <ele>701.7</ele>
        <time>2023-09-20T06:45:34Z</time>
      </trkpt>
      <trkpt lat="43.6024" lon="6.32824">
        <ele>702</ele>
      </trkpt>
      <trkpt lat="43.60243" lon="6.32829">
        <ele>702.4</ele>
        <time>2023-09-20T06:45:46Z</time>
      </trkpt>
      <trkpt lat="43.60245" lon="6.32836">
        <ele>702.7</ele>
      </trkpt>
      <trkpt lat="43.60247" lon="6.32842">
        <ele>703.1</ele>
        <time>2023-09-20T06:45:55Z</time>
      </trkpt>
      <trkpt lat="43.60247" lon="6.32849">
        <ele>703.3</ele>
      </trkpt>
      <trkpt lat="43.60246" lon="6.32856">
        <ele>703.5</ele>
        <time>2023-09-20T06:46:04Z</time>
      </trkpt>
      <trkpt lat="43.60246" lon="6.32863">
        <ele>703.8</ele>
      </trkpt>
      <trkpt lat="43.60246" lon="6.3287">
        <ele>704.3</ele>
        <time>2023-09-20T06:46:13Z</time>
      </trkpt>
      <trkpt lat="43.60246" lon="6.32878">
        <ele>704.8</ele>
      </trkpt>
      <trkpt lat="43.60245" lon="6.32886">
        <ele>705.3</ele>
        <time>2023-09-20T06:46:23Z</time>
      </trkpt>
      <trkpt lat="43.60244" lon="6.32894">
        <ele>705.4</ele>
      </trkpt>
      <trkpt lat="43.60243" lon="6.32901">
        <ele>705.2</ele>
        <time>2023-09-20T06:46:32Z</time>
      </trkpt>
      <trkpt lat="43.60243" lon="6.32909">
        <ele>705.2</ele>
      </trkpt>
      <trkpt lat="43.60242" lon="6.32916">
        <ele>705.1</ele>
        <time>2023-09-20T06:46:41Z</time>
      </trkpt>
      <trkpt lat="43.60241" lon="6.32925">
        <ele>705</ele>
      </trkpt>
      <trkpt lat="43.60239" lon="6.32934">
        <ele>704.8</ele>
        <time>2023-09-20T06:46:50Z</time>
      </trkpt>
      <trkpt lat="43.6024" lon="6.32941">
        <ele>704.9</ele>
      </trkpt>
      <trkpt lat="43.6024" lon="6.32947">
        <ele>705</ele>
        <time>2023-09-20T06:46:59Z</time>
      </trkpt>
      <trkpt lat="43.6024" lon="6.32954">
        <ele>705</ele>
      </trkpt>
      <trkpt lat="43.6024" lon="6.3296">
        <ele>705.1</ele>
        <time>2023-09-20T06:47:07Z</time>
      </trkpt>
      <trkpt lat="43.60241" lon="6.32967">
        <ele>705.3</ele>
      </trkpt>
      <trkpt lat="43.60242" lon="6.32973">
        <ele>705.4</ele>
        <time>2023-09-20T06:47:15Z</time>
      </trkpt>
      <trkpt lat="43.60239" lon="6.32982">
        <ele>705.1</ele>
      </trkpt>
      <trkpt lat="43.60236" lon="6.32991">
        <ele>704.7</ele>
        <time>2023-09-20T06:47:25Z</time>
      </trkpt>
      <trkpt lat="43.60231" lon="6.32998">
        <ele>704</ele>
      </trkpt>
      <trkpt lat="43.60226" lon="6.33004">
        <ele>703.4</ele>
        <time>2023-09-20T06:47:35Z</time>
      </trkpt>
      <trkpt lat="43.60224" lon="6.33011">
        <ele>703.2</ele>
      </trkpt>
      <trkpt lat="43.60222" lon="6.33017">
        <ele>703</ele>
        <time>2023-09-20T06:47:45Z</time>
      </trkpt>
      <trkpt lat="43.60222" lon="6.33028">
        <ele>703</ele>
      </trkpt>
      <trkpt lat="43.60222" lon="6.33039">
        <ele>703</ele>
        <time>2023-09-20T06:47:57Z</time>
      </trkpt>
      <trkpt lat="43.6022" lon="6.33048">
        <ele>702.9</ele>
      </trkpt>
      <trkpt lat="43.60217" lon="6.33056">
        <ele>702.8</ele>
        <time>2023-09-20T06:48:08Z</time>
      </trkpt>
      <trkpt lat="43.60215" lon="6.33065">
        <ele>702.6</ele>
      </trkpt>
      <trkpt lat="43.60212" lon="6.33074">
        <ele>702.4</ele>
        <time>2023-09-20T06:48:19Z</time>
      </trkpt>
      <trkpt lat="43.60211" lon="6.33084">
        <ele>702.2</ele>
      </trkpt>
      <trkpt lat="43.60209" lon="6.33093">
        <ele>702</ele>
        <time>2023-09-20T06:48:29Z</time>
      </trkpt>
      <trkpt lat="43.60209" lon="6.331">
        <ele>702</ele>
      </trkpt>
      <trkpt lat="43.60209" lon="6.33107">
        <ele>702</ele>
        <time>2023-09-20T06:48:39Z</time>
      </trkpt>
      <trkpt lat="43.6021" lon="6.33114">
        <ele>702</ele>
      </trkpt>
      <trkpt lat="43.6021" lon="6.33121">
        <ele>701.9</ele>
        <time>2023-09-20T06:48:48Z</time>
      </trkpt>
      <trkpt lat="43.60211" lon="6.33129">
        <ele>701.8</ele>
      </trkpt>
      <trkpt lat="43.60212" lon="6.33136">
        <ele>701.7</ele>
        <time>2023-09-20T06:48:56Z</time>
      </trkpt>
      <trkpt lat="43.60213" lon="6.33143">
        <ele>701.7</ele>
      </trkpt>
      <trkpt lat="43.60214" lon="6.3315">
        <ele>701.7</ele>
        <time>2023-09-20T06:49:04Z</time>
      </trkpt>
      <trkpt lat="43.60216" lon="6.33158">
        <ele>701.8</ele>
      </trkpt>
      <trkpt lat="43.60217" lon="6.33165">
        <ele>701.8</ele>
        <time>2023-09-20T06:49:13Z</time>
      </trkpt>
      <trkpt lat="43.60219" lon="6.33172">
        <ele>701.8</ele>
      </trkpt>
      <trkpt lat="43.60221" lon="6.33179">
        <ele>701.6</ele>
        <time>2023-09-20T06:49:23Z</time>
      </trkpt>
      <trkpt lat="43.60226" lon="6.33185">
        <ele>701.5</ele>
      </trkpt>
      <trkpt lat="43.60231" lon="6.3319">
        <ele>701.5</ele>
        <time>2023-09-20T06:49:34Z</time>
      </trkpt>
      <trkpt lat="43.60236" lon="6.33197">
        <ele>701.4</ele>
      </trkpt>
      <trkpt lat="43.6024" lon="6.33203">
        <ele>701.1</ele>
        <time>2023-09-20T06:49:45Z</time>
      </trkpt>
      <trkpt lat="43.60243" lon="6.33209">
        <ele>700.8</ele>
      </trkpt>
      <trkpt lat="43.60246" lon="6.33215">
        <ele>700.5</ele>
        <time>2023-09-20T06:49:53Z</time>
      </trkpt>
      <trkpt lat="43.60247" lon="6.33223">
        <ele>700</ele>
      </trkpt>
      <trkpt lat="43.60247" lon="6.33231">
        <ele>699.6</ele>
        <time>2023-09-20T06:50:02Z</time>
      </trkpt>
      <trkpt lat="43.60244" lon="6.33237">
        <ele>699.4</ele>
      </trkpt>
      <trkpt lat="43.60241" lon="6.33243">
        <ele>699</ele>
        <time>2023-09-20T06:50:11Z</time>
      </trkpt>
      <trkpt lat="43.6024" lon="6.33251">
        <ele>698.7</ele>
      </trkpt>
      <trkpt lat="43.60239" lon="6.33259">
        <ele>698.8</ele>
        <time>2023-09-20T06:50:21Z</time>
      </trkpt>
      <trkpt lat="43.60237" lon="6.33267">
        <ele>698.8</ele>
      </trkpt>
      <trkpt lat="43.60235" lon="6.33274">
        <ele>698.9</ele>
        <time>2023-09-20T06:50:31Z</time>
      </trkpt>
      <trkpt lat="43.60227" lon="6.33276">
        <ele>698.3</ele>
      </trkpt>
      <trkpt lat="43.60218" lon="6.33277">
        <ele>697.7</ele>
        <time>2023-09-20T06:50:41Z</time>
      </trkpt>
      <trkpt lat="43.60213" lon="6.33279">
        <ele>697.4</ele>
      </trkpt>
      <trkpt lat="43.60208" lon="6.33281">
        <ele>697.3</ele>
        <time>2023-09-20T06:50:50Z</time>
      </trkpt>
      <trkpt lat="43.60203" lon="6.33283">
        <ele>697.1</ele>
      </trkpt>
      <trkpt lat="43.60198" lon="6.33284">
        <ele>696.9</ele>
        <time>2023-09-20T06:50:58Z</time>
      </trkpt>
      <trkpt lat="43.60193" lon="6.33287">
        <ele>697</ele>
      </trkpt>
      <trkpt lat="43.60188" lon="6.3329">
        <ele>697.2</ele>
        <time>2023-09-20T06:51:06Z</time>
      </trkpt>
      <trkpt lat="43.60183" lon="6.33292">
        <ele>697.1</ele>
      </trkpt>
      <trkpt lat="43.60178" lon="6.33294">
        <ele>696.9</ele>
        <time>2023-09-20T06:51:14Z</time>
      </trkpt>
      <trkpt lat="43.60173" lon="6.33296">
        <ele>696.5</ele>
      </trkpt>
      <trkpt lat="43.60168" lon="6.33298">
        <ele>695.9</ele>
        <time>2023-09-20T06:51:22Z</time>
      </trkpt>
      <trkpt lat="43.60164" lon="6.33301">
        <ele>695.4</ele>
      </trkpt>
      <trkpt lat="43.60159" lon="6.33303">
        <ele>695</ele>
        <time>2023-09-20T06:51:30Z</time>
      </trkpt>
      <trkpt lat="43.60156" lon="6.33308">
        <ele>694.8</ele>
      </trkpt>
      <trkpt lat="43.60152" lon="6.33312">
        <ele>695.2</ele>
        <time>2023-09-20T06:51:38Z</time>
      </trkpt>
      <trkpt lat="43.60149" lon="6.33317">
        <ele>695.5</ele>
      </trkpt>
      <trkpt lat="43.60146" lon="6.33322">
        <ele>695.7</ele>
        <time>2023-09-20T06:51:46Z</time>
      </trkpt>
      <trkpt lat="43.60142" lon="6.33327">
        <ele>695.8</ele>
      </trkpt>
      <trkpt lat="43.60138" lon="6.33331">
        <ele>695.8</ele>
        <time>2023-09-20T06:51:54Z</time>
      </trkpt>
      <trkpt lat="43.60134" lon="6.33336">
        <ele>696.1</ele>
      </trkpt>
      <trkpt lat="43.60129" lon="6.33341">
        <ele>696.3</ele>
        <time>2023-09-20T06:52:03Z</time>
      </trkpt>
      <trkpt lat="43.60125" lon="6.33346">
        <ele>696.4</ele>
      </trkpt>
      <trkpt lat="43.60121" lon="6.33351">
        <ele>696.4</ele>
        <time>2023-09-20T06:52:11Z</time>
      </trkpt>
      <trkpt lat="43.60118" lon="6.33357">
        <ele>696.5</ele>
      </trkpt>
      <trkpt lat="43.60115" lon="6.33363">
        <ele>696.6</ele>
        <time>2023-09-20T06:52:19Z</time>
      </trkpt>
      <trkpt lat="43.60112" lon="6.33369">
        <ele>696.7</ele>
      </trkpt>
      <trkpt lat="43.60109" lon="6.33375">
        <ele>696.8</ele>
        <time>2023-09-20T06:52:28Z</time>
      </trkpt>
      <trkpt lat="43.60106" lon="6.33381">
        <ele>696.9</ele>
      </trkpt>
      <trkpt lat="43.60102" lon="6.33386">
        <ele>696.8</ele>
        <time>2023-09-20T06:52:36Z</time>
      </trkpt>
      <trkpt lat="43.60101" lon="6.33393">
        <ele>697.2</ele>
      </trkpt>
      <trkpt lat="43.601" lon="6.334">
        <ele>697.4</ele>
        <time>2023-09-20T06:52:44Z</time>
      </trkpt>
      <trkpt lat="43.601" lon="6.33407">
        <ele>697.7</ele>
      </trkpt>
      <trkpt lat="43.60099" lon="6.33413">
        <ele>698</ele>
        <time>2023-09-20T06:52:53Z</time>
      </trkpt>
      <trkpt lat="43.60098" lon="6.33422">
        <ele>698.1</ele>
      </trkpt>
      <trkpt lat="43.60097" lon="6.3343">
        <ele>698</ele>
        <time>2023-09-20T06:53:02Z</time>
      </trkpt>
      <trkpt lat="43.60097" lon="6.33438">
        <ele>697.9</ele>
      </trkpt>
      <trkpt lat="43.60096" lon="6.33445">
        <ele>697.7</ele>
        <time>2023-09-20T06:53:11Z</time>
      </trkpt>
      <trkpt lat="43.60093" lon="6.33452">
        <ele>697.1</ele>
      </trkpt>
      <trkpt lat="43.60089" lon="6.33459">
        <ele>696.3</ele>
        <time>2023-09-20T06:53:21Z</time>
      </trkpt>
      <trkpt lat="43.60086" lon="6.33467">
        <ele>695.7</ele>
      </trkpt>
      <trkpt lat="43.60083" lon="6.33474">
        <ele>695</ele>
        <time>2023-09-20T06:53:30Z</time>
      </trkpt>
      <trkpt lat="43.60081" lon="6.33483">
        <ele>694.7</ele>
      </trkpt>
      <trkpt lat="43.60079" lon="6.33491">
        <ele>694.5</ele>
        <time>2023-09-20T06:53:40Z</time>
      </trkpt>
      <trkpt lat="43.60077" lon="6.33499">
        <ele>694.3</ele>
      </trkpt>
      <trkpt lat="43.60075" lon="6.33506">
        <ele>693.9</ele>
        <time>2023-09-20T06:53:49Z</time>
      </trkpt>
      <trkpt lat="43.60073" lon="6.33513">
        <ele>693.4</ele>
      </trkpt>
      <trkpt lat="43.60071" lon="6.33519">
        <ele>693</ele>
        <time>2023-09-20T06:53:58Z</time>
      </trkpt>
      <trkpt lat="43.60066" lon="6.33525">
        <ele>692.2</ele>
      </trkpt>
      <trkpt lat="43.60061" lon="6.3353">
        <ele>691.5</ele>
        <time>2023-09-20T06:54:09Z</time>
      </trkpt>
      <trkpt lat="43.60056" lon="6.33534">
        <ele>690.8</ele>
      </trkpt>
      <trkpt lat="43.60051" lon="6.33538">
        <ele>690.4</ele>
        <time>2023-09-20T06:54:19Z</time>
      </trkpt>
      <trkpt lat="43.60047" lon="6.33545">
        <ele>690</ele>
      </trkpt>
      <trkpt lat="43.60043" lon="6.33552">
        <ele>689.6</ele>
        <time>2023-09-20T06:54:30Z</time>
      </trkpt>
      <trkpt lat="43.60041" lon="6.3356">
        <ele>689.5</ele>
      </trkpt>
      <trkpt lat="43.60038" lon="6.33568">
        <ele>689.4</ele>
        <time>2023-09-20T06:54:41Z</time>
      </trkpt>
      <trkpt lat="43.60039" lon="6.33576">
        <ele>689.4</ele>
      </trkpt>
      <trkpt lat="43.60039" lon="6.33584">
        <ele>689.4</ele>
        <time>2023-09-20T06:54:51Z</time>
      </trkpt>
      <trkpt lat="43.6004" lon="6.33592">
        <ele>689.1</ele>
      </trkpt>
      <trkpt lat="43.6004" lon="6.33599">
        <ele>688.9</ele>
        <time>2023-09-20T06:55:02Z</time>
      </trkpt>
      <trkpt lat="43.60044" lon="6.33606">
        <ele>688.8</ele>
      </trkpt>
      <trkpt lat="43.60047" lon="6.33612">
        <ele>688.7</ele>
        <time>2023-09-20T06:55:11Z</time>
      </trkpt>
      <trkpt lat="43.60048" lon="6.33619">
        <ele>688.6</ele>
      </trkpt>
      <trkpt lat="43.60049" lon="6.33626">
        <ele>688.5</ele>
        <time>2023-09-20T06:55:21Z</time>
      </trkpt>
      <trkpt lat="43.60052" lon="6.33633">
        <ele>688.3</ele>
      </trkpt>
      <trkpt lat="43.60054" lon="6.3364">
        <ele>688</ele>
        <time>2023-09-20T06:55:30Z</time>
      </trkpt>
      <trkpt lat="43.60055" lon="6.33647">
        <ele>687.8</ele>
      </trkpt>
      <trkpt lat="43.60055" lon="6.33654">
        <ele>687.5</ele>
        <time>2023-09-20T06:55:38Z</time>
      </trkpt>
      <trkpt lat="43.60056" lon="6.33661">
        <ele>687.3</ele>
      </trkpt>
      <trkpt lat="43.60057" lon="6.33668">
        <ele>687.2</ele>
        <time>2023-09-20T06:55:47Z</time>
      </trkpt>
      <trkpt lat="43.6006" lon="6.33675">
        <ele>687.3</ele>
      </trkpt>
      <trkpt lat="43.60062" lon="6.33682">
        <ele>687.4</ele>
        <time>2023-09-20T06:55:56Z</time>
      </trkpt>
      <trkpt lat="43.60066" lon="6.33689">
        <ele>687.5</ele>
      </trkpt>
      <trkpt lat="43.60069" lon="6.33695">
        <ele>687.5</ele>
        <time>2023-09-20T06:56:05Z</time>
      </trkpt>
      <trkpt lat="43.60071" lon="6.33703">
        <ele>687.7</ele>
      </trkpt>
      <trkpt lat="43.60073" lon="6.3371">
        <ele>687.7</ele>
        <time>2023-09-20T06:56:15Z</time>
      </trkpt>
      <trkpt lat="43.60075" lon="6.33718">
        <ele>687.6</ele>
      </trkpt>
      <trkpt lat="43.60077" lon="6.33725">
        <ele>687.5</ele>
        <time>2023-09-20T06:56:24Z</time>
      </trkpt>
      <trkpt lat="43.60078" lon="6.3373">
        <ele>687.4</ele>
        <time>2023-09-20T06:56:59Z</time>
      </trkpt>
      <trkpt lat="43.60078" lon="6.33719">
        <ele>687.4</ele>
        <time>2023-09-20T06:57:12Z</time>
      </trkpt>
      <trkpt lat="43.60081" lon="6.33727">
        <ele>687.2</ele>
      </trkpt>
      <trkpt lat="43.60083" lon="6.33735">
        <ele>687</ele>
        <time>2023-09-20T06:57:24Z</time>
      </trkpt>
      <trkpt lat="43.60087" lon="6.33742">
        <ele>687.3</ele>
      </trkpt>
      <trkpt lat="43.6009" lon="6.33749">
        <ele>687.5</ele>
        <time>2023-09-20T06:57:33Z</time>
      </trkpt>
      <trkpt lat="43.60093" lon="6.33756">
        <ele>687.6</ele>
      </trkpt>
      <trkpt lat="43.60096" lon="6.33763">
        <ele>687.7</ele>
        <time>2023-09-20T06:57:42Z</time>
      </trkpt>
      <trkpt lat="43.60098" lon="6.3377">
        <ele>687.7</ele>
      </trkpt>
      <trkpt lat="43.601" lon="6.33777">
        <ele>687.6</ele>
        <time>2023-09-20T06:57:51Z</time>
      </trkpt>
      <trkpt lat="43.60102" lon="6.33785">
        <ele>687.3</ele>
      </trkpt>
      <trkpt lat="43.60103" lon="6.33792">
        <ele>687</ele>
        <time>2023-09-20T06:58:00Z</time>
      </trkpt>
      <trkpt lat="43.60102" lon="6.33801">
        <ele>686.6</ele>
      </trkpt>
      <trkpt lat="43.601" lon="6.33809">
        <ele>686.5</ele>
        <time>2023-09-20T06:58:09Z</time>
      </trkpt>
      <trkpt lat="43.60101" lon="6.33818">
        <ele>686.6</ele>
      </trkpt>
      <trkpt lat="43.60102" lon="6.33827">
        <ele>686.8</ele>
        <time>2023-09-20T06:58:19Z</time>
      </trkpt>
      <trkpt lat="43.60105" lon="6.33835">
        <ele>687</ele>
      </trkpt>
      <trkpt lat="43.60108" lon="6.33842">
        <ele>687</ele>
        <time>2023-09-20T06:58:29Z</time>
      </trkpt>
      <trkpt lat="43.6011" lon="6.33851">
        <ele>687</ele>
      </trkpt>
      <trkpt lat="43.60112" lon="6.3386">
        <ele>687.1</ele>
        <time>2023-09-20T06:58:39Z</time>
      </trkpt>
      <trkpt lat="43.60113" lon="6.33869">
        <ele>686.9</ele>
      </trkpt>
      <trkpt lat="43.60113" lon="6.33877">
        <ele>686.7</ele>
        <time>2023-09-20T06:58:48Z</time>
      </trkpt>
      <trkpt lat="43.60115" lon="6.33884">
        <ele>686.7</ele>
      </trkpt>
      <trkpt lat="43.60117" lon="6.3389">
        <ele>686.8</ele>
        <time>2023-09-20T06:58:56Z</time>
      </trkpt>
      <trkpt lat="43.60119" lon="6.33897">
        <ele>686.8</ele>
      </trkpt>
      <trkpt lat="43.6012" lon="6.33903">
        <ele>686.8</ele>
        <time>2023-09-20T06:59:04Z</time>
      </trkpt>
      <trkpt lat="43.60118" lon="6.33912">
        <ele>686.2</ele>
      </trkpt>
      <trkpt lat="43.60116" lon="6.3392">
        <ele>685.7</ele>
        <time>2023-09-20T06:59:14Z</time>
      </trkpt>
      <trkpt lat="43.60114" lon="6.33927">
        <ele>685.4</ele>
      </trkpt>
      <trkpt lat="43.60111" lon="6.33933">
        <ele>685</ele>
        <time>2023-09-20T06:59:22Z</time>
      </trkpt>
      <trkpt lat="43.6011" lon="6.33941">
        <ele>685.1</ele>
      </trkpt>
      <trkpt lat="43.60108" lon="6.33948">
        <ele>685.1</ele>
        <time>2023-09-20T06:59:32Z</time>
      </trkpt>
      <trkpt lat="43.60111" lon="6.33955">
        <ele>684.6</ele>
      </trkpt>
      <trkpt lat="43.60114" lon="6.33962">
        <ele>685</ele>
        <time>2023-09-20T06:59:42Z</time>
      </trkpt>
      <trkpt lat="43.60116" lon="6.33969">
        <ele>685.3</ele>
      </trkpt>
      <trkpt lat="43.60118" lon="6.33975">
        <ele>685.7</ele>
        <time>2023-09-20T06:59:51Z</time>
      </trkpt>
      <trkpt lat="43.60119" lon="6.33984">
        <ele>685.7</ele>
      </trkpt>
      <trkpt lat="43.6012" lon="6.33993">
        <ele>685.8</ele>
        <time>2023-09-20T07:00:03Z</time>
      </trkpt>
      <trkpt lat="43.60121" lon="6.34002">
        <ele>685.7</ele>
      </trkpt>
      <trkpt lat="43.60122" lon="6.34011">
        <ele>685.5</ele>
        <time>2023-09-20T07:00:13Z</time>
      </trkpt>
      <trkpt lat="43.6012" lon="6.3402">
        <ele>684.9</ele>
      </trkpt>
      <trkpt lat="43.60118" lon="6.34028">
        <ele>684.5</ele>
        <time>2023-09-20T07:00:24Z</time>
      </trkpt>
      <trkpt lat="43.60121" lon="6.34037">
        <ele>684.7</ele>
      </trkpt>
      <trkpt lat="43.60123" lon="6.34045">
        <ele>684.9</ele>
        <time>2023-09-20T07:00:34Z</time>
      </trkpt>
      <trkpt lat="43.60128" lon="6.34043">
        <ele>685.2</ele>
      </trkpt>
      <trkpt lat="43.60133" lon="6.3404">
        <ele>685.6</ele>
        <time>2023-09-20T07:00:46Z</time>
      </trkpt>
      <trkpt lat="43.60138" lon="6.34039">
        <ele>685.9</ele>
      </trkpt>
      <trkpt lat="43.60142" lon="6.34037">
        <ele>686.2</ele>
        <time>2023-09-20T07:00:54Z</time>
      </trkpt>
      <trkpt lat="43.60147" lon="6.34035">
        <ele>686.4</ele>
      </trkpt>
      <trkpt lat="43.60151" lon="6.34032">
        <ele>686.6</ele>
        <time>2023-09-20T07:01:02Z</time>
      </trkpt>
      <trkpt lat="43.60156" lon="6.34031">
        <ele>686.7</ele>
      </trkpt>
      <trkpt lat="43.6016" lon="6.3403">
        <ele>686.9</ele>
        <time>2023-09-20T07:01:10Z</time>
      </trkpt>
      <trkpt lat="43.60166" lon="6.34028">
        <ele>687</ele>
      </trkpt>
      <trkpt lat="43.60171" lon="6.34026">
        <ele>687.5</ele>
        <time>2023-09-20T07:01:19Z</time>
      </trkpt>
      <trkpt lat="43.60177" lon="6.34028">
        <ele>687.4</ele>
      </trkpt>
      <trkpt lat="43.60182" lon="6.34029">
        <ele>687.6</ele>
        <time>2023-09-20T07:01:27Z</time>
      </trkpt>
      <trkpt lat="43.60187" lon="6.3403">
        <ele>687.8</ele>
      </trkpt>
      <trkpt lat="43.60191" lon="6.3403">
        <ele>688</ele>
        <time>2023-09-20T07:01:35Z</time>
      </trkpt>
      <trkpt lat="43.60197" lon="6.34029">
        <ele>688.2</ele>
      </trkpt>
      <trkpt lat="43.60202" lon="6.34028">
        <ele>688.3</ele>
        <time>2023-09-20T07:01:44Z</time>
      </trkpt>
      <trkpt lat="43.60204" lon="6.34029">
        <ele>688.5</ele>
        <time>2023-09-20T07:02:24Z</time>
      </trkpt>
      <trkpt lat="43.6021" lon="6.34024">
        <ele>689.3</ele>
        <time>2023-09-20T07:02:59Z</time>
      </trkpt>
      <trkpt lat="43.60217" lon="6.34026">
        <ele>689.2</ele>
        <time>2023-09-20T07:03:18Z</time>
      </trkpt>
      <trkpt lat="43.60219" lon="6.34024">
        <ele>689.8</ele>
        <time>2023-09-20T07:04:06Z</time>
      </trkpt>
      <trkpt lat="43.60224" lon="6.34026">
        <ele>689.8</ele>
      </trkpt>
      <trkpt lat="43.60229" lon="6.34027">
        <ele>690.2</ele>
        <time>2023-09-20T07:04:23Z</time>
      </trkpt>
      <trkpt lat="43.60236" lon="6.34029">
        <ele>691</ele>
      </trkpt>
      <trkpt lat="43.60242" lon="6.34031">
        <ele>691.9</ele>
        <time>2023-09-20T07:04:36Z</time>
      </trkpt>
      <trkpt lat="43.60248" lon="6.34035">
        <ele>692.5</ele>
      </trkpt>
      <trkpt lat="43.60253" lon="6.34038">
        <ele>692.8</ele>
        <time>2023-09-20T07:04:48Z</time>
      </trkpt>
      <trkpt lat="43.6026" lon="6.34041">
        <ele>693.1</ele>
      </trkpt>
      <trkpt lat="43.60267" lon="6.34043">
        <ele>693.3</ele>
        <time>2023-09-20T07:04:59Z</time>
      </trkpt>
      <trkpt lat="43.60274" lon="6.34047">
        <ele>693.4</ele>
      </trkpt>
      <trkpt lat="43.6028" lon="6.34051">
        <ele>693.5</ele>
        <time>2023-09-20T07:05:09Z</time>
      </trkpt>
      <trkpt lat="43.60284" lon="6.34055">
        <ele>693.5</ele>
      </trkpt>
      <trkpt lat="43.60288" lon="6.34059">
        <ele>694.1</ele>
        <time>2023-09-20T07:05:18Z</time>
      </trkpt>
      <trkpt lat="43.60292" lon="6.34063">
        <ele>694.7</ele>
      </trkpt>
      <trkpt lat="43.60296" lon="6.34067">
        <ele>695.1</ele>
        <time>2023-09-20T07:05:29Z</time>
      </trkpt>
      <trkpt lat="43.60302" lon="6.34067">
        <ele>695.3</ele>
      </trkpt>
      <trkpt lat="43.60307" lon="6.34067">
        <ele>695.6</ele>
        <time>2023-09-20T07:05:38Z</time>
      </trkpt>
      <trkpt lat="43.60312" lon="6.34065">
        <ele>695.9</ele>
      </trkpt>
      <trkpt lat="43.60316" lon="6.34062">
        <ele>696.2</ele>
        <time>2023-09-20T07:05:47Z</time>
      </trkpt>
      <trkpt lat="43.60321" lon="6.3406">
        <ele>696.4</ele>
      </trkpt>
      <trkpt lat="43.60325" lon="6.34058">
        <ele>696.6</ele>
        <time>2023-09-20T07:05:58Z</time>
      </trkpt>
      <trkpt lat="43.6033" lon="6.34059">
        <ele>697.1</ele>
      </trkpt>
      <trkpt lat="43.60335" lon="6.34059">
        <ele>697.3</ele>
        <time>2023-09-20T07:06:12Z</time>
      </trkpt>
      <trkpt lat="43.6034" lon="6.3406">
        <ele>697.3</ele>
      </trkpt>
      <trkpt lat="43.60345" lon="6.34061">
        <ele>697.3</ele>
        <time>2023-09-20T07:06:25Z</time>
      </trkpt>
      <trkpt lat="43.60351" lon="6.34062">
        <ele>697.1</ele>
      </trkpt>
      <trkpt lat="43.60357" lon="6.34062">
        <ele>696.9</ele>
        <time>2023-09-20T07:06:36Z</time>
      </trkpt>
      <trkpt lat="43.60362" lon="6.34063">
        <ele>696.7</ele>
      </trkpt>
      <trkpt lat="43.60367" lon="6.34063">
        <ele>696.4</ele>
        <time>2023-09-20T07:06:45Z</time>
      </trkpt>
      <trkpt lat="43.60372" lon="6.34065">
        <ele>696.1</ele>
      </trkpt>
      <trkpt lat="43.60377" lon="6.34066">
        <ele>695.9</ele>
        <time>2023-09-20T07:06:53Z</time>
      </trkpt>
      <trkpt lat="43.60382" lon="6.34069">
        <ele>695.7</ele>
      </trkpt>
      <trkpt lat="43.60387" lon="6.34072">
        <ele>695.6</ele>
        <time>2023-09-20T07:07:02Z</time>
      </trkpt>
      <trkpt lat="43.60391" lon="6.34076">
        <ele>695.7</ele>
      </trkpt>
      <trkpt lat="43.60395" lon="6.34079">
        <ele>695.9</ele>
        <time>2023-09-20T07:07:11Z</time>
      </trkpt>
      <trkpt lat="43.60396" lon="6.34086">
        <ele>695.9</ele>
      </trkpt>
      <trkpt lat="43.60397" lon="6.34092">
        <ele>695.8</ele>
        <time>2023-09-20T07:07:20Z</time>
      </trkpt>
      <trkpt lat="43.60402" lon="6.34102">
        <ele>695.6</ele>
        <time>2023-09-20T07:07:30Z</time>
      </trkpt>
      <trkpt lat="43.60406" lon="6.34105">
        <ele>695.7</ele>
      </trkpt>
      <trkpt lat="43.6041" lon="6.34108">
        <ele>695.8</ele>
        <time>2023-09-20T07:07:51Z</time>
      </trkpt>
      <trkpt lat="43.60415" lon="6.34108">
        <ele>695.9</ele>
      </trkpt>
      <trkpt lat="43.6042" lon="6.34108">
        <ele>696</ele>
        <time>2023-09-20T07:08:03Z</time>
      </trkpt>
      <trkpt lat="43.60425" lon="6.3411">
        <ele>696</ele>
      </trkpt>
      <trkpt lat="43.6043" lon="6.34112">
        <ele>696</ele>
        <time>2023-09-20T07:08:15Z</time>
      </trkpt>
      <trkpt lat="43.60433" lon="6.34118">
        <ele>696.4</ele>
      </trkpt>
      <trkpt lat="43.60436" lon="6.34123">
        <ele>696.9</ele>
        <time>2023-09-20T07:08:25Z</time>
      </trkpt>
      <trkpt lat="43.60439" lon="6.34129">
        <ele>697.5</ele>
      </trkpt>
      <trkpt lat="43.60441" lon="6.34134">
        <ele>698.2</ele>
        <time>2023-09-20T07:08:37Z</time>
      </trkpt>
      <trkpt lat="43.60445" lon="6.34138">
        <ele>698.9</ele>
      </trkpt>
      <trkpt lat="43.60449" lon="6.34142">
        <ele>699.1</ele>
        <time>2023-09-20T07:08:51Z</time>
      </trkpt>
      <trkpt lat="43.60455" lon="6.34146">
        <ele>699.3</ele>
      </trkpt>
      <trkpt lat="43.6046" lon="6.34149">
        <ele>699.4</ele>
        <time>2023-09-20T07:09:03Z</time>
      </trkpt>
      <trkpt lat="43.60466" lon="6.34151">
        <ele>699.4</ele>
      </trkpt>
      <trkpt lat="43.60471" lon="6.34152">
        <ele>699.5</ele>
        <time>2023-09-20T07:09:13Z</time>
      </trkpt>
      <trkpt lat="43.60476" lon="6.34155">
        <ele>699.5</ele>
      </trkpt>
      <trkpt lat="43.6048" lon="6.34158">
        <ele>699.6</ele>
        <time>2023-09-20T07:09:23Z</time>
      </trkpt>
      <trkpt lat="43.60486" lon="6.34164">
        <ele>700.3</ele>
        <time>2023-09-20T07:09:36Z</time>
      </trkpt>
      <trkpt lat="43.60489" lon="6.3417">
        <ele>701.2</ele>
      </trkpt>
      <trkpt lat="43.60492" lon="6.34176">
        <ele>702.3</ele>
        <time>2023-09-20T07:09:52Z</time>
      </trkpt>
      <trkpt lat="43.60496" lon="6.34182">
        <ele>703.6</ele>
      </trkpt>
      <trkpt lat="43.605" lon="6.34188">
        <ele>705.1</ele>
        <time>2023-09-20T07:10:06Z</time>
      </trkpt>
      <trkpt lat="43.60499" lon="6.34199">
        <ele>706</ele>
        <time>2023-09-20T07:10:25Z</time>
      </trkpt>
      <trkpt lat="43.60503" lon="6.34197">
        <ele>705.6</ele>
        <time>2023-09-20T07:13:26Z</time>
      </trkpt>
      <trkpt lat="43.60508" lon="6.342">
        <ele>704.9</ele>
      </trkpt>
      <trkpt lat="43.60513" lon="6.34202">
        <ele>704.1</ele>
        <time>2023-09-20T07:13:42Z</time>
      </trkpt>
      <trkpt lat="43.60518" lon="6.34205">
        <ele>703.3</ele>
      </trkpt>
      <trkpt lat="43.60523" lon="6.34208">
        <ele>702.4</ele>
        <time>2023-09-20T07:14:01Z</time>
      </trkpt>
      <trkpt lat="43.60528" lon="6.34206">
        <ele>701.6</ele>
      </trkpt>
      <trkpt lat="43.60533" lon="6.34203">
        <ele>700.8</ele>
        <time>2023-09-20T07:14:11Z</time>
      </trkpt>
      <trkpt lat="43.60541" lon="6.34199">
        <ele>699.5</ele>
        <time>2023-09-20T07:14:23Z</time>
      </trkpt>
      <trkpt lat="43.60549" lon="6.34196">
        <ele>698.2</ele>
        <time>2023-09-20T07:14:34Z</time>
      </trkpt>
      <trkpt lat="43.60555" lon="6.34205">
        <ele>697.1</ele>
        <time>2023-09-20T07:14:51Z</time>
      </trkpt>
      <trkpt lat="43.60559" lon="6.34212">
        <ele>696.5</ele>
      </trkpt>
      <trkpt lat="43.60563" lon="6.34218">
        <ele>695.9</ele>
        <time>2023-09-20T07:15:03Z</time>
      </trkpt>
      <trkpt lat="43.60568" lon="6.34223">
        <ele>695.2</ele>
      </trkpt>
      <trkpt lat="43.60572" lon="6.34228">
        <ele>694</ele>
        <time>2023-09-20T07:15:15Z</time>
      </trkpt>
      <trkpt lat="43.60577" lon="6.34228">
        <ele>693.3</ele>
      </trkpt>
      <trkpt lat="43.60582" lon="6.34227">
        <ele>692.7</ele>
        <time>2023-09-20T07:15:25Z</time>
      </trkpt>
      <trkpt lat="43.60586" lon="6.3423">
        <ele>691.7</ele>
      </trkpt>
      <trkpt lat="43.6059" lon="6.34233">
        <ele>690.7</ele>
        <time>2023-09-20T07:15:37Z</time>
      </trkpt>
      <trkpt lat="43.60593" lon="6.34239">
        <ele>689.8</ele>
      </trkpt>
      <trkpt lat="43.60595" lon="6.34245">
        <ele>689.1</ele>
        <time>2023-09-20T07:15:51Z</time>
      </trkpt>
      <trkpt lat="43.60596" lon="6.34252">
        <ele>688.5</ele>
      </trkpt>
      <trkpt lat="43.60597" lon="6.34259">
        <ele>688</ele>
        <time>2023-09-20T07:16:05Z</time>
      </trkpt>
      <trkpt lat="43.60595" lon="6.34268">
        <ele>687.7</ele>
      </trkpt>
      <trkpt lat="43.60593" lon="6.34277">
        <ele>687.4</ele>
        <time>2023-09-20T07:16:17Z</time>
      </trkpt>
      <trkpt lat="43.60596" lon="6.34286">
        <ele>687</ele>
        <time>2023-09-20T07:16:36Z</time>
      </trkpt>
      <trkpt lat="43.60601" lon="6.34284">
        <ele>686.6</ele>
      </trkpt>
      <trkpt lat="43.60606" lon="6.34281">
        <ele>686.3</ele>
        <time>2023-09-20T07:16:52Z</time>
      </trkpt>
      <trkpt lat="43.60612" lon="6.34282">
        <ele>685.8</ele>
      </trkpt>
      <trkpt lat="43.60617" lon="6.34282">
        <ele>685.4</ele>
        <time>2023-09-20T07:17:04Z</time>
      </trkpt>
      <trkpt lat="43.60622" lon="6.34281">
        <ele>685.1</ele>
      </trkpt>
      <trkpt lat="43.60627" lon="6.34279">
        <ele>684.8</ele>
        <time>2023-09-20T07:17:16Z</time>
      </trkpt>
      <trkpt lat="43.60635" lon="6.34275">
        <ele>684.4</ele>
        <time>2023-09-20T07:17:27Z</time>
      </trkpt>
      <trkpt lat="43.6064" lon="6.34273">
        <ele>684.1</ele>
      </trkpt>
      <trkpt lat="43.60645" lon="6.34271">
        <ele>684</ele>
        <time>2023-09-20T07:17:42Z</time>
      </trkpt>
      <trkpt lat="43.6065" lon="6.34268">
        <ele>683.8</ele>
      </trkpt>
      <trkpt lat="43.60655" lon="6.34265">
        <ele>683.6</ele>
        <time>2023-09-20T07:17:52Z</time>
      </trkpt>
      <trkpt lat="43.60655" lon="6.34258">
        <ele>683.7</ele>
      </trkpt>
      <trkpt lat="43.60655" lon="6.34251">
        <ele>683.8</ele>
        <time>2023-09-20T07:18:09Z</time>
      </trkpt>
      <trkpt lat="43.60663" lon="6.34255">
        <ele>683.2</ele>
        <time>2023-09-20T07:18:19Z</time>
      </trkpt>
      <trkpt lat="43.60664" lon="6.34262">
        <ele>683.2</ele>
      </trkpt>
      <trkpt lat="43.60664" lon="6.34268">
        <ele>683.1</ele>
        <time>2023-09-20T07:18:30Z</time>
      </trkpt>
      <trkpt lat="43.60669" lon="6.34272">
        <ele>682.9</ele>
      </trkpt>
      <trkpt lat="43.60674" lon="6.34276">
        <ele>682.5</ele>
        <time>2023-09-20T07:18:44Z</time>
      </trkpt>
      <trkpt lat="43.60676" lon="6.34285">
        <ele>682</ele>
      </trkpt>
      <trkpt lat="43.60677" lon="6.34293">
        <ele>681.4</ele>
        <time>2023-09-20T07:18:57Z</time>
      </trkpt>
      <trkpt lat="43.60679" lon="6.343">
        <ele>680.9</ele>
      </trkpt>
      <trkpt lat="43.6068" lon="6.34306">
        <ele>680.5</ele>
        <time>2023-09-20T07:19:09Z</time>
      </trkpt>
      <trkpt lat="43.60686" lon="6.3431">
        <ele>680.3</ele>
      </trkpt>
      <trkpt lat="43.60692" lon="6.34314">
        <ele>680.3</ele>
        <time>2023-09-20T07:19:22Z</time>
      </trkpt>
      <trkpt lat="43.60696" lon="6.34309">
        <ele>680.2</ele>
      </trkpt>
      <trkpt lat="43.60699" lon="6.34303">
        <ele>680.7</ele>
        <time>2023-09-20T07:19:32Z</time>
      </trkpt>
      <trkpt lat="43.60703" lon="6.34299">
        <ele>681.2</ele>
      </trkpt>
      <trkpt lat="43.60707" lon="6.34295">
        <ele>681.5</ele>
        <time>2023-09-20T07:19:43Z</time>
      </trkpt>
      <trkpt lat="43.60712" lon="6.34294">
        <ele>681.9</ele>
      </trkpt>
      <trkpt lat="43.60716" lon="6.34293">
        <ele>682.2</ele>
        <time>2023-09-20T07:19:53Z</time>
      </trkpt>
      <trkpt lat="43.60722" lon="6.34291">
        <ele>682.3</ele>
      </trkpt>
      <trkpt lat="43.60727" lon="6.34288">
        <ele>683</ele>
        <time>2023-09-20T07:20:04Z</time>
      </trkpt>
      <trkpt lat="43.60732" lon="6.34282">
        <ele>683.1</ele>
      </trkpt>
      <trkpt lat="43.60736" lon="6.34276">
        <ele>683.5</ele>
        <time>2023-09-20T07:20:16Z</time>
      </trkpt>
      <trkpt lat="43.6074" lon="6.3427">
        <ele>684.1</ele>
      </trkpt>
      <trkpt lat="43.60744" lon="6.34264">
        <ele>684.5</ele>
        <time>2023-09-20T07:20:26Z</time>
      </trkpt>
      <trkpt lat="43.60747" lon="6.34258">
        <ele>684.4</ele>
      </trkpt>
      <trkpt lat="43.6075" lon="6.34251">
        <ele>684.1</ele>
        <time>2023-09-20T07:20:35Z</time>
      </trkpt>
      <trkpt lat="43.60753" lon="6.34246">
        <ele>684.4</ele>
      </trkpt>
      <trkpt lat="43.60756" lon="6.3424">
        <ele>684.7</ele>
        <time>2023-09-20T07:20:48Z</time>
      </trkpt>
      <trkpt lat="43.60759" lon="6.34233">
        <ele>684.8</ele>
      </trkpt>
      <trkpt lat="43.60761" lon="6.34226">
        <ele>684.7</ele>
        <time>2023-09-20T07:20:59Z</time>
      </trkpt>
      <trkpt lat="43.60764" lon="6.34219">
        <ele>684.7</ele>
      </trkpt>
      <trkpt lat="43.60766" lon="6.34211">
        <ele>685.1</ele>
        <time>2023-09-20T07:21:10Z</time>
      </trkpt>
      <trkpt lat="43.60769" lon="6.34205">
        <ele>685.4</ele>
      </trkpt>
      <trkpt lat="43.60772" lon="6.34198">
        <ele>685.8</ele>
        <time>2023-09-20T07:21:21Z</time>
      </trkpt>
      <trkpt lat="43.60778" lon="6.34193">
        <ele>686.1</ele>
      </trkpt>
      <trkpt lat="43.60783" lon="6.34188">
        <ele>686.8</ele>
        <time>2023-09-20T07:21:33Z</time>
      </trkpt>
      <trkpt lat="43.60787" lon="6.34183">
        <ele>687.2</ele>
      </trkpt>
      <trkpt lat="43.60791" lon="6.34178">
        <ele>687.6</ele>
        <time>2023-09-20T07:21:43Z</time>
      </trkpt>
      <trkpt lat="43.60796" lon="6.34173">
        <ele>687.9</ele>
      </trkpt>
      <trkpt lat="43.60801" lon="6.34167">
        <ele>688</ele>
        <time>2023-09-20T07:21:53Z</time>
      </trkpt>
      <trkpt lat="43.60804" lon="6.34161">
        <ele>688.2</ele>
      </trkpt>
      <trkpt lat="43.60807" lon="6.34155">
        <ele>688.5</ele>
        <time>2023-09-20T07:22:04Z</time>
      </trkpt>
      <trkpt lat="43.60812" lon="6.34148">
        <ele>688.8</ele>
      </trkpt>
      <trkpt lat="43.60816" lon="6.3414">
        <ele>689</ele>
        <time>2023-09-20T07:22:16Z</time>
      </trkpt>
      <trkpt lat="43.60821" lon="6.34135">
        <ele>689.2</ele>
      </trkpt>
      <trkpt lat="43.60825" lon="6.34129">
        <ele>689.4</ele>
        <time>2023-09-20T07:22:26Z</time>
      </trkpt>
      <trkpt lat="43.60829" lon="6.34124">
        <ele>689.6</ele>
      </trkpt>
      <trkpt lat="43.60832" lon="6.34118">
        <ele>689.8</ele>
        <time>2023-09-20T07:22:35Z</time>
      </trkpt>
      <trkpt lat="43.60837" lon="6.34113">
        <ele>690.1</ele>
      </trkpt>
      <trkpt lat="43.60841" lon="6.34108">
        <ele>690.4</ele>
        <time>2023-09-20T07:22:45Z</time>
      </trkpt>
      <trkpt lat="43.60844" lon="6.34103">
        <ele>690.7</ele>
      </trkpt>
      <trkpt lat="43.60847" lon="6.34098">
        <ele>691</ele>
        <time>2023-09-20T07:22:57Z</time>
      </trkpt>
      <trkpt lat="43.60852" lon="6.34093">
        <ele>691.1</ele>
      </trkpt>
      <trkpt lat="43.60856" lon="6.34088">
        <ele>691.1</ele>
        <time>2023-09-20T07:23:07Z</time>
      </trkpt>
      <trkpt lat="43.60861" lon="6.34086">
        <ele>691</ele>
      </trkpt>
      <trkpt lat="43.60866" lon="6.34083">
        <ele>691.2</ele>
        <time>2023-09-20T07:23:16Z</time>
      </trkpt>
      <trkpt lat="43.60871" lon="6.34082">
        <ele>691.4</ele>
      </trkpt>
      <trkpt lat="43.60875" lon="6.34081">
        <ele>691.6</ele>
        <time>2023-09-20T07:23:24Z</time>
      </trkpt>
      <trkpt lat="43.6088" lon="6.3408">
        <ele>691.8</ele>
      </trkpt>
      <trkpt lat="43.60885" lon="6.34079">
        <ele>691.9</ele>
        <time>2023-09-20T07:23:37Z</time>
      </trkpt>
      <trkpt lat="43.60889" lon="6.34073">
        <ele>692</ele>
      </trkpt>
      <trkpt lat="43.60892" lon="6.34067">
        <ele>692.3</ele>
        <time>2023-09-20T07:23:49Z</time>
      </trkpt>
      <trkpt lat="43.60897" lon="6.3406">
        <ele>692.6</ele>
      </trkpt>
      <trkpt lat="43.60902" lon="6.34052">
        <ele>693</ele>
        <time>2023-09-20T07:24:01Z</time>
      </trkpt>
      <trkpt lat="43.60906" lon="6.34047">
        <ele>693.4</ele>
      </trkpt>
      <trkpt lat="43.6091" lon="6.34041">
        <ele>693.6</ele>
        <time>2023-09-20T07:24:13Z</time>
      </trkpt>
      <trkpt lat="43.60915" lon="6.34039">
        <ele>693.9</ele>
      </trkpt>
      <trkpt lat="43.6092" lon="6.34037">
        <ele>694.3</ele>
        <time>2023-09-20T07:24:26Z</time>
      </trkpt>
      <trkpt lat="43.60925" lon="6.34033">
        <ele>694.7</ele>
      </trkpt>
      <trkpt lat="43.60929" lon="6.34029">
        <ele>694.9</ele>
        <time>2023-09-20T07:24:37Z</time>
      </trkpt>
      <trkpt lat="43.60934" lon="6.34024">
        <ele>695.1</ele>
      </trkpt>
      <trkpt lat="43.60938" lon="6.34018">
        <ele>695.3</ele>
        <time>2023-09-20T07:24:47Z</time>
      </trkpt>
      <trkpt lat="43.60941" lon="6.34012">
        <ele>695.2</ele>
      </trkpt>
      <trkpt lat="43.60944" lon="6.34005">
        <ele>695.2</ele>
        <time>2023-09-20T07:24:56Z</time>
      </trkpt>
      <trkpt lat="43.60947" lon="6.33998">
        <ele>695.4</ele>
      </trkpt>
      <trkpt lat="43.60949" lon="6.33991">
        <ele>695.8</ele>
        <time>2023-09-20T07:25:05Z</time>
      </trkpt>
      <trkpt lat="43.60953" lon="6.33986">
        <ele>696.2</ele>
      </trkpt>
      <trkpt lat="43.60956" lon="6.33981">
        <ele>696.5</ele>
        <time>2023-09-20T07:25:16Z</time>
      </trkpt>
      <trkpt lat="43.6096" lon="6.33971">
        <ele>696.5</ele>
        <time>2023-09-20T07:25:28Z</time>
      </trkpt>
      <trkpt lat="43.60965" lon="6.33967">
        <ele>696.5</ele>
      </trkpt>
      <trkpt lat="43.6097" lon="6.33963">
        <ele>696.3</ele>
        <time>2023-09-20T07:25:38Z</time>
      </trkpt>
      <trkpt lat="43.60974" lon="6.33958">
        <ele>695.7</ele>
      </trkpt>
      <trkpt lat="43.60978" lon="6.33953">
        <ele>694.7</ele>
        <time>2023-09-20T07:25:47Z</time>
      </trkpt>
      <trkpt lat="43.60977" lon="6.33946">
        <ele>694.3</ele>
      </trkpt>
      <trkpt lat="43.60975" lon="6.33938">
        <ele>694.9</ele>
        <time>2023-09-20T07:25:58Z</time>
      </trkpt>
      <trkpt lat="43.6098" lon="6.33933">
        <ele>694.2</ele>
      </trkpt>
      <trkpt lat="43.60984" lon="6.33928">
        <ele>693.3</ele>
        <time>2023-09-20T07:26:12Z</time>
      </trkpt>
      <trkpt lat="43.6099" lon="6.33926">
        <ele>691.9</ele>
      </trkpt>
      <trkpt lat="43.60996" lon="6.33924">
        <ele>690.3</ele>
        <time>2023-09-20T07:26:24Z</time>
      </trkpt>
      <trkpt lat="43.61001" lon="6.3392">
        <ele>689.1</ele>
      </trkpt>
      <trkpt lat="43.61006" lon="6.33915">
        <ele>689</ele>
        <time>2023-09-20T07:26:37Z</time>
      </trkpt>
      <trkpt lat="43.61012" lon="6.33907">
        <ele>689.5</ele>
        <time>2023-09-20T07:27:00Z</time>
      </trkpt>
      <trkpt lat="43.61018" lon="6.33911">
        <ele>688.8</ele>
      </trkpt>
      <trkpt lat="43.61024" lon="6.33915">
        <ele>688.3</ele>
        <time>2023-09-20T07:27:13Z</time>
      </trkpt>
      <trkpt lat="43.6103" lon="6.33915">
        <ele>687.9</ele>
      </trkpt>
      <trkpt lat="43.61036" lon="6.33915">
        <ele>687.2</ele>
        <time>2023-09-20T07:27:27Z</time>
      </trkpt>
      <trkpt lat="43.61042" lon="6.33924">
        <ele>685.9</ele>
        <time>2023-09-20T07:27:40Z</time>
      </trkpt>
      <trkpt lat="43.61046" lon="6.33929">
        <ele>685.3</ele>
      </trkpt>
      <trkpt lat="43.61049" lon="6.33934">
        <ele>684.8</ele>
        <time>2023-09-20T07:27:53Z</time>
      </trkpt>
      <trkpt lat="43.61054" lon="6.33931">
        <ele>684.6</ele>
      </trkpt>
      <trkpt lat="43.61059" lon="6.33927">
        <ele>684.6</ele>
        <time>2023-09-20T07:28:03Z</time>
      </trkpt>
      <trkpt lat="43.61064" lon="6.33926">
        <ele>684.5</ele>
      </trkpt>
      <trkpt lat="43.61068" lon="6.33925">
        <ele>684.4</ele>
        <time>2023-09-20T07:28:15Z</time>
      </trkpt>
      <trkpt lat="43.61072" lon="6.33928">
        <ele>684.2</ele>
      </trkpt>
      <trkpt lat="43.61076" lon="6.33931">
        <ele>684.1</ele>
        <time>2023-09-20T07:28:31Z</time>
      </trkpt>
      <trkpt lat="43.61077" lon="6.33939">
        <ele>684.1</ele>
      </trkpt>
      <trkpt lat="43.61077" lon="6.33946">
        <ele>684</ele>
        <time>2023-09-20T07:28:45Z</time>
      </trkpt>
      <trkpt lat="43.61072" lon="6.33954">
        <ele>684</ele>
      </trkpt>
      <trkpt lat="43.61066" lon="6.33961">
        <ele>684</ele>
        <time>2023-09-20T07:28:59Z</time>
      </trkpt>
      <trkpt lat="43.6106" lon="6.33967">
        <ele>684</ele>
      </trkpt>
      <trkpt lat="43.61053" lon="6.33972">
        <ele>684</ele>
        <time>2023-09-20T07:29:13Z</time>
      </trkpt>
      <trkpt lat="43.6105" lon="6.33978">
        <ele>684.3</ele>
      </trkpt>
      <trkpt lat="43.61047" lon="6.33984">
        <ele>684.9</ele>
        <time>2023-09-20T07:29:45Z</time>
      </trkpt>
      <trkpt lat="43.61052" lon="6.33981">
        <ele>684.3</ele>
        <time>2023-09-20T07:30:10Z</time>
      </trkpt>
      <trkpt lat="43.61059" lon="6.33988">
        <ele>684</ele>
        <time>2023-09-20T07:30:45Z</time>
      </trkpt>
      <trkpt lat="43.61063" lon="6.33998">
        <ele>684</ele>
        <time>2023-09-20T07:30:55Z</time>
      </trkpt>
      <trkpt lat="43.61067" lon="6.34002">
        <ele>684.1</ele>
      </trkpt>
      <trkpt lat="43.61071" lon="6.34005">
        <ele>684.2</ele>
        <time>2023-09-20T07:31:03Z</time>
      </trkpt>
      <trkpt lat="43.61076" lon="6.34007">
        <ele>684.1</ele>
      </trkpt>
      <trkpt lat="43.61081" lon="6.34008">
        <ele>684</ele>
        <time>2023-09-20T07:31:11Z</time>
      </trkpt>
      <trkpt lat="43.61089" lon="6.34007">
        <ele>684.3</ele>
        <time>2023-09-20T07:31:20Z</time>
      </trkpt>
      <trkpt lat="43.61096" lon="6.34002">
        <ele>684.5</ele>
        <time>2023-09-20T07:31:29Z</time>
      </trkpt>
      <trkpt lat="43.611" lon="6.33998">
        <ele>684.5</ele>
      </trkpt>
      <trkpt lat="43.61103" lon="6.33993">
        <ele>684.5</ele>
        <time>2023-09-20T07:31:38Z</time>
      </trkpt>
      <trkpt lat="43.61106" lon="6.33988">
        <ele>684.5</ele>
      </trkpt>
      <trkpt lat="43.61109" lon="6.33983">
        <ele>684.4</ele>
        <time>2023-09-20T07:31:47Z</time>
      </trkpt>
      <trkpt lat="43.61114" lon="6.33979">
        <ele>684.3</ele>
      </trkpt>
      <trkpt lat="43.61118" lon="6.33975">
        <ele>684.1</ele>
        <time>2023-09-20T07:31:56Z</time>
      </trkpt>
      <trkpt lat="43.61123" lon="6.33974">
        <ele>684.1</ele>
      </trkpt>
      <trkpt lat="43.61127" lon="6.33972">
        <ele>684</ele>
        <time>2023-09-20T07:32:05Z</time>
      </trkpt>
      <trkpt lat="43.61133" lon="6.33972">
        <ele>684</ele>
      </trkpt>
      <trkpt lat="43.61138" lon="6.33971">
        <ele>684</ele>
        <time>2023-09-20T07:32:16Z</time>
      </trkpt>
      <trkpt lat="43.61143" lon="6.33972">
        <ele>684</ele>
      </trkpt>
      <trkpt lat="43.61148" lon="6.33972">
        <ele>684</ele>
        <time>2023-09-20T07:32:27Z</time>
      </trkpt>
      <trkpt lat="43.61153" lon="6.33971">
        <ele>684</ele>
      </trkpt>
      <trkpt lat="43.61157" lon="6.33969">
        <ele>684.1</ele>
        <time>2023-09-20T07:32:37Z</time>
      </trkpt>
      <trkpt lat="43.61162" lon="6.33973">
        <ele>684</ele>
      </trkpt>
      <trkpt lat="43.61167" lon="6.33976">
        <ele>684.3</ele>
        <time>2023-09-20T07:32:47Z</time>
      </trkpt>
      <trkpt lat="43.61176" lon="6.33977">
        <ele>684.3</ele>
      </trkpt>
      <trkpt lat="43.61184" lon="6.33978">
        <ele>684.3</ele>
        <time>2023-09-20T07:33:05Z</time>
      </trkpt>
      <trkpt lat="43.61189" lon="6.33978">
        <ele>684.2</ele>
      </trkpt>
      <trkpt lat="43.61194" lon="6.33977">
        <ele>684.2</ele>
        <time>2023-09-20T07:33:26Z</time>
      </trkpt>
      <trkpt lat="43.61199" lon="6.33979">
        <ele>684.4</ele>
      </trkpt>
      <trkpt lat="43.61204" lon="6.3398">
        <ele>684.5</ele>
        <time>2023-09-20T07:33:37Z</time>
      </trkpt>
      <trkpt lat="43.61212" lon="6.33982">
        <ele>684.8</ele>
        <time>2023-09-20T07:33:47Z</time>
      </trkpt>
      <trkpt lat="43.61218" lon="6.33987">
        <ele>684.9</ele>
      </trkpt>
      <trkpt lat="43.61224" lon="6.33992">
        <ele>685.1</ele>
        <time>2023-09-20T07:33:58Z</time>
      </trkpt>
      <trkpt lat="43.61228" lon="6.33997">
        <ele>685.1</ele>
        <time>2023-09-20T07:34:33Z</time>
      </trkpt>
      <trkpt lat="43.61229" lon="6.33994">
        <ele>685.2</ele>
        <time>2023-09-20T07:34:51Z</time>
      </trkpt>
      <trkpt lat="43.61236" lon="6.3399">
        <ele>685.5</ele>
        <time>2023-09-20T07:35:12Z</time>
      </trkpt>
      <trkpt lat="43.61241" lon="6.33988">
        <ele>685.9</ele>
        <time>2023-09-20T07:35:47Z</time>
      </trkpt>
      <trkpt lat="43.61247" lon="6.33993">
        <ele>685.7</ele>
      </trkpt>
      <trkpt lat="43.61253" lon="6.33998">
        <ele>685</ele>
        <time>2023-09-20T07:35:57Z</time>
      </trkpt>
      <trkpt lat="43.61258" lon="6.33999">
        <ele>684.6</ele>
      </trkpt>
      <trkpt lat="43.61262" lon="6.34">
        <ele>684.1</ele>
        <time>2023-09-20T07:36:16Z</time>
      </trkpt>
      <trkpt lat="43.61267" lon="6.34003">
        <ele>683.6</ele>
      </trkpt>
      <trkpt lat="43.61271" lon="6.34006">
        <ele>683</ele>
        <time>2023-09-20T07:36:25Z</time>
      </trkpt>
      <trkpt lat="43.61274" lon="6.34012">
        <ele>682.4</ele>
      </trkpt>
      <trkpt lat="43.61277" lon="6.34017">
        <ele>681.8</ele>
        <time>2023-09-20T07:36:40Z</time>
      </trkpt>
      <trkpt lat="43.61281" lon="6.34022">
        <ele>681.4</ele>
      </trkpt>
      <trkpt lat="43.61284" lon="6.34026">
        <ele>681.1</ele>
        <time>2023-09-20T07:36:50Z</time>
      </trkpt>
      <trkpt lat="43.61292" lon="6.34029">
        <ele>681</ele>
      </trkpt>
      <trkpt lat="43.613" lon="6.34032">
        <ele>681</ele>
        <time>2023-09-20T07:37:00Z</time>
      </trkpt>
      <trkpt lat="43.61304" lon="6.34036">
        <ele>681</ele>
      </trkpt>
      <trkpt lat="43.61308" lon="6.34039">
        <ele>680.9</ele>
        <time>2023-09-20T07:37:10Z</time>
      </trkpt>
      <trkpt lat="43.61313" lon="6.34045">
        <ele>680.6</ele>
      </trkpt>
      <trkpt lat="43.61317" lon="6.3405">
        <ele>680.3</ele>
        <time>2023-09-20T07:37:21Z</time>
      </trkpt>
      <trkpt lat="43.61322" lon="6.34054">
        <ele>679.9</ele>
      </trkpt>
      <trkpt lat="43.61326" lon="6.34058">
        <ele>679.7</ele>
        <time>2023-09-20T07:37:30Z</time>
      </trkpt>
      <trkpt lat="43.61332" lon="6.34061">
        <ele>679.5</ele>
      </trkpt>
      <trkpt lat="43.61337" lon="6.34063">
        <ele>679.4</ele>
        <time>2023-09-20T07:37:40Z</time>
      </trkpt>
      <trkpt lat="43.6134" lon="6.34063">
        <ele>679.3</ele>
        <time>2023-09-20T07:38:10Z</time>
      </trkpt>
      <trkpt lat="43.61343" lon="6.34062">
        <ele>679.2</ele>
        <time>2023-09-20T07:38:33Z</time>
      </trkpt>
      <trkpt lat="43.61349" lon="6.34059">
        <ele>679</ele>
      </trkpt>
      <trkpt lat="43.61355" lon="6.34056">
        <ele>679</ele>
        <time>2023-09-20T07:38:42Z</time>
      </trkpt>
      <trkpt lat="43.61361" lon="6.34055">
        <ele>679</ele>
      </trkpt>
      <trkpt lat="43.61367" lon="6.34053">
        <ele>678.7</ele>
        <time>2023-09-20T07:38:50Z</time>
      </trkpt>
      <trkpt lat="43.61373" lon="6.34053">
        <ele>678.3</ele>
      </trkpt>
      <trkpt lat="43.61378" lon="6.34052">
        <ele>678</ele>
        <time>2023-09-20T07:38:58Z</time>
      </trkpt>
      <trkpt lat="43.61385" lon="6.34049">
        <ele>677.8</ele>
      </trkpt>
      <trkpt lat="43.61391" lon="6.34046">
        <ele>677.8</ele>
        <time>2023-09-20T07:39:10Z</time>
      </trkpt>
      <trkpt lat="43.61396" lon="6.34044">
        <ele>678.1</ele>
      </trkpt>
      <trkpt lat="43.61401" lon="6.34042">
        <ele>678.4</ele>
        <time>2023-09-20T07:39:17Z</time>
      </trkpt>
      <trkpt lat="43.61406" lon="6.34041">
        <ele>678.6</ele>
      </trkpt>
      <trkpt lat="43.61411" lon="6.3404">
        <ele>678.8</ele>
        <time>2023-09-20T07:39:24Z</time>
      </trkpt>
      <trkpt lat="43.61418" lon="6.34039">
        <ele>679.1</ele>
      </trkpt>
      <trkpt lat="43.61425" lon="6.34038">
        <ele>679.5</ele>
        <time>2023-09-20T07:39:36Z</time>
      </trkpt>
      <trkpt lat="43.6143" lon="6.34043">
        <ele>679.7</ele>
      </trkpt>
      <trkpt lat="43.61435" lon="6.34048">
        <ele>679.8</ele>
        <time>2023-09-20T07:39:47Z</time>
      </trkpt>
      <trkpt lat="43.6144" lon="6.34052">
        <ele>680</ele>
      </trkpt>
      <trkpt lat="43.61445" lon="6.34055">
        <ele>680</ele>
        <time>2023-09-20T07:39:58Z</time>
      </trkpt>
      <trkpt lat="43.6145" lon="6.34061">
        <ele>680.2</ele>
      </trkpt>
      <trkpt lat="43.61454" lon="6.34066">
        <ele>680.3</ele>
      </trkpt>
      <trkpt lat="43.61459" lon="6.34072">
        <ele>680.5</ele>
      </trkpt>
      <trkpt lat="43.61463" lon="6.34077">
        <ele>680.7</ele>
        <time>2023-09-20T07:40:16Z</time>
      </trkpt>
      <trkpt lat="43.6147" lon="6.34084">
        <ele>680.9</ele>
      </trkpt>
      <trkpt lat="43.61477" lon="6.3409">
        <ele>680.8</ele>
        <time>2023-09-20T07:40:27Z</time>
      </trkpt>
      <trkpt lat="43.6148" lon="6.34097">
        <ele>680.8</ele>
      </trkpt>
      <trkpt lat="43.61482" lon="6.34103">
        <ele>680.8</ele>
        <time>2023-09-20T07:40:36Z</time>
      </trkpt>
      <trkpt lat="43.61486" lon="6.34109">
        <ele>681</ele>
      </trkpt>
      <trkpt lat="43.6149" lon="6.34115">
        <ele>681.3</ele>
        <time>2023-09-20T07:40:44Z</time>
      </trkpt>
      <trkpt lat="43.61495" lon="6.34118">
        <ele>681.7</ele>
      </trkpt>
      <trkpt lat="43.61499" lon="6.34121">
        <ele>681.9</ele>
        <time>2023-09-20T07:40:53Z</time>
      </trkpt>
      <trkpt lat="43.61504" lon="6.34121">
        <ele>682</ele>
      </trkpt>
      <trkpt lat="43.61509" lon="6.3412">
        <ele>681.9</ele>
        <time>2023-09-20T07:41:02Z</time>
      </trkpt>
      <trkpt lat="43.61514" lon="6.34124">
        <ele>681.8</ele>
      </trkpt>
      <trkpt lat="43.61519" lon="6.34128">
        <ele>681.6</ele>
        <time>2023-09-20T07:41:12Z</time>
      </trkpt>
      <trkpt lat="43.61524" lon="6.34134">
        <ele>681.3</ele>
      </trkpt>
      <trkpt lat="43.61529" lon="6.3414">
        <ele>680.9</ele>
        <time>2023-09-20T07:41:22Z</time>
      </trkpt>
      <trkpt lat="43.61534" lon="6.34139">
        <ele>680.8</ele>
      </trkpt>
      <trkpt lat="43.61539" lon="6.34138">
        <ele>680.6</ele>
        <time>2023-09-20T07:41:30Z</time>
      </trkpt>
      <trkpt lat="43.61545" lon="6.34137">
        <ele>680.5</ele>
      </trkpt>
      <trkpt lat="43.6155" lon="6.34135">
        <ele>680.3</ele>
        <time>2023-09-20T07:41:39Z</time>
      </trkpt>
      <trkpt lat="43.61556" lon="6.34132">
        <ele>680.2</ele>
      </trkpt>
      <trkpt lat="43.61562" lon="6.34129">
        <ele>680</ele>
        <time>2023-09-20T07:41:48Z</time>
      </trkpt>
      <trkpt lat="43.61567" lon="6.34129">
        <ele>679.8</ele>
      </trkpt>
      <trkpt lat="43.61572" lon="6.34128">
        <ele>679.6</ele>
        <time>2023-09-20T07:41:59Z</time>
      </trkpt>
      <trkpt lat="43.61578" lon="6.34125">
        <ele>679.3</ele>
      </trkpt>
      <trkpt lat="43.61583" lon="6.34121">
        <ele>679</ele>
        <time>2023-09-20T07:42:09Z</time>
      </trkpt>
      <trkpt lat="43.61591" lon="6.34116">
        <ele>678.7</ele>
      </trkpt>
      <trkpt lat="43.61598" lon="6.3411">
        <ele>678.5</ele>
        <time>2023-09-20T07:42:19Z</time>
      </trkpt>
      <trkpt lat="43.61604" lon="6.3411">
        <ele>678.3</ele>
      </trkpt>
      <trkpt lat="43.61609" lon="6.3411">
        <ele>678.1</ele>
        <time>2023-09-20T07:42:27Z</time>
      </trkpt>
      <trkpt lat="43.61614" lon="6.34108">
        <ele>677.8</ele>
      </trkpt>
      <trkpt lat="43.61619" lon="6.34105">
        <ele>677.5</ele>
        <time>2023-09-20T07:42:35Z</time>
      </trkpt>
      <trkpt lat="43.61623" lon="6.34101">
        <ele>677.3</ele>
      </trkpt>
      <trkpt lat="43.61627" lon="6.34096">
        <ele>677.2</ele>
        <time>2023-09-20T07:42:43Z</time>
      </trkpt>
      <trkpt lat="43.61632" lon="6.34093">
        <ele>677</ele>
      </trkpt>
      <trkpt lat="43.61637" lon="6.3409">
        <ele>676.8</ele>
        <time>2023-09-20T07:42:52Z</time>
      </trkpt>
      <trkpt lat="43.61643" lon="6.34089">
        <ele>676.6</ele>
      </trkpt>
      <trkpt lat="43.61648" lon="6.34088">
        <ele>676.2</ele>
        <time>2023-09-20T07:43:01Z</time>
      </trkpt>
      <trkpt lat="43.61653" lon="6.34086">
        <ele>676</ele>
      </trkpt>
      <trkpt lat="43.61657" lon="6.34083">
        <ele>675.7</ele>
        <time>2023-09-20T07:43:10Z</time>
      </trkpt>
      <trkpt lat="43.61663" lon="6.34082">
        <ele>675.3</ele>
      </trkpt>
      <trkpt lat="43.61669" lon="6.3408">
        <ele>675</ele>
        <time>2023-09-20T07:43:20Z</time>
      </trkpt>
      <trkpt lat="43.61674" lon="6.3408">
        <ele>674.9</ele>
      </trkpt>
      <trkpt lat="43.61679" lon="6.34079">
        <ele>674.7</ele>
        <time>2023-09-20T07:43:28Z</time>
      </trkpt>
      <trkpt lat="43.61684" lon="6.34078">
        <ele>674.6</ele>
      </trkpt>
      <trkpt lat="43.61688" lon="6.34076">
        <ele>674.5</ele>
        <time>2023-09-20T07:43:36Z</time>
      </trkpt>
      <trkpt lat="43.61693" lon="6.34074">
        <ele>674.4</ele>
      </trkpt>
      <trkpt lat="43.61698" lon="6.34071">
        <ele>674.2</ele>
        <time>2023-09-20T07:43:45Z</time>
      </trkpt>
      <trkpt lat="43.61705" lon="6.34066">
        <ele>674.1</ele>
      </trkpt>
      <trkpt lat="43.61711" lon="6.34061">
        <ele>674.1</ele>
        <time>2023-09-20T07:43:56Z</time>
      </trkpt>
      <trkpt lat="43.61716" lon="6.34058">
        <ele>674.1</ele>
      </trkpt>
      <trkpt lat="43.6172" lon="6.34054">
        <ele>674.1</ele>
        <time>2023-09-20T07:44:06Z</time>
      </trkpt>
      <trkpt lat="43.61724" lon="6.34049">
        <ele>674.2</ele>
      </trkpt>
      <trkpt lat="43.61727" lon="6.34044">
        <ele>674.2</ele>
        <time>2023-09-20T07:44:16Z</time>
      </trkpt>
      <trkpt lat="43.61732" lon="6.34039">
        <ele>674.3</ele>
      </trkpt>
      <trkpt lat="43.61737" lon="6.34033">
        <ele>674.3</ele>
        <time>2023-09-20T07:44:26Z</time>
      </trkpt>
      <trkpt lat="43.61741" lon="6.34028">
        <ele>674.3</ele>
      </trkpt>
      <trkpt lat="43.61744" lon="6.34023">
        <ele>674.5</ele>
        <time>2023-09-20T07:44:35Z</time>
      </trkpt>
      <trkpt lat="43.61747" lon="6.34018">
        <ele>674.8</ele>
      </trkpt>
      <trkpt lat="43.6175" lon="6.34013">
        <ele>675.1</ele>
        <time>2023-09-20T07:44:44Z</time>
      </trkpt>
      <trkpt lat="43.61754" lon="6.34008">
        <ele>675.2</ele>
      </trkpt>
      <trkpt lat="43.61757" lon="6.34002">
        <ele>675.4</ele>
        <time>2023-09-20T07:44:58Z</time>
      </trkpt>
      <trkpt lat="43.61761" lon="6.33997">
        <ele>675.4</ele>
      </trkpt>
      <trkpt lat="43.61765" lon="6.33992">
        <ele>675.4</ele>
        <time>2023-09-20T07:45:08Z</time>
      </trkpt>
      <trkpt lat="43.61768" lon="6.33987">
        <ele>675.5</ele>
      </trkpt>
      <trkpt lat="43.61771" lon="6.33981">
        <ele>675.7</ele>
        <time>2023-09-20T07:45:17Z</time>
      </trkpt>
      <trkpt lat="43.61775" lon="6.33975">
        <ele>675.9</ele>
      </trkpt>
      <trkpt lat="43.61779" lon="6.33969">
        <ele>676</ele>
        <time>2023-09-20T07:45:26Z</time>
      </trkpt>
      <trkpt lat="43.61782" lon="6.33963">
        <ele>676.1</ele>
      </trkpt>
      <trkpt lat="43.61784" lon="6.33957">
        <ele>676.1</ele>
        <time>2023-09-20T07:45:35Z</time>
      </trkpt>
      <trkpt lat="43.61787" lon="6.33952">
        <ele>676.1</ele>
      </trkpt>
      <trkpt lat="43.6179" lon="6.33947">
        <ele>676</ele>
        <time>2023-09-20T07:45:43Z</time>
      </trkpt>
      <trkpt lat="43.61794" lon="6.33942">
        <ele>676</ele>
      </trkpt>
      <trkpt lat="43.61797" lon="6.33937">
        <ele>676.1</ele>
        <time>2023-09-20T07:45:52Z</time>
      </trkpt>
      <trkpt lat="43.61801" lon="6.33931">
        <ele>676.2</ele>
      </trkpt>
      <trkpt lat="43.61805" lon="6.33925">
        <ele>676.4</ele>
        <time>2023-09-20T07:46:01Z</time>
      </trkpt>
      <trkpt lat="43.6181" lon="6.33915">
        <ele>676.7</ele>
        <time>2023-09-20T07:46:09Z</time>
      </trkpt>
      <trkpt lat="43.61814" lon="6.3391">
        <ele>676.7</ele>
      </trkpt>
      <trkpt lat="43.61817" lon="6.33904">
        <ele>676.6</ele>
        <time>2023-09-20T07:46:17Z</time>
      </trkpt>
      <trkpt lat="43.6182" lon="6.33898">
        <ele>676.6</ele>
      </trkpt>
      <trkpt lat="43.61823" lon="6.33892">
        <ele>676.6</ele>
        <time>2023-09-20T07:46:25Z</time>
      </trkpt>
      <trkpt lat="43.61826" lon="6.33887">
        <ele>676.7</ele>
      </trkpt>
      <trkpt lat="43.61828" lon="6.33881">
        <ele>676.9</ele>
        <time>2023-09-20T07:46:34Z</time>
      </trkpt>
      <trkpt lat="43.61831" lon="6.33876">
        <ele>677.1</ele>
        <time>2023-09-20T07:46:54Z</time>
      </trkpt>
      <trkpt lat="43.61828" lon="6.33881">
        <ele>676.9</ele>
        <time>2023-09-20T07:47:25Z</time>
      </trkpt>
      <trkpt lat="43.6183" lon="6.33878">
        <ele>677</ele>
        <time>2023-09-20T07:48:02Z</time>
      </trkpt>
      <trkpt lat="43.61824" lon="6.33873">
        <ele>677.7</ele>
      </trkpt>
      <trkpt lat="43.61818" lon="6.33867">
        <ele>678.2</ele>
        <time>2023-09-20T07:48:14Z</time>
      </trkpt>
      <trkpt lat="43.61816" lon="6.33858">
        <ele>678.7</ele>
        <time>2023-09-20T07:48:42Z</time>
      </trkpt>
      <trkpt lat="43.61814" lon="6.33849">
        <ele>679</ele>
        <time>2023-09-20T07:49:04Z</time>
      </trkpt>
      <trkpt lat="43.6181" lon="6.33847">
        <ele>679.3</ele>
      </trkpt>
      <trkpt lat="43.61805" lon="6.33845">
        <ele>679.6</ele>
        <time>2023-09-20T07:49:20Z</time>
      </trkpt>
      <trkpt lat="43.61801" lon="6.33842">
        <ele>680.1</ele>
      </trkpt>
      <trkpt lat="43.61796" lon="6.33838">
        <ele>680.5</ele>
        <time>2023-09-20T07:49:32Z</time>
      </trkpt>
      <trkpt lat="43.61792" lon="6.33834">
        <ele>681</ele>
      </trkpt>
      <trkpt lat="43.61787" lon="6.3383">
        <ele>681.5</ele>
        <time>2023-09-20T07:49:46Z</time>
      </trkpt>
      <trkpt lat="43.61784" lon="6.33824">
        <ele>681.9</ele>
      </trkpt>
      <trkpt lat="43.61781" lon="6.33818">
        <ele>682.3</ele>
        <time>2023-09-20T07:49:57Z</time>
      </trkpt>
      <trkpt lat="43.61777" lon="6.33813">
        <ele>682.8</ele>
      </trkpt>
      <trkpt lat="43.61773" lon="6.33807">
        <ele>683.5</ele>
        <time>2023-09-20T07:50:10Z</time>
      </trkpt>
      <trkpt lat="43.61769" lon="6.33803">
        <ele>684.1</ele>
      </trkpt>
      <trkpt lat="43.61765" lon="6.33799">
        <ele>684.7</ele>
        <time>2023-09-20T07:50:20Z</time>
      </trkpt>
      <trkpt lat="43.61761" lon="6.33794">
        <ele>685.4</ele>
      </trkpt>
      <trkpt lat="43.61756" lon="6.33789">
        <ele>686.1</ele>
        <time>2023-09-20T07:50:30Z</time>
      </trkpt>
      <trkpt lat="43.61749" lon="6.33783">
        <ele>686.9</ele>
        <time>2023-09-20T07:50:42Z</time>
      </trkpt>
      <trkpt lat="43.61747" lon="6.33777">
        <ele>687.3</ele>
      </trkpt>
      <trkpt lat="43.61744" lon="6.3377">
        <ele>687.7</ele>
        <time>2023-09-20T07:50:55Z</time>
      </trkpt>
      <trkpt lat="43.61741" lon="6.33764">
        <ele>688.1</ele>
      </trkpt>
      <trkpt lat="43.61738" lon="6.33758">
        <ele>688.6</ele>
        <time>2023-09-20T07:51:08Z</time>
      </trkpt>
      <trkpt lat="43.61732" lon="6.33753">
        <ele>689.2</ele>
      </trkpt>
      <trkpt lat="43.61726" lon="6.33747">
        <ele>689.9</ele>
        <time>2023-09-20T07:51:19Z</time>
      </trkpt>
      <trkpt lat="43.61719" lon="6.33741">
        <ele>690.9</ele>
        <time>2023-09-20T07:51:29Z</time>
      </trkpt>
      <trkpt lat="43.61712" lon="6.33736">
        <ele>691.7</ele>
        <time>2023-09-20T07:51:39Z</time>
      </trkpt>
      <trkpt lat="43.61709" lon="6.33732">
        <ele>692.3</ele>
      </trkpt>
      <trkpt lat="43.61705" lon="6.33728">
        <ele>692.8</ele>
        <time>2023-09-20T07:51:52Z</time>
      </trkpt>
      <trkpt lat="43.61701" lon="6.33724">
        <ele>693.4</ele>
      </trkpt>
      <trkpt lat="43.61697" lon="6.33719">
        <ele>693.9</ele>
        <time>2023-09-20T07:52:05Z</time>
      </trkpt>
      <trkpt lat="43.61692" lon="6.33719">
        <ele>694.1</ele>
      </trkpt>
      <trkpt lat="43.61687" lon="6.33719">
        <ele>694.1</ele>
        <time>2023-09-20T07:52:19Z</time>
      </trkpt>
      <trkpt lat="43.61682" lon="6.33717">
        <ele>694.2</ele>
      </trkpt>
      <trkpt lat="43.61676" lon="6.33714">
        <ele>694.3</ele>
        <time>2023-09-20T07:52:32Z</time>
      </trkpt>
      <trkpt lat="43.6167" lon="6.33709">
        <ele>694.5</ele>
      </trkpt>
      <trkpt lat="43.61664" lon="6.33704">
        <ele>694.7</ele>
        <time>2023-09-20T07:52:45Z</time>
      </trkpt>
      <trkpt lat="43.61658" lon="6.33701">
        <ele>694.8</ele>
      </trkpt>
      <trkpt lat="43.61651" lon="6.33698">
        <ele>694.9</ele>
        <time>2023-09-20T07:52:56Z</time>
      </trkpt>
      <trkpt lat="43.61648" lon="6.33694">
        <ele>695</ele>
      </trkpt>
      <trkpt lat="43.61644" lon="6.3369">
        <ele>695.2</ele>
        <time>2023-09-20T07:53:06Z</time>
      </trkpt>
      <trkpt lat="43.61642" lon="6.33683">
        <ele>695.4</ele>
      </trkpt>
      <trkpt lat="43.6164" lon="6.33676">
        <ele>695.7</ele>
        <time>2023-09-20T07:53:17Z</time>
      </trkpt>
      <trkpt lat="43.6164" lon="6.3367">
        <ele>695.9</ele>
      </trkpt>
      <trkpt lat="43.6164" lon="6.33663">
        <ele>696.1</ele>
        <time>2023-09-20T07:53:27Z</time>
      </trkpt>
      <trkpt lat="43.61642" lon="6.33656">
        <ele>696.3</ele>
      </trkpt>
      <trkpt lat="43.61644" lon="6.33649">
        <ele>696.5</ele>
        <time>2023-09-20T07:53:37Z</time>
      </trkpt>
      <trkpt lat="43.61647" lon="6.33644">
        <ele>696.6</ele>
      </trkpt>
      <trkpt lat="43.61649" lon="6.33638">
        <ele>696.7</ele>
        <time>2023-09-20T07:53:47Z</time>
      </trkpt>
      <trkpt lat="43.61649" lon="6.33632">
        <ele>696.9</ele>
      </trkpt>
      <trkpt lat="43.61649" lon="6.33625">
        <ele>697.1</ele>
        <time>2023-09-20T07:53:57Z</time>
      </trkpt>
      <trkpt lat="43.61653" lon="6.3362">
        <ele>697.2</ele>
      </trkpt>
      <trkpt lat="43.61656" lon="6.33615">
        <ele>697.2</ele>
        <time>2023-09-20T07:54:07Z</time>
      </trkpt>
      <trkpt lat="43.61659" lon="6.3361">
        <ele>697.3</ele>
      </trkpt>
      <trkpt lat="43.61662" lon="6.33604">
        <ele>697.2</ele>
        <time>2023-09-20T07:54:16Z</time>
      </trkpt>
      <trkpt lat="43.61666" lon="6.33599">
        <ele>697</ele>
      </trkpt>
      <trkpt lat="43.6167" lon="6.33593">
        <ele>696.8</ele>
        <time>2023-09-20T07:54:25Z</time>
      </trkpt>
      <trkpt lat="43.61676" lon="6.33585">
        <ele>696.3</ele>
        <time>2023-09-20T07:54:34Z</time>
      </trkpt>
      <trkpt lat="43.61679" lon="6.3358">
        <ele>696.2</ele>
      </trkpt>
      <trkpt lat="43.61682" lon="6.33575">
        <ele>696.2</ele>
        <time>2023-09-20T07:54:43Z</time>
      </trkpt>
      <trkpt lat="43.61685" lon="6.3357">
        <ele>696.2</ele>
      </trkpt>
      <trkpt lat="43.61688" lon="6.33565">
        <ele>696.1</ele>
        <time>2023-09-20T07:54:52Z</time>
      </trkpt>
      <trkpt lat="43.6169" lon="6.33559">
        <ele>696.2</ele>
      </trkpt>
      <trkpt lat="43.61691" lon="6.33553">
        <ele>696.2</ele>
        <time>2023-09-20T07:55:02Z</time>
      </trkpt>
      <trkpt lat="43.61697" lon="6.33544">
        <ele>695.8</ele>
        <time>2023-09-20T07:55:12Z</time>
      </trkpt>
      <trkpt lat="43.61701" lon="6.33539">
        <ele>695.4</ele>
      </trkpt>
      <trkpt lat="43.61704" lon="6.33534">
        <ele>695</ele>
        <time>2023-09-20T07:55:22Z</time>
      </trkpt>
      <trkpt lat="43.61707" lon="6.33529">
        <ele>694.7</ele>
      </trkpt>
      <trkpt lat="43.6171" lon="6.33523">
        <ele>694.3</ele>
        <time>2023-09-20T07:55:32Z</time>
      </trkpt>
      <trkpt lat="43.61712" lon="6.33518">
        <ele>694.1</ele>
        <time>2023-09-20T07:56:28Z</time>
      </trkpt>
      <trkpt lat="43.61709" lon="6.33522">
        <ele>694.4</ele>
        <time>2023-09-20T07:57:04Z</time>
      </trkpt>
      <trkpt lat="43.61702" lon="6.33518">
        <ele>695.2</ele>
        <time>2023-09-20T07:57:36Z</time>
      </trkpt>
      <trkpt lat="43.61698" lon="6.33515">
        <ele>695.6</ele>
      </trkpt>
      <trkpt lat="43.61694" lon="6.33511">
        <ele>696</ele>
        <time>2023-09-20T07:57:45Z</time>
      </trkpt>
      <trkpt lat="43.61689" lon="6.33511">
        <ele>696.4</ele>
      </trkpt>
      <trkpt lat="43.61683" lon="6.3351">
        <ele>696.8</ele>
        <time>2023-09-20T07:57:55Z</time>
      </trkpt>
      <trkpt lat="43.61678" lon="6.3351">
        <ele>697.2</ele>
      </trkpt>
      <trkpt lat="43.61673" lon="6.3351">
        <ele>697.5</ele>
        <time>2023-09-20T07:58:04Z</time>
      </trkpt>
      <trkpt lat="43.61668" lon="6.33511">
        <ele>697.9</ele>
      </trkpt>
      <trkpt lat="43.61663" lon="6.33512">
        <ele>698.3</ele>
        <time>2023-09-20T07:58:13Z</time>
      </trkpt>
      <trkpt lat="43.61657" lon="6.33513">
        <ele>698.9</ele>
      </trkpt>
      <trkpt lat="43.61651" lon="6.33514">
        <ele>699.4</ele>
        <time>2023-09-20T07:58:23Z</time>
      </trkpt>
      <trkpt lat="43.61646" lon="6.33515">
        <ele>699.8</ele>
      </trkpt>
      <trkpt lat="43.61641" lon="6.33516">
        <ele>700.2</ele>
        <time>2023-09-20T07:58:33Z</time>
      </trkpt>
      <trkpt lat="43.61636" lon="6.33514">
        <ele>700.8</ele>
      </trkpt>
      <trkpt lat="43.61631" lon="6.33511">
        <ele>701.3</ele>
        <time>2023-09-20T07:58:43Z</time>
      </trkpt>
      <trkpt lat="43.61626" lon="6.33512">
        <ele>701.7</ele>
      </trkpt>
      <trkpt lat="43.6162" lon="6.33512">
        <ele>702.2</ele>
        <time>2023-09-20T07:58:52Z</time>
      </trkpt>
      <trkpt lat="43.61615" lon="6.3351">
        <ele>702.7</ele>
      </trkpt>
      <trkpt lat="43.61609" lon="6.33508">
        <ele>703.1</ele>
        <time>2023-09-20T07:59:02Z</time>
      </trkpt>
      <trkpt lat="43.61605" lon="6.33504">
        <ele>703.4</ele>
      </trkpt>
      <trkpt lat="43.61601" lon="6.335">
        <ele>703.7</ele>
        <time>2023-09-20T07:59:11Z</time>
      </trkpt>
      <trkpt lat="43.61598" lon="6.33496">
        <ele>704.1</ele>
      </trkpt>
      <trkpt lat="43.61594" lon="6.33492">
        <ele>704.5</ele>
        <time>2023-09-20T07:59:20Z</time>
      </trkpt>
      <trkpt lat="43.6159" lon="6.33488">
        <ele>705</ele>
      </trkpt>
      <trkpt lat="43.61585" lon="6.33484">
        <ele>705.5</ele>
        <time>2023-09-20T07:59:29Z</time>
      </trkpt>
      <trkpt lat="43.61581" lon="6.3348">
        <ele>705.7</ele>
      </trkpt>
      <trkpt lat="43.61577" lon="6.33475">
        <ele>705.9</ele>
        <time>2023-09-20T07:59:38Z</time>
      </trkpt>
      <trkpt lat="43.61574" lon="6.33471">
        <ele>706.1</ele>
      </trkpt>
      <trkpt lat="43.6157" lon="6.33466">
        <ele>706.3</ele>
        <time>2023-09-20T07:59:47Z</time>
      </trkpt>
      <trkpt lat="43.61567" lon="6.33461">
        <ele>706.6</ele>
      </trkpt>
      <trkpt lat="43.61563" lon="6.33456">
        <ele>707</ele>
        <time>2023-09-20T07:59:56Z</time>
      </trkpt>
      <trkpt lat="43.61559" lon="6.33452">
        <ele>707.4</ele>
      </trkpt>
      <trkpt lat="43.61555" lon="6.33447">
        <ele>707.8</ele>
        <time>2023-09-20T08:00:05Z</time>
      </trkpt>
      <trkpt lat="43.61552" lon="6.33442">
        <ele>708.2</ele>
      </trkpt>
      <trkpt lat="43.61548" lon="6.33437">
        <ele>708.3</ele>
        <time>2023-09-20T08:00:14Z</time>
      </trkpt>
      <trkpt lat="43.61545" lon="6.33433">
        <ele>708.6</ele>
      </trkpt>
      <trkpt lat="43.61541" lon="6.33428">
        <ele>708.8</ele>
        <time>2023-09-20T08:00:23Z</time>
      </trkpt>
      <trkpt lat="43.61538" lon="6.33423">
        <ele>709.2</ele>
      </trkpt>
      <trkpt lat="43.61534" lon="6.33417">
        <ele>709.5</ele>
        <time>2023-09-20T08:00:33Z</time>
      </trkpt>
      <trkpt lat="43.61531" lon="6.33411">
        <ele>710.2</ele>
      </trkpt>
      <trkpt lat="43.61528" lon="6.33405">
        <ele>710.8</ele>
        <time>2023-09-20T08:00:42Z</time>
      </trkpt>
      <trkpt lat="43.61525" lon="6.334">
        <ele>711.3</ele>
      </trkpt>
      <trkpt lat="43.61522" lon="6.33394">
        <ele>711.8</ele>
        <time>2023-09-20T08:00:51Z</time>
      </trkpt>
      <trkpt lat="43.6152" lon="6.33389">
        <ele>712.3</ele>
      </trkpt>
      <trkpt lat="43.61517" lon="6.33383">
        <ele>712.6</ele>
        <time>2023-09-20T08:01:00Z</time>
      </trkpt>
      <trkpt lat="43.61515" lon="6.33377">
        <ele>712.9</ele>
      </trkpt>
      <trkpt lat="43.61513" lon="6.3337">
        <ele>713.2</ele>
        <time>2023-09-20T08:01:08Z</time>
      </trkpt>
      <trkpt lat="43.61511" lon="6.33358">
        <ele>713.8</ele>
        <time>2023-09-20T08:01:17Z</time>
      </trkpt>
      <trkpt lat="43.61512" lon="6.33352">
        <ele>714.1</ele>
      </trkpt>
      <trkpt lat="43.61512" lon="6.33345">
        <ele>714.5</ele>
        <time>2023-09-20T08:01:26Z</time>
      </trkpt>
      <trkpt lat="43.61513" lon="6.33339">
        <ele>714.8</ele>
      </trkpt>
      <trkpt lat="43.61514" lon="6.33332">
        <ele>715.1</ele>
        <time>2023-09-20T08:01:35Z</time>
      </trkpt>
      <trkpt lat="43.61516" lon="6.33326">
        <ele>715.6</ele>
      </trkpt>
      <trkpt lat="43.61517" lon="6.3332">
        <ele>716</ele>
        <time>2023-09-20T08:01:44Z</time>
      </trkpt>
      <trkpt lat="43.61519" lon="6.33313">
        <ele>716.7</ele>
      </trkpt>
      <trkpt lat="43.6152" lon="6.33305">
        <ele>717.3</ele>
        <time>2023-09-20T08:01:54Z</time>
      </trkpt>
      <trkpt lat="43.6152" lon="6.33298">
        <ele>718</ele>
      </trkpt>
      <trkpt lat="43.61519" lon="6.3329">
        <ele>718.6</ele>
        <time>2023-09-20T08:02:03Z</time>
      </trkpt>
      <trkpt lat="43.61519" lon="6.33283">
        <ele>719.2</ele>
      </trkpt>
      <trkpt lat="43.61519" lon="6.33276">
        <ele>719.8</ele>
        <time>2023-09-20T08:02:13Z</time>
      </trkpt>
      <trkpt lat="43.61519" lon="6.3327">
        <ele>720.2</ele>
      </trkpt>
      <trkpt lat="43.61519" lon="6.33263">
        <ele>720.7</ele>
        <time>2023-09-20T08:02:22Z</time>
      </trkpt>
      <trkpt lat="43.61519" lon="6.33255">
        <ele>721.3</ele>
      </trkpt>
      <trkpt lat="43.61519" lon="6.33247">
        <ele>721.9</ele>
        <time>2023-09-20T08:02:33Z</time>
      </trkpt>
      <trkpt lat="43.6152" lon="6.3324">
        <ele>722.4</ele>
      </trkpt>
      <trkpt lat="43.61521" lon="6.33233">
        <ele>723</ele>
        <time>2023-09-20T08:02:44Z</time>
      </trkpt>
      <trkpt lat="43.61522" lon="6.33226">
        <ele>723.7</ele>
      </trkpt>
      <trkpt lat="43.61522" lon="6.33218">
        <ele>724.3</ele>
        <time>2023-09-20T08:02:54Z</time>
      </trkpt>
      <trkpt lat="43.61523" lon="6.33211">
        <ele>724.8</ele>
      </trkpt>
      <trkpt lat="43.61523" lon="6.33204">
        <ele>725.3</ele>
        <time>2023-09-20T08:03:04Z</time>
      </trkpt>
      <trkpt lat="43.61524" lon="6.33197">
        <ele>725.8</ele>
      </trkpt>
      <trkpt lat="43.61524" lon="6.3319">
        <ele>726.2</ele>
        <time>2023-09-20T08:03:14Z</time>
      </trkpt>
      <trkpt lat="43.61524" lon="6.33183">
        <ele>726.4</ele>
      </trkpt>
      <trkpt lat="43.61524" lon="6.33176">
        <ele>726.7</ele>
        <time>2023-09-20T08:03:24Z</time>
      </trkpt>
      <trkpt lat="43.61522" lon="6.33164">
        <ele>727.2</ele>
        <time>2023-09-20T08:03:34Z</time>
      </trkpt>
      <trkpt lat="43.6152" lon="6.33158">
        <ele>727.6</ele>
      </trkpt>
      <trkpt lat="43.61517" lon="6.33151">
        <ele>727.9</ele>
        <time>2023-09-20T08:03:44Z</time>
      </trkpt>
      <trkpt lat="43.61517" lon="6.33144">
        <ele>728.3</ele>
      </trkpt>
      <trkpt lat="43.61517" lon="6.33137">
        <ele>728.7</ele>
        <time>2023-09-20T08:03:53Z</time>
      </trkpt>
      <trkpt lat="43.61519" lon="6.33131">
        <ele>729.2</ele>
      </trkpt>
      <trkpt lat="43.61521" lon="6.33125">
        <ele>729.6</ele>
        <time>2023-09-20T08:04:02Z</time>
      </trkpt>
      <trkpt lat="43.61525" lon="6.33114">
        <ele>730.6</ele>
        <time>2023-09-20T08:04:11Z</time>
      </trkpt>
      <trkpt lat="43.61526" lon="6.33106">
        <ele>731.2</ele>
      </trkpt>
      <trkpt lat="43.61526" lon="6.33097">
        <ele>731.9</ele>
        <time>2023-09-20T08:04:23Z</time>
      </trkpt>
      <trkpt lat="43.61528" lon="6.3309">
        <ele>732.5</ele>
      </trkpt>
      <trkpt lat="43.61529" lon="6.33083">
        <ele>733.2</ele>
        <time>2023-09-20T08:04:34Z</time>
      </trkpt>
      <trkpt lat="43.6153" lon="6.33076">
        <ele>733.6</ele>
      </trkpt>
      <trkpt lat="43.61531" lon="6.33069">
        <ele>734.1</ele>
        <time>2023-09-20T08:04:45Z</time>
      </trkpt>
      <trkpt lat="43.6153" lon="6.33063">
        <ele>734.1</ele>
      </trkpt>
      <trkpt lat="43.61528" lon="6.33056">
        <ele>734</ele>
        <time>2023-09-20T08:04:56Z</time>
      </trkpt>
      <trkpt lat="43.61525" lon="6.33048">
        <ele>734.8</ele>
      </trkpt>
      <trkpt lat="43.61521" lon="6.3304">
        <ele>735.6</ele>
        <time>2023-09-20T08:05:06Z</time>
      </trkpt>
      <trkpt lat="43.61518" lon="6.33035">
        <ele>736</ele>
      </trkpt>
      <trkpt lat="43.61515" lon="6.3303">
        <ele>736.3</ele>
        <time>2023-09-20T08:05:15Z</time>
      </trkpt>
      <trkpt lat="43.6151" lon="6.33022">
        <ele>736.6</ele>
        <time>2023-09-20T08:05:24Z</time>
      </trkpt>
      <trkpt lat="43.61507" lon="6.33016">
        <ele>736.9</ele>
      </trkpt>
      <trkpt lat="43.61504" lon="6.33009">
        <ele>737</ele>
        <time>2023-09-20T08:05:34Z</time>
      </trkpt>
      <trkpt lat="43.61502" lon="6.33003">
        <ele>737.1</ele>
      </trkpt>
      <trkpt lat="43.61499" lon="6.32996">
        <ele>737.3</ele>
        <time>2023-09-20T08:05:44Z</time>
      </trkpt>
      <trkpt lat="43.61497" lon="6.32989">
        <ele>737.9</ele>
      </trkpt>
      <trkpt lat="43.61495" lon="6.32981">
        <ele>738.5</ele>
        <time>2023-09-20T08:05:54Z</time>
      </trkpt>
      <trkpt lat="43.61493" lon="6.32969">
        <ele>739.7</ele>
        <time>2023-09-20T08:06:03Z</time>
      </trkpt>
      <trkpt lat="43.61491" lon="6.32963">
        <ele>740.3</ele>
      </trkpt>
      <trkpt lat="43.61489" lon="6.32956">
        <ele>740.9</ele>
        <time>2023-09-20T08:06:13Z</time>
      </trkpt>
      <trkpt lat="43.61489" lon="6.3295">
        <ele>741.7</ele>
      </trkpt>
      <trkpt lat="43.61488" lon="6.32943">
        <ele>742.4</ele>
        <time>2023-09-20T08:06:25Z</time>
      </trkpt>
      <trkpt lat="43.61488" lon="6.32936">
        <ele>743.2</ele>
      </trkpt>
      <trkpt lat="43.61487" lon="6.32928">
        <ele>744</ele>
        <time>2023-09-20T08:06:35Z</time>
      </trkpt>
      <trkpt lat="43.61487" lon="6.32921">
        <ele>744.8</ele>
      </trkpt>
      <trkpt lat="43.61487" lon="6.32914">
        <ele>745.6</ele>
        <time>2023-09-20T08:06:46Z</time>
      </trkpt>
      <trkpt lat="43.61485" lon="6.32908">
        <ele>745.7</ele>
      </trkpt>
      <trkpt lat="43.61482" lon="6.32901">
        <ele>746</ele>
        <time>2023-09-20T08:06:56Z</time>
      </trkpt>
      <trkpt lat="43.61479" lon="6.32897">
        <ele>745.9</ele>
      </trkpt>
      <trkpt lat="43.61475" lon="6.32893">
        <ele>745.8</ele>
        <time>2023-09-20T08:07:05Z</time>
      </trkpt>
      <trkpt lat="43.61469" lon="6.32884">
        <ele>745.7</ele>
        <time>2023-09-20T08:07:20Z</time>
      </trkpt>
      <trkpt lat="43.61467" lon="6.32884">
        <ele>745.2</ele>
        <time>2023-09-20T08:07:48Z</time>
      </trkpt>
      <trkpt lat="43.61467" lon="6.32875">
        <ele>746.2</ele>
      </trkpt>
      <trkpt lat="43.61466" lon="6.32866">
        <ele>747.1</ele>
        <time>2023-09-20T08:08:04Z</time>
      </trkpt>
      <trkpt lat="43.61463" lon="6.32861">
        <ele>747</ele>
      </trkpt>
      <trkpt lat="43.61459" lon="6.32855">
        <ele>746.9</ele>
        <time>2023-09-20T08:08:16Z</time>
      </trkpt>
      <trkpt lat="43.61452" lon="6.32849">
        <ele>746.3</ele>
        <time>2023-09-20T08:08:34Z</time>
      </trkpt>
      <trkpt lat="43.61448" lon="6.32839">
        <ele>746.9</ele>
        <time>2023-09-20T08:08:58Z</time>
      </trkpt>
      <trkpt lat="43.61446" lon="6.32833">
        <ele>747.4</ele>
      </trkpt>
      <trkpt lat="43.61444" lon="6.32826">
        <ele>748</ele>
        <time>2023-09-20T08:09:10Z</time>
      </trkpt>
      <trkpt lat="43.61442" lon="6.32819">
        <ele>748.5</ele>
      </trkpt>
      <trkpt lat="43.61439" lon="6.32812">
        <ele>749</ele>
        <time>2023-09-20T08:09:24Z</time>
      </trkpt>
      <trkpt lat="43.61433" lon="6.32803">
        <ele>749.1</ele>
        <time>2023-09-20T08:09:41Z</time>
      </trkpt>
      <trkpt lat="43.61426" lon="6.32796">
        <ele>749.2</ele>
        <time>2023-09-20T08:09:59Z</time>
      </trkpt>
      <trkpt lat="43.61422" lon="6.3279">
        <ele>749.6</ele>
      </trkpt>
      <trkpt lat="43.61418" lon="6.32784">
        <ele>750</ele>
        <time>2023-09-20T08:10:17Z</time>
      </trkpt>
      <trkpt lat="43.61415" lon="6.3278">
        <ele>751</ele>
      </trkpt>
      <trkpt lat="43.61411" lon="6.32775">
        <ele>752.2</ele>
        <time>2023-09-20T08:10:34Z</time>
      </trkpt>
      <trkpt lat="43.61408" lon="6.3277">
        <ele>753.2</ele>
      </trkpt>
      <trkpt lat="43.61405" lon="6.32764">
        <ele>753.8</ele>
        <time>2023-09-20T08:10:49Z</time>
      </trkpt>
      <trkpt lat="43.61403" lon="6.32758">
        <ele>754.1</ele>
      </trkpt>
      <trkpt lat="43.614" lon="6.32751">
        <ele>754</ele>
        <time>2023-09-20T08:11:02Z</time>
      </trkpt>
      <trkpt lat="43.61399" lon="6.32744">
        <ele>755.1</ele>
      </trkpt>
      <trkpt lat="43.61398" lon="6.32737">
        <ele>756.3</ele>
        <time>2023-09-20T08:11:14Z</time>
      </trkpt>
      <trkpt lat="43.61397" lon="6.3273">
        <ele>757.5</ele>
      </trkpt>
      <trkpt lat="43.61396" lon="6.32723">
        <ele>758.6</ele>
        <time>2023-09-20T08:11:27Z</time>
      </trkpt>
      <trkpt lat="43.61395" lon="6.32715">
        <ele>759.8</ele>
      </trkpt>
      <trkpt lat="43.61394" lon="6.32707">
        <ele>760.8</ele>
        <time>2023-09-20T08:11:41Z</time>
      </trkpt>
      <trkpt lat="43.61394" lon="6.327">
        <ele>761.8</ele>
      </trkpt>
      <trkpt lat="43.61393" lon="6.32693">
        <ele>762.6</ele>
        <time>2023-09-20T08:11:54Z</time>
      </trkpt>
      <trkpt lat="43.61393" lon="6.32686">
        <ele>763.3</ele>
      </trkpt>
      <trkpt lat="43.61393" lon="6.32678">
        <ele>763.9</ele>
        <time>2023-09-20T08:12:06Z</time>
      </trkpt>
      <trkpt lat="43.61394" lon="6.32672">
        <ele>764.7</ele>
      </trkpt>
      <trkpt lat="43.61395" lon="6.32665">
        <ele>765.5</ele>
        <time>2023-09-20T08:12:17Z</time>
      </trkpt>
      <trkpt lat="43.61398" lon="6.32659">
        <ele>766.4</ele>
      </trkpt>
      <trkpt lat="43.614" lon="6.32652">
        <ele>767</ele>
        <time>2023-09-20T08:12:29Z</time>
      </trkpt>
      <trkpt lat="43.61402" lon="6.32646">
        <ele>767.4</ele>
      </trkpt>
      <trkpt lat="43.61404" lon="6.32639">
        <ele>767.5</ele>
        <time>2023-09-20T08:12:40Z</time>
      </trkpt>
      <trkpt lat="43.61408" lon="6.32628">
        <ele>766.7</ele>
        <time>2023-09-20T08:13:01Z</time>
      </trkpt>
      <trkpt lat="43.61412" lon="6.32625">
        <ele>766.2</ele>
      </trkpt>
      <trkpt lat="43.61416" lon="6.32621">
        <ele>765.8</ele>
        <time>2023-09-20T08:13:10Z</time>
      </trkpt>
      <trkpt lat="43.61419" lon="6.32615">
        <ele>765.5</ele>
      </trkpt>
      <trkpt lat="43.61422" lon="6.32609">
        <ele>765.1</ele>
        <time>2023-09-20T08:13:19Z</time>
      </trkpt>
      <trkpt lat="43.61423" lon="6.32601">
        <ele>764.3</ele>
      </trkpt>
      <trkpt lat="43.61424" lon="6.32593">
        <ele>763.4</ele>
        <time>2023-09-20T08:13:28Z</time>
      </trkpt>
      <trkpt lat="43.61422" lon="6.32587">
        <ele>762.6</ele>
      </trkpt>
      <trkpt lat="43.6142" lon="6.3258">
        <ele>761.9</ele>
        <time>2023-09-20T08:13:37Z</time>
      </trkpt>
      <trkpt lat="43.61413" lon="6.32574">
        <ele>761.3</ele>
        <time>2023-09-20T08:13:45Z</time>
      </trkpt>
      <trkpt lat="43.61409" lon="6.32571">
        <ele>760.9</ele>
      </trkpt>
      <trkpt lat="43.61404" lon="6.32567">
        <ele>760.6</ele>
        <time>2023-09-20T08:13:54Z</time>
      </trkpt>
      <trkpt lat="43.614" lon="6.32565">
        <ele>760.2</ele>
      </trkpt>
      <trkpt lat="43.61395" lon="6.32562">
        <ele>759.9</ele>
        <time>2023-09-20T08:14:03Z</time>
      </trkpt>
      <trkpt lat="43.61392" lon="6.32558">
        <ele>759.3</ele>
      </trkpt>
      <trkpt lat="43.61388" lon="6.32553">
        <ele>758.8</ele>
        <time>2023-09-20T08:14:12Z</time>
      </trkpt>
      <trkpt lat="43.61385" lon="6.32547">
        <ele>758.5</ele>
      </trkpt>
      <trkpt lat="43.61382" lon="6.3254">
        <ele>758.1</ele>
        <time>2023-09-20T08:14:21Z</time>
      </trkpt>
      <trkpt lat="43.61379" lon="6.32535">
        <ele>757.8</ele>
      </trkpt>
      <trkpt lat="43.61376" lon="6.32529">
        <ele>757.6</ele>
        <time>2023-09-20T08:14:30Z</time>
      </trkpt>
      <trkpt lat="43.61372" lon="6.32525">
        <ele>757.4</ele>
      </trkpt>
      <trkpt lat="43.61367" lon="6.3252">
        <ele>757.3</ele>
        <time>2023-09-20T08:14:39Z</time>
      </trkpt>
      <trkpt lat="43.61363" lon="6.32518">
        <ele>757.2</ele>
      </trkpt>
      <trkpt lat="43.61358" lon="6.32515">
        <ele>756.9</ele>
        <time>2023-09-20T08:14:48Z</time>
      </trkpt>
      <trkpt lat="43.61354" lon="6.32512">
        <ele>756.4</ele>
      </trkpt>
      <trkpt lat="43.61349" lon="6.32508">
        <ele>756</ele>
        <time>2023-09-20T08:14:57Z</time>
      </trkpt>
      <trkpt lat="43.61345" lon="6.32502">
        <ele>755.5</ele>
      </trkpt>
      <trkpt lat="43.61341" lon="6.32495">
        <ele>755.1</ele>
        <time>2023-09-20T08:15:05Z</time>
      </trkpt>
      <trkpt lat="43.61339" lon="6.32489">
        <ele>754.8</ele>
      </trkpt>
      <trkpt lat="43.61336" lon="6.32482">
        <ele>754.4</ele>
        <time>2023-09-20T08:15:21Z</time>
      </trkpt>
      <trkpt lat="43.61334" lon="6.32476">
        <ele>754.1</ele>
      </trkpt>
      <trkpt lat="43.61331" lon="6.3247">
        <ele>754.2</ele>
        <time>2023-09-20T08:15:31Z</time>
      </trkpt>
      <trkpt lat="43.61329" lon="6.32464">
        <ele>754.3</ele>
      </trkpt>
      <trkpt lat="43.61326" lon="6.32458">
        <ele>754.3</ele>
        <time>2023-09-20T08:15:40Z</time>
      </trkpt>
      <trkpt lat="43.61324" lon="6.32453">
        <ele>754.2</ele>
      </trkpt>
      <trkpt lat="43.61321" lon="6.32447">
        <ele>754.1</ele>
        <time>2023-09-20T08:15:49Z</time>
      </trkpt>
      <trkpt lat="43.61317" lon="6.32442">
        <ele>754.1</ele>
      </trkpt>
      <trkpt lat="43.61312" lon="6.32437">
        <ele>754.3</ele>
        <time>2023-09-20T08:15:59Z</time>
      </trkpt>
      <trkpt lat="43.6131" lon="6.32425">
        <ele>754</ele>
        <time>2023-09-20T08:16:16Z</time>
      </trkpt>
      <trkpt lat="43.61315" lon="6.32423">
        <ele>753.5</ele>
      </trkpt>
      <trkpt lat="43.6132" lon="6.32421">
        <ele>753.1</ele>
        <time>2023-09-20T08:16:26Z</time>
      </trkpt>
      <trkpt lat="43.61325" lon="6.3242">
        <ele>752.7</ele>
      </trkpt>
      <trkpt lat="43.6133" lon="6.32418">
        <ele>752.3</ele>
        <time>2023-09-20T08:16:36Z</time>
      </trkpt>
      <trkpt lat="43.61338" lon="6.32417">
        <ele>751.7</ele>
        <time>2023-09-20T08:16:45Z</time>
      </trkpt>
      <trkpt lat="43.61345" lon="6.32414">
        <ele>751.2</ele>
      </trkpt>
      <trkpt lat="43.61352" lon="6.3241">
        <ele>750.6</ele>
        <time>2023-09-20T08:16:59Z</time>
      </trkpt>
      <trkpt lat="43.61358" lon="6.32409">
        <ele>750</ele>
      </trkpt>
      <trkpt lat="43.61363" lon="6.32407">
        <ele>749.7</ele>
        <time>2023-09-20T08:17:15Z</time>
      </trkpt>
      <trkpt lat="43.61368" lon="6.32413">
        <ele>750.1</ele>
        <time>2023-09-20T08:17:36Z</time>
      </trkpt>
      <trkpt lat="43.61373" lon="6.32416">
        <ele>750.4</ele>
        <time>2023-09-20T08:18:53Z</time>
      </trkpt>
      <trkpt lat="43.61376" lon="6.32408">
        <ele>749.9</ele>
      </trkpt>
      <trkpt lat="43.61379" lon="6.324">
        <ele>749.3</ele>
        <time>2023-09-20T08:19:04Z</time>
      </trkpt>
      <trkpt lat="43.61381" lon="6.32393">
        <ele>748.6</ele>
      </trkpt>
      <trkpt lat="43.61383" lon="6.32386">
        <ele>748.2</ele>
        <time>2023-09-20T08:19:12Z</time>
      </trkpt>
      <trkpt lat="43.61388" lon="6.32384">
        <ele>747.9</ele>
      </trkpt>
      <trkpt lat="43.61393" lon="6.32381">
        <ele>747.9</ele>
        <time>2023-09-20T08:19:21Z</time>
      </trkpt>
      <trkpt lat="43.61397" lon="6.32378">
        <ele>747.9</ele>
      </trkpt>
      <trkpt lat="43.61401" lon="6.32374">
        <ele>747.9</ele>
        <time>2023-09-20T08:19:29Z</time>
      </trkpt>
      <trkpt lat="43.61404" lon="6.32369">
        <ele>747.6</ele>
      </trkpt>
      <trkpt lat="43.61407" lon="6.32364">
        <ele>747.2</ele>
        <time>2023-09-20T08:19:37Z</time>
      </trkpt>
      <trkpt lat="43.61411" lon="6.32359">
        <ele>747</ele>
      </trkpt>
      <trkpt lat="43.61414" lon="6.32354">
        <ele>746.8</ele>
        <time>2023-09-20T08:19:45Z</time>
      </trkpt>
      <trkpt lat="43.61418" lon="6.3235">
        <ele>746.6</ele>
      </trkpt>
      <trkpt lat="43.61421" lon="6.32345">
        <ele>746.6</ele>
        <time>2023-09-20T08:19:55Z</time>
      </trkpt>
      <trkpt lat="43.61425" lon="6.32341">
        <ele>746.6</ele>
      </trkpt>
      <trkpt lat="43.61429" lon="6.32336">
        <ele>746.6</ele>
        <time>2023-09-20T08:20:03Z</time>
      </trkpt>
      <trkpt lat="43.61433" lon="6.32331">
        <ele>746.6</ele>
      </trkpt>
      <trkpt lat="43.61437" lon="6.32325">
        <ele>746.5</ele>
        <time>2023-09-20T08:20:13Z</time>
      </trkpt>
      <trkpt lat="43.61442" lon="6.32321">
        <ele>746.2</ele>
      </trkpt>
      <trkpt lat="43.61446" lon="6.32317">
        <ele>745.9</ele>
        <time>2023-09-20T08:20:23Z</time>
      </trkpt>
      <trkpt lat="43.6145" lon="6.32312">
        <ele>745.8</ele>
      </trkpt>
      <trkpt lat="43.61454" lon="6.32306">
        <ele>745.7</ele>
        <time>2023-09-20T08:20:33Z</time>
      </trkpt>
      <trkpt lat="43.61458" lon="6.32299">
        <ele>745.6</ele>
      </trkpt>
      <trkpt lat="43.61462" lon="6.32292">
        <ele>745.3</ele>
        <time>2023-09-20T08:20:43Z</time>
      </trkpt>
      <trkpt lat="43.61464" lon="6.32286">
        <ele>744.9</ele>
      </trkpt>
      <trkpt lat="43.61466" lon="6.32279">
        <ele>744.3</ele>
        <time>2023-09-20T08:20:53Z</time>
      </trkpt>
      <trkpt lat="43.61468" lon="6.32272">
        <ele>743.9</ele>
      </trkpt>
      <trkpt lat="43.61469" lon="6.32265">
        <ele>743.4</ele>
        <time>2023-09-20T08:21:03Z</time>
      </trkpt>
      <trkpt lat="43.6147" lon="6.32258">
        <ele>742.9</ele>
      </trkpt>
      <trkpt lat="43.6147" lon="6.3225">
        <ele>742.3</ele>
        <time>2023-09-20T08:21:13Z</time>
      </trkpt>
      <trkpt lat="43.6147" lon="6.32242">
        <ele>742.3</ele>
      </trkpt>
      <trkpt lat="43.6147" lon="6.32233">
        <ele>742.3</ele>
        <time>2023-09-20T08:21:24Z</time>
      </trkpt>
      <trkpt lat="43.61472" lon="6.32225">
        <ele>742.1</ele>
      </trkpt>
      <trkpt lat="43.61473" lon="6.32217">
        <ele>741.8</ele>
        <time>2023-09-20T08:21:36Z</time>
      </trkpt>
      <trkpt lat="43.61475" lon="6.32208">
        <ele>741.4</ele>
      </trkpt>
      <trkpt lat="43.61477" lon="6.32199">
        <ele>741</ele>
        <time>2023-09-20T08:21:47Z</time>
      </trkpt>
      <trkpt lat="43.61479" lon="6.32191">
        <ele>740.9</ele>
      </trkpt>
      <trkpt lat="43.61481" lon="6.32183">
        <ele>741.2</ele>
        <time>2023-09-20T08:21:56Z</time>
      </trkpt>
      <trkpt lat="43.61485" lon="6.32179">
        <ele>741.2</ele>
      </trkpt>
      <trkpt lat="43.61488" lon="6.32174">
        <ele>741.1</ele>
        <time>2023-09-20T08:22:04Z</time>
      </trkpt>
      <trkpt lat="43.61493" lon="6.32171">
        <ele>740.7</ele>
      </trkpt>
      <trkpt lat="43.61497" lon="6.32167">
        <ele>740.3</ele>
        <time>2023-09-20T08:22:13Z</time>
      </trkpt>
      <trkpt lat="43.61504" lon="6.32159">
        <ele>740.4</ele>
      </trkpt>
      <trkpt lat="43.6151" lon="6.3215">
        <ele>740.6</ele>
        <time>2023-09-20T08:22:28Z</time>
      </trkpt>
      <trkpt lat="43.61515" lon="6.32146">
        <ele>740.6</ele>
      </trkpt>
      <trkpt lat="43.61519" lon="6.32142">
        <ele>740.5</ele>
        <time>2023-09-20T08:22:38Z</time>
      </trkpt>
      <trkpt lat="43.61524" lon="6.3214">
        <ele>740.2</ele>
      </trkpt>
      <trkpt lat="43.6153" lon="6.32137">
        <ele>740.1</ele>
      </trkpt>
      <trkpt lat="43.61535" lon="6.32135">
        <ele>739.9</ele>
      </trkpt>
      <trkpt lat="43.6154" lon="6.32132">
        <ele>739.8</ele>
        <time>2023-09-20T08:22:55Z</time>
      </trkpt>
      <trkpt lat="43.61544" lon="6.32131">
        <ele>739.5</ele>
        <time>2023-09-20T08:23:10Z</time>
      </trkpt>
      <trkpt lat="43.61563" lon="6.3213">
        <ele>738.3</ele>
      </trkpt>
      <trkpt lat="43.61568" lon="6.32124">
        <ele>738.4</ele>
        <time>2023-09-20T08:25:59Z</time>
      </trkpt>
      <trkpt lat="43.61572" lon="6.3212">
        <ele>738.4</ele>
      </trkpt>
      <trkpt lat="43.61576" lon="6.32115">
        <ele>738.4</ele>
        <time>2023-09-20T08:26:10Z</time>
      </trkpt>
      <trkpt lat="43.6158" lon="6.32112">
        <ele>738.2</ele>
      </trkpt>
      <trkpt lat="43.61584" lon="6.32108">
        <ele>738.1</ele>
        <time>2023-09-20T08:26:21Z</time>
      </trkpt>
      <trkpt lat="43.61588" lon="6.32104">
        <ele>738.3</ele>
      </trkpt>
      <trkpt lat="43.61592" lon="6.321">
        <ele>738.6</ele>
        <time>2023-09-20T08:26:35Z</time>
      </trkpt>
      <trkpt lat="43.616" lon="6.32098">
        <ele>739</ele>
      </trkpt>
      <trkpt lat="43.61607" lon="6.32096">
        <ele>739.5</ele>
        <time>2023-09-20T08:26:49Z</time>
      </trkpt>
      <trkpt lat="43.61614" lon="6.32097">
        <ele>739.4</ele>
      </trkpt>
      <trkpt lat="43.6162" lon="6.32098">
        <ele>738.9</ele>
        <time>2023-09-20T08:27:02Z</time>
      </trkpt>
      <trkpt lat="43.61626" lon="6.32099">
        <ele>738.6</ele>
      </trkpt>
      <trkpt lat="43.61632" lon="6.32099">
        <ele>738.2</ele>
        <time>2023-09-20T08:27:12Z</time>
      </trkpt>
      <trkpt lat="43.61637" lon="6.32097">
        <ele>738.1</ele>
      </trkpt>
      <trkpt lat="43.61643" lon="6.32096">
        <ele>737.9</ele>
      </trkpt>
      <trkpt lat="43.61648" lon="6.32094">
        <ele>737.6</ele>
      </trkpt>
      <trkpt lat="43.61653" lon="6.32092">
        <ele>737.4</ele>
        <time>2023-09-20T08:27:26Z</time>
      </trkpt>
      <trkpt lat="43.61658" lon="6.3209">
        <ele>737.1</ele>
      </trkpt>
      <trkpt lat="43.61663" lon="6.32088">
        <ele>736.9</ele>
        <time>2023-09-20T08:27:37Z</time>
      </trkpt>
      <trkpt lat="43.61669" lon="6.32084">
        <ele>736.8</ele>
      </trkpt>
      <trkpt lat="43.61674" lon="6.3208">
        <ele>736.3</ele>
        <time>2023-09-20T08:27:48Z</time>
      </trkpt>
      <trkpt lat="43.61681" lon="6.32077">
        <ele>735.7</ele>
      </trkpt>
      <trkpt lat="43.61688" lon="6.32074">
        <ele>735</ele>
        <time>2023-09-20T08:27:59Z</time>
      </trkpt>
      <trkpt lat="43.61693" lon="6.32071">
        <ele>734.6</ele>
      </trkpt>
      <trkpt lat="43.61698" lon="6.32068">
        <ele>734.3</ele>
        <time>2023-09-20T08:28:08Z</time>
      </trkpt>
      <trkpt lat="43.61703" lon="6.32065">
        <ele>734.1</ele>
      </trkpt>
      <trkpt lat="43.61707" lon="6.32061">
        <ele>733.9</ele>
        <time>2023-09-20T08:28:17Z</time>
      </trkpt>
      <trkpt lat="43.61712" lon="6.32056">
        <ele>733.7</ele>
      </trkpt>
      <trkpt lat="43.61717" lon="6.3205">
        <ele>733.4</ele>
        <time>2023-09-20T08:28:28Z</time>
      </trkpt>
      <trkpt lat="43.61722" lon="6.32043">
        <ele>733.1</ele>
      </trkpt>
      <trkpt lat="43.61726" lon="6.32036">
        <ele>732.8</ele>
        <time>2023-09-20T08:28:39Z</time>
      </trkpt>
      <trkpt lat="43.61729" lon="6.32029">
        <ele>732.7</ele>
      </trkpt>
      <trkpt lat="43.61732" lon="6.32022">
        <ele>732.9</ele>
        <time>2023-09-20T08:28:48Z</time>
      </trkpt>
      <trkpt lat="43.61736" lon="6.32017">
        <ele>732.9</ele>
      </trkpt>
      <trkpt lat="43.6174" lon="6.32011">
        <ele>733</ele>
        <time>2023-09-20T08:28:58Z</time>
      </trkpt>
      <trkpt lat="43.61746" lon="6.32007">
        <ele>732.9</ele>
      </trkpt>
      <trkpt lat="43.61751" lon="6.32002">
        <ele>732.8</ele>
        <time>2023-09-20T08:29:12Z</time>
      </trkpt>
      <trkpt lat="43.61756" lon="6.31998">
        <ele>732.4</ele>
      </trkpt>
      <trkpt lat="43.61761" lon="6.31993">
        <ele>731.9</ele>
        <time>2023-09-20T08:29:25Z</time>
      </trkpt>
      <trkpt lat="43.61763" lon="6.31981">
        <ele>732</ele>
      </trkpt>
      <trkpt lat="43.61764" lon="6.31969">
        <ele>732</ele>
        <time>2023-09-20T08:29:36Z</time>
      </trkpt>
      <trkpt lat="43.61768" lon="6.31964">
        <ele>731.9</ele>
      </trkpt>
      <trkpt lat="43.61771" lon="6.31958">
        <ele>731.6</ele>
        <time>2023-09-20T08:29:47Z</time>
      </trkpt>
      <trkpt lat="43.61776" lon="6.31952">
        <ele>731.2</ele>
      </trkpt>
      <trkpt lat="43.61781" lon="6.31946">
        <ele>730.9</ele>
        <time>2023-09-20T08:29:56Z</time>
      </trkpt>
      <trkpt lat="43.61786" lon="6.3194">
        <ele>730.9</ele>
      </trkpt>
      <trkpt lat="43.6179" lon="6.31934">
        <ele>730.9</ele>
        <time>2023-09-20T08:30:04Z</time>
      </trkpt>
      <trkpt lat="43.61795" lon="6.3193">
        <ele>730.9</ele>
      </trkpt>
      <trkpt lat="43.61799" lon="6.31925">
        <ele>730.9</ele>
        <time>2023-09-20T08:30:13Z</time>
      </trkpt>
      <trkpt lat="43.61804" lon="6.31921">
        <ele>730.9</ele>
      </trkpt>
      <trkpt lat="43.61808" lon="6.31916">
        <ele>730.9</ele>
        <time>2023-09-20T08:30:21Z</time>
      </trkpt>
      <trkpt lat="43.61813" lon="6.31913">
        <ele>730.9</ele>
      </trkpt>
      <trkpt lat="43.61817" lon="6.31909">
        <ele>730.8</ele>
        <time>2023-09-20T08:30:29Z</time>
      </trkpt>
      <trkpt lat="43.61821" lon="6.31904">
        <ele>730.7</ele>
      </trkpt>
      <trkpt lat="43.61824" lon="6.31898">
        <ele>730.6</ele>
        <time>2023-09-20T08:30:38Z</time>
      </trkpt>
      <trkpt lat="43.61828" lon="6.31894">
        <ele>730.3</ele>
      </trkpt>
      <trkpt lat="43.61832" lon="6.3189">
        <ele>730.1</ele>
        <time>2023-09-20T08:30:47Z</time>
      </trkpt>
      <trkpt lat="43.61836" lon="6.31885">
        <ele>730.1</ele>
      </trkpt>
      <trkpt lat="43.6184" lon="6.31879">
        <ele>730.3</ele>
        <time>2023-09-20T08:30:57Z</time>
      </trkpt>
      <trkpt lat="43.61844" lon="6.31873">
        <ele>730.4</ele>
      </trkpt>
      <trkpt lat="43.61847" lon="6.31866">
        <ele>730.4</ele>
        <time>2023-09-20T08:31:06Z</time>
      </trkpt>
      <trkpt lat="43.61851" lon="6.31862">
        <ele>730.4</ele>
      </trkpt>
      <trkpt lat="43.61855" lon="6.31857">
        <ele>730.4</ele>
        <time>2023-09-20T08:31:16Z</time>
      </trkpt>
      <trkpt lat="43.6186" lon="6.31853">
        <ele>730.3</ele>
      </trkpt>
      <trkpt lat="43.61865" lon="6.31849">
        <ele>730.3</ele>
        <time>2023-09-20T08:31:25Z</time>
      </trkpt>
      <trkpt lat="43.6187" lon="6.31844">
        <ele>730.3</ele>
      </trkpt>
      <trkpt lat="43.61874" lon="6.31838">
        <ele>730.4</ele>
        <time>2023-09-20T08:31:34Z</time>
      </trkpt>
      <trkpt lat="43.61879" lon="6.31834">
        <ele>730.3</ele>
      </trkpt>
      <trkpt lat="43.61884" lon="6.3183">
        <ele>730.3</ele>
        <time>2023-09-20T08:31:44Z</time>
      </trkpt>
      <trkpt lat="43.61886" lon="6.31821">
        <ele>730.6</ele>
      </trkpt>
      <trkpt lat="43.61887" lon="6.31812">
        <ele>730.8</ele>
        <time>2023-09-20T08:31:59Z</time>
      </trkpt>
      <trkpt lat="43.61883" lon="6.31808">
        <ele>731.2</ele>
      </trkpt>
      <trkpt lat="43.61878" lon="6.31803">
        <ele>731.5</ele>
        <time>2023-09-20T08:32:12Z</time>
      </trkpt>
      <trkpt lat="43.61873" lon="6.31801">
        <ele>731.8</ele>
      </trkpt>
      <trkpt lat="43.61867" lon="6.31798">
        <ele>732.1</ele>
        <time>2023-09-20T08:32:25Z</time>
      </trkpt>
      <trkpt lat="43.61861" lon="6.31793">
        <ele>732.5</ele>
      </trkpt>
      <trkpt lat="43.61854" lon="6.31787">
        <ele>733.2</ele>
        <time>2023-09-20T08:32:41Z</time>
      </trkpt>
      <trkpt lat="43.61848" lon="6.31785">
        <ele>733.7</ele>
      </trkpt>
      <trkpt lat="43.61842" lon="6.31782">
        <ele>734.2</ele>
        <time>2023-09-20T08:32:55Z</time>
      </trkpt>
      <trkpt lat="43.61836" lon="6.3178">
        <ele>734.7</ele>
      </trkpt>
      <trkpt lat="43.6183" lon="6.31777">
        <ele>735.4</ele>
        <time>2023-09-20T08:33:09Z</time>
      </trkpt>
      <trkpt lat="43.61824" lon="6.31772">
        <ele>736.4</ele>
      </trkpt>
      <trkpt lat="43.61817" lon="6.31766">
        <ele>737.4</ele>
        <time>2023-09-20T08:33:21Z</time>
      </trkpt>
      <trkpt lat="43.61816" lon="6.3176">
        <ele>738</ele>
      </trkpt>
      <trkpt lat="43.61814" lon="6.31753">
        <ele>738.6</ele>
        <time>2023-09-20T08:33:33Z</time>
      </trkpt>
      <trkpt lat="43.61811" lon="6.31747">
        <ele>739.4</ele>
      </trkpt>
      <trkpt lat="43.61808" lon="6.31741">
        <ele>740</ele>
        <time>2023-09-20T08:33:47Z</time>
      </trkpt>
      <trkpt lat="43.61804" lon="6.31735">
        <ele>740.7</ele>
      </trkpt>
      <trkpt lat="43.618" lon="6.31729">
        <ele>741.3</ele>
        <time>2023-09-20T08:34:00Z</time>
      </trkpt>
      <trkpt lat="43.61797" lon="6.31724">
        <ele>741.9</ele>
      </trkpt>
      <trkpt lat="43.61793" lon="6.31718">
        <ele>742.7</ele>
        <time>2023-09-20T08:34:13Z</time>
      </trkpt>
      <trkpt lat="43.61791" lon="6.31712">
        <ele>743.3</ele>
      </trkpt>
      <trkpt lat="43.61789" lon="6.31705">
        <ele>744</ele>
        <time>2023-09-20T08:34:26Z</time>
      </trkpt>
      <trkpt lat="43.61788" lon="6.31698">
        <ele>744.7</ele>
      </trkpt>
      <trkpt lat="43.61786" lon="6.31691">
        <ele>745.4</ele>
        <time>2023-09-20T08:34:40Z</time>
      </trkpt>
      <trkpt lat="43.61782" lon="6.31685">
        <ele>746.3</ele>
      </trkpt>
      <trkpt lat="43.61778" lon="6.31678">
        <ele>747.2</ele>
        <time>2023-09-20T08:34:55Z</time>
      </trkpt>
      <trkpt lat="43.61773" lon="6.31675">
        <ele>747.8</ele>
      </trkpt>
      <trkpt lat="43.61767" lon="6.31672">
        <ele>748.4</ele>
        <time>2023-09-20T08:35:08Z</time>
      </trkpt>
      <trkpt lat="43.61763" lon="6.31668">
        <ele>749</ele>
      </trkpt>
      <trkpt lat="43.61758" lon="6.31663">
        <ele>749.6</ele>
        <time>2023-09-20T08:35:21Z</time>
      </trkpt>
      <trkpt lat="43.61756" lon="6.31657">
        <ele>750.1</ele>
      </trkpt>
      <trkpt lat="43.61753" lon="6.31651">
        <ele>750.5</ele>
        <time>2023-09-20T08:35:32Z</time>
      </trkpt>
      <trkpt lat="43.61746" lon="6.31647">
        <ele>751</ele>
      </trkpt>
      <trkpt lat="43.61739" lon="6.31643">
        <ele>751.6</ele>
        <time>2023-09-20T08:35:45Z</time>
      </trkpt>
      <trkpt lat="43.61733" lon="6.31641">
        <ele>752.1</ele>
      </trkpt>
      <trkpt lat="43.61726" lon="6.31639">
        <ele>752.7</ele>
        <time>2023-09-20T08:35:57Z</time>
      </trkpt>
      <trkpt lat="43.61722" lon="6.31635">
        <ele>753.1</ele>
      </trkpt>
      <trkpt lat="43.61717" lon="6.3163">
        <ele>753.1</ele>
        <time>2023-09-20T08:36:08Z</time>
      </trkpt>
      <trkpt lat="43.61715" lon="6.31623">
        <ele>753.1</ele>
      </trkpt>
      <trkpt lat="43.61712" lon="6.31616">
        <ele>752.9</ele>
        <time>2023-09-20T08:36:20Z</time>
      </trkpt>
      <trkpt lat="43.6171" lon="6.3161">
        <ele>752.6</ele>
      </trkpt>
      <trkpt lat="43.61707" lon="6.31604">
        <ele>752.1</ele>
        <time>2023-09-20T08:36:32Z</time>
      </trkpt>
      <trkpt lat="43.61703" lon="6.31597">
        <ele>751.2</ele>
      </trkpt>
      <trkpt lat="43.61699" lon="6.3159">
        <ele>750.2</ele>
        <time>2023-09-20T08:36:44Z</time>
      </trkpt>
      <trkpt lat="43.61697" lon="6.31581">
        <ele>749.1</ele>
      </trkpt>
      <trkpt lat="43.61694" lon="6.31571">
        <ele>747.7</ele>
        <time>2023-09-20T08:36:57Z</time>
      </trkpt>
      <trkpt lat="43.61691" lon="6.31561">
        <ele>746.4</ele>
      </trkpt>
      <trkpt lat="43.61687" lon="6.3155">
        <ele>745.5</ele>
        <time>2023-09-20T08:37:09Z</time>
      </trkpt>
      <trkpt lat="43.61684" lon="6.31542">
        <ele>744.9</ele>
      </trkpt>
      <trkpt lat="43.61681" lon="6.31533">
        <ele>744.3</ele>
        <time>2023-09-20T08:37:18Z</time>
      </trkpt>
      <trkpt lat="43.61676" lon="6.31527">
        <ele>743.6</ele>
        <time>2023-09-20T08:37:35Z</time>
      </trkpt>
      <trkpt lat="43.61675" lon="6.3152">
        <ele>743.3</ele>
      </trkpt>
      <trkpt lat="43.61673" lon="6.31512">
        <ele>742.9</ele>
        <time>2023-09-20T08:38:05Z</time>
      </trkpt>
      <trkpt lat="43.61669" lon="6.31507">
        <ele>742.4</ele>
      </trkpt>
      <trkpt lat="43.61665" lon="6.31502">
        <ele>742.1</ele>
        <time>2023-09-20T08:38:21Z</time>
      </trkpt>
      <trkpt lat="43.61659" lon="6.31497">
        <ele>741.9</ele>
      </trkpt>
      <trkpt lat="43.61652" lon="6.31491">
        <ele>741.5</ele>
        <time>2023-09-20T08:38:31Z</time>
      </trkpt>
      <trkpt lat="43.61649" lon="6.31486">
        <ele>741</ele>
      </trkpt>
      <trkpt lat="43.61646" lon="6.31481">
        <ele>740.5</ele>
        <time>2023-09-20T08:38:39Z</time>
      </trkpt>
      <trkpt lat="43.61642" lon="6.31476">
        <ele>739.7</ele>
      </trkpt>
      <trkpt lat="43.61638" lon="6.31471">
        <ele>739</ele>
        <time>2023-09-20T08:38:48Z</time>
      </trkpt>
      <trkpt lat="43.61635" lon="6.31463">
        <ele>738.6</ele>
      </trkpt>
      <trkpt lat="43.61631" lon="6.31454">
        <ele>738.1</ele>
        <time>2023-09-20T08:38:58Z</time>
      </trkpt>
      <trkpt lat="43.61628" lon="6.31448">
        <ele>737.7</ele>
      </trkpt>
      <trkpt lat="43.61625" lon="6.31442">
        <ele>737.5</ele>
        <time>2023-09-20T08:39:08Z</time>
      </trkpt>
      <trkpt lat="43.61625" lon="6.31433">
        <ele>737.3</ele>
      </trkpt>
      <trkpt lat="43.61625" lon="6.31424">
        <ele>737.1</ele>
        <time>2023-09-20T08:39:19Z</time>
      </trkpt>
      <trkpt lat="43.61622" lon="6.31415">
        <ele>736.8</ele>
      </trkpt>
      <trkpt lat="43.61619" lon="6.31405">
        <ele>736.6</ele>
        <time>2023-09-20T08:39:29Z</time>
      </trkpt>
      <trkpt lat="43.61612" lon="6.31398">
        <ele>736.1</ele>
        <time>2023-09-20T08:39:40Z</time>
      </trkpt>
      <trkpt lat="43.61606" lon="6.31404">
        <ele>735.8</ele>
      </trkpt>
      <trkpt lat="43.616" lon="6.31409">
        <ele>735.6</ele>
        <time>2023-09-20T08:39:54Z</time>
      </trkpt>
      <trkpt lat="43.61597" lon="6.31419">
        <ele>735.6</ele>
      </trkpt>
      <trkpt lat="43.61594" lon="6.31428">
        <ele>735.9</ele>
        <time>2023-09-20T08:40:05Z</time>
      </trkpt>
      <trkpt lat="43.61588" lon="6.31432">
        <ele>735.8</ele>
      </trkpt>
      <trkpt lat="43.61582" lon="6.31435">
        <ele>735.5</ele>
        <time>2023-09-20T08:40:17Z</time>
      </trkpt>
      <trkpt lat="43.61576" lon="6.31436">
        <ele>735</ele>
      </trkpt>
      <trkpt lat="43.6157" lon="6.31436">
        <ele>734.4</ele>
        <time>2023-09-20T08:40:29Z</time>
      </trkpt>
      <trkpt lat="43.61566" lon="6.3144">
        <ele>734</ele>
      </trkpt>
      <trkpt lat="43.61562" lon="6.31444">
        <ele>733.6</ele>
      </trkpt>
      <trkpt lat="43.61557" lon="6.31447">
        <ele>733.4</ele>
      </trkpt>
      <trkpt lat="43.61553" lon="6.31451">
        <ele>733.3</ele>
        <time>2023-09-20T08:40:45Z</time>
      </trkpt>
      <trkpt lat="43.61549" lon="6.31454">
        <ele>733.2</ele>
      </trkpt>
      <trkpt lat="43.61544" lon="6.31457">
        <ele>733.1</ele>
      </trkpt>
      <trkpt lat="43.6154" lon="6.3146">
        <ele>733</ele>
      </trkpt>
      <trkpt lat="43.61535" lon="6.31463">
        <ele>732.9</ele>
        <time>2023-09-20T08:40:58Z</time>
      </trkpt>
      <trkpt lat="43.61534" lon="6.31455">
        <ele>732.2</ele>
        <time>2023-09-20T08:41:29Z</time>
      </trkpt>
      <trkpt lat="43.61535" lon="6.31456">
        <ele>732.4</ele>
        <time>2023-09-20T08:41:48Z</time>
      </trkpt>
      <trkpt lat="43.61531" lon="6.31449">
        <ele>731.6</ele>
        <time>2023-09-20T08:42:11Z</time>
      </trkpt>
      <trkpt lat="43.61529" lon="6.31457">
        <ele>732</ele>
        <time>2023-09-20T08:42:35Z</time>
      </trkpt>
      <trkpt lat="43.61528" lon="6.31465">
        <ele>732.5</ele>
        <time>2023-09-20T08:42:57Z</time>
      </trkpt>
      <trkpt lat="43.61525" lon="6.31461">
        <ele>732</ele>
        <time>2023-09-20T08:43:36Z</time>
      </trkpt>
      <trkpt lat="43.61517" lon="6.31465">
        <ele>731.7</ele>
        <time>2023-09-20T08:44:00Z</time>
      </trkpt>
      <trkpt lat="43.61511" lon="6.31467">
        <ele>731.4</ele>
      </trkpt>
      <trkpt lat="43.61504" lon="6.31469">
        <ele>731.1</ele>
        <time>2023-09-20T08:44:12Z</time>
      </trkpt>
      <trkpt lat="43.61498" lon="6.3147">
        <ele>730.6</ele>
      </trkpt>
      <trkpt lat="43.61491" lon="6.3147">
        <ele>730.2</ele>
        <time>2023-09-20T08:44:21Z</time>
      </trkpt>
      <trkpt lat="43.61486" lon="6.31468">
        <ele>729.7</ele>
      </trkpt>
      <trkpt lat="43.6148" lon="6.31466">
        <ele>729.1</ele>
        <time>2023-09-20T08:44:30Z</time>
      </trkpt>
      <trkpt lat="43.61475" lon="6.31463">
        <ele>728.5</ele>
      </trkpt>
      <trkpt lat="43.6147" lon="6.3146">
        <ele>728</ele>
        <time>2023-09-20T08:44:38Z</time>
      </trkpt>
      <trkpt lat="43.61465" lon="6.31458">
        <ele>727.7</ele>
      </trkpt>
      <trkpt lat="43.61459" lon="6.31456">
        <ele>727.3</ele>
        <time>2023-09-20T08:44:47Z</time>
      </trkpt>
      <trkpt lat="43.61454" lon="6.31453">
        <ele>726.7</ele>
      </trkpt>
      <trkpt lat="43.61449" lon="6.3145">
        <ele>726.1</ele>
        <time>2023-09-20T08:44:56Z</time>
      </trkpt>
      <trkpt lat="43.61445" lon="6.31448">
        <ele>725.4</ele>
      </trkpt>
      <trkpt lat="43.6144" lon="6.31445">
        <ele>725.1</ele>
        <time>2023-09-20T08:45:05Z</time>
      </trkpt>
      <trkpt lat="43.61435" lon="6.31447">
        <ele>725.3</ele>
      </trkpt>
      <trkpt lat="43.61429" lon="6.31449">
        <ele>725.5</ele>
        <time>2023-09-20T08:45:15Z</time>
      </trkpt>
      <trkpt lat="43.61425" lon="6.31455">
        <ele>726</ele>
      </trkpt>
      <trkpt lat="43.61421" lon="6.31461">
        <ele>726.4</ele>
        <time>2023-09-20T08:45:25Z</time>
      </trkpt>
      <trkpt lat="43.61417" lon="6.31467">
        <ele>726.6</ele>
      </trkpt>
      <trkpt lat="43.61413" lon="6.31472">
        <ele>726.7</ele>
        <time>2023-09-20T08:45:35Z</time>
      </trkpt>
      <trkpt lat="43.61409" lon="6.31478">
        <ele>726.9</ele>
      </trkpt>
      <trkpt lat="43.61405" lon="6.31484">
        <ele>727</ele>
        <time>2023-09-20T08:45:43Z</time>
      </trkpt>
      <trkpt lat="43.61401" lon="6.31489">
        <ele>727.1</ele>
      </trkpt>
      <trkpt lat="43.61397" lon="6.31494">
        <ele>727.2</ele>
        <time>2023-09-20T08:45:51Z</time>
      </trkpt>
      <trkpt lat="43.61394" lon="6.315">
        <ele>727.3</ele>
      </trkpt>
      <trkpt lat="43.61391" lon="6.31505">
        <ele>727.5</ele>
        <time>2023-09-20T08:45:59Z</time>
      </trkpt>
      <trkpt lat="43.61388" lon="6.31511">
        <ele>727.7</ele>
      </trkpt>
      <trkpt lat="43.61385" lon="6.31517">
        <ele>727.9</ele>
        <time>2023-09-20T08:46:07Z</time>
      </trkpt>
      <trkpt lat="43.61383" lon="6.31523">
        <ele>728</ele>
      </trkpt>
      <trkpt lat="43.6138" lon="6.31529">
        <ele>728.2</ele>
        <time>2023-09-20T08:46:15Z</time>
      </trkpt>
      <trkpt lat="43.61375" lon="6.31534">
        <ele>728.1</ele>
      </trkpt>
      <trkpt lat="43.6137" lon="6.31539">
        <ele>727.9</ele>
        <time>2023-09-20T08:46:24Z</time>
      </trkpt>
      <trkpt lat="43.61366" lon="6.31544">
        <ele>727.7</ele>
      </trkpt>
      <trkpt lat="43.61361" lon="6.31549">
        <ele>727.5</ele>
        <time>2023-09-20T08:46:33Z</time>
      </trkpt>
      <trkpt lat="43.61357" lon="6.31554">
        <ele>727.7</ele>
      </trkpt>
      <trkpt lat="43.61353" lon="6.31558">
        <ele>727.9</ele>
        <time>2023-09-20T08:46:41Z</time>
      </trkpt>
      <trkpt lat="43.61348" lon="6.31564">
        <ele>728.2</ele>
      </trkpt>
      <trkpt lat="43.61343" lon="6.3157">
        <ele>728.2</ele>
        <time>2023-09-20T08:46:49Z</time>
      </trkpt>
      <trkpt lat="43.6134" lon="6.31574">
        <ele>728.2</ele>
      </trkpt>
      <trkpt lat="43.61336" lon="6.31578">
        <ele>728.1</ele>
        <time>2023-09-20T08:46:57Z</time>
      </trkpt>
      <trkpt lat="43.61332" lon="6.31584">
        <ele>728</ele>
      </trkpt>
      <trkpt lat="43.61328" lon="6.31589">
        <ele>728</ele>
        <time>2023-09-20T08:47:05Z</time>
      </trkpt>
      <trkpt lat="43.61324" lon="6.31594">
        <ele>727.9</ele>
      </trkpt>
      <trkpt lat="43.6132" lon="6.31598">
        <ele>727.8</ele>
        <time>2023-09-20T08:47:13Z</time>
      </trkpt>
      <trkpt lat="43.61314" lon="6.31604">
        <ele>727.5</ele>
      </trkpt>
      <trkpt lat="43.61307" lon="6.31609">
        <ele>727.1</ele>
        <time>2023-09-20T08:47:22Z</time>
      </trkpt>
      <trkpt lat="43.61303" lon="6.31611">
        <ele>726.9</ele>
      </trkpt>
      <trkpt lat="43.61298" lon="6.31612">
        <ele>726.8</ele>
        <time>2023-09-20T08:47:30Z</time>
      </trkpt>
      <trkpt lat="43.61293" lon="6.31616">
        <ele>726.6</ele>
      </trkpt>
      <trkpt lat="43.61288" lon="6.3162">
        <ele>726.5</ele>
        <time>2023-09-20T08:47:39Z</time>
      </trkpt>
      <trkpt lat="43.61283" lon="6.31624">
        <ele>726.2</ele>
      </trkpt>
      <trkpt lat="43.61277" lon="6.31628">
        <ele>726</ele>
        <time>2023-09-20T08:47:48Z</time>
      </trkpt>
      <trkpt lat="43.61273" lon="6.31633">
        <ele>725.8</ele>
      </trkpt>
      <trkpt lat="43.61269" lon="6.31637">
        <ele>725.7</ele>
        <time>2023-09-20T08:47:56Z</time>
      </trkpt>
      <trkpt lat="43.61266" lon="6.31641">
        <ele>725.6</ele>
      </trkpt>
      <trkpt lat="43.61262" lon="6.31645">
        <ele>725.7</ele>
        <time>2023-09-20T08:48:03Z</time>
      </trkpt>
      <trkpt lat="43.61258" lon="6.31646">
        <ele>725.5</ele>
      </trkpt>
      <trkpt lat="43.61253" lon="6.31646">
        <ele>725.4</ele>
        <time>2023-09-20T08:48:15Z</time>
      </trkpt>
      <trkpt lat="43.61254" lon="6.31644">
        <ele>725.3</ele>
        <time>2023-09-20T08:49:38Z</time>
      </trkpt>
      <trkpt lat="43.61248" lon="6.31651">
        <ele>725.3</ele>
      </trkpt>
      <trkpt lat="43.61241" lon="6.31658">
        <ele>725.1</ele>
        <time>2023-09-20T08:49:49Z</time>
      </trkpt>
      <trkpt lat="43.61237" lon="6.31663">
        <ele>725</ele>
      </trkpt>
      <trkpt lat="43.61233" lon="6.31667">
        <ele>724.8</ele>
        <time>2023-09-20T08:49:57Z</time>
      </trkpt>
      <trkpt lat="43.6123" lon="6.31672">
        <ele>724.7</ele>
      </trkpt>
      <trkpt lat="43.61226" lon="6.31677">
        <ele>724.6</ele>
        <time>2023-09-20T08:50:05Z</time>
      </trkpt>
      <trkpt lat="43.61224" lon="6.31683">
        <ele>724.7</ele>
      </trkpt>
      <trkpt lat="43.61222" lon="6.31689">
        <ele>724.8</ele>
        <time>2023-09-20T08:50:13Z</time>
      </trkpt>
      <trkpt lat="43.61218" lon="6.31694">
        <ele>725</ele>
      </trkpt>
      <trkpt lat="43.61213" lon="6.31699">
        <ele>725</ele>
        <time>2023-09-20T08:50:21Z</time>
      </trkpt>
      <trkpt lat="43.6121" lon="6.31704">
        <ele>725</ele>
      </trkpt>
      <trkpt lat="43.61206" lon="6.31708">
        <ele>725</ele>
        <time>2023-09-20T08:50:29Z</time>
      </trkpt>
      <trkpt lat="43.61201" lon="6.31713">
        <ele>725</ele>
      </trkpt>
      <trkpt lat="43.61196" lon="6.31718">
        <ele>725</ele>
        <time>2023-09-20T08:50:37Z</time>
      </trkpt>
      <trkpt lat="43.61193" lon="6.31722">
        <ele>724.9</ele>
      </trkpt>
      <trkpt lat="43.61189" lon="6.31726">
        <ele>724.9</ele>
        <time>2023-09-20T08:50:44Z</time>
      </trkpt>
      <trkpt lat="43.61184" lon="6.31736">
        <ele>724.9</ele>
        <time>2023-09-20T08:50:51Z</time>
      </trkpt>
      <trkpt lat="43.61181" lon="6.31743">
        <ele>724.9</ele>
      </trkpt>
      <trkpt lat="43.61177" lon="6.31749">
        <ele>724.7</ele>
        <time>2023-09-20T08:50:59Z</time>
      </trkpt>
      <trkpt lat="43.61174" lon="6.31754">
        <ele>724.6</ele>
      </trkpt>
      <trkpt lat="43.61171" lon="6.31759">
        <ele>724.4</ele>
        <time>2023-09-20T08:51:06Z</time>
      </trkpt>
      <trkpt lat="43.61166" lon="6.31769">
        <ele>724</ele>
        <time>2023-09-20T08:51:13Z</time>
      </trkpt>
      <trkpt lat="43.61163" lon="6.31775">
        <ele>723.8</ele>
      </trkpt>
      <trkpt lat="43.61159" lon="6.31781">
        <ele>723.8</ele>
        <time>2023-09-20T08:51:21Z</time>
      </trkpt>
      <trkpt lat="43.61156" lon="6.31787">
        <ele>723.9</ele>
      </trkpt>
      <trkpt lat="43.61152" lon="6.31792">
        <ele>724</ele>
        <time>2023-09-20T08:51:30Z</time>
      </trkpt>
      <trkpt lat="43.61148" lon="6.31796">
        <ele>724</ele>
      </trkpt>
      <trkpt lat="43.61143" lon="6.318">
        <ele>723.9</ele>
        <time>2023-09-20T08:51:38Z</time>
      </trkpt>
      <trkpt lat="43.61138" lon="6.31803">
        <ele>723.9</ele>
      </trkpt>
      <trkpt lat="43.61133" lon="6.31805">
        <ele>724</ele>
        <time>2023-09-20T08:51:46Z</time>
      </trkpt>
      <trkpt lat="43.61128" lon="6.31808">
        <ele>724.1</ele>
      </trkpt>
      <trkpt lat="43.61123" lon="6.31811">
        <ele>724.1</ele>
        <time>2023-09-20T08:51:54Z</time>
      </trkpt>
      <trkpt lat="43.61119" lon="6.31813">
        <ele>724.1</ele>
      </trkpt>
      <trkpt lat="43.61114" lon="6.31815">
        <ele>724</ele>
        <time>2023-09-20T08:52:01Z</time>
      </trkpt>
      <trkpt lat="43.6111" lon="6.31817">
        <ele>724</ele>
      </trkpt>
      <trkpt lat="43.61105" lon="6.31819">
        <ele>724</ele>
        <time>2023-09-20T08:52:08Z</time>
      </trkpt>
      <trkpt lat="43.611" lon="6.31822">
        <ele>724</ele>
      </trkpt>
      <trkpt lat="43.61095" lon="6.31824">
        <ele>724</ele>
        <time>2023-09-20T08:52:16Z</time>
      </trkpt>
      <trkpt lat="43.61091" lon="6.31828">
        <ele>724</ele>
      </trkpt>
      <trkpt lat="43.61086" lon="6.31832">
        <ele>724</ele>
        <time>2023-09-20T08:52:24Z</time>
      </trkpt>
      <trkpt lat="43.61081" lon="6.31836">
        <ele>724.1</ele>
      </trkpt>
      <trkpt lat="43.61076" lon="6.31839">
        <ele>724.2</ele>
        <time>2023-09-20T08:52:33Z</time>
      </trkpt>
      <trkpt lat="43.61072" lon="6.31844">
        <ele>724.4</ele>
      </trkpt>
      <trkpt lat="43.61068" lon="6.31848">
        <ele>724.5</ele>
        <time>2023-09-20T08:52:42Z</time>
      </trkpt>
      <trkpt lat="43.61065" lon="6.31853">
        <ele>724.7</ele>
      </trkpt>
      <trkpt lat="43.61061" lon="6.31858">
        <ele>724.9</ele>
        <time>2023-09-20T08:52:50Z</time>
      </trkpt>
      <trkpt lat="43.61058" lon="6.31864">
        <ele>725</ele>
      </trkpt>
      <trkpt lat="43.61055" lon="6.3187">
        <ele>725</ele>
        <time>2023-09-20T08:52:59Z</time>
      </trkpt>
      <trkpt lat="43.61052" lon="6.31876">
        <ele>725</ele>
      </trkpt>
      <trkpt lat="43.61049" lon="6.31881">
        <ele>725</ele>
        <time>2023-09-20T08:53:07Z</time>
      </trkpt>
      <trkpt lat="43.61046" lon="6.31887">
        <ele>725</ele>
      </trkpt>
      <trkpt lat="43.61043" lon="6.31892">
        <ele>725.1</ele>
        <time>2023-09-20T08:53:15Z</time>
      </trkpt>
      <trkpt lat="43.6104" lon="6.31898">
        <ele>725.3</ele>
      </trkpt>
      <trkpt lat="43.61036" lon="6.31904">
        <ele>725.5</ele>
        <time>2023-09-20T08:53:23Z</time>
      </trkpt>
      <trkpt lat="43.61034" lon="6.3191">
        <ele>725.8</ele>
      </trkpt>
      <trkpt lat="43.61032" lon="6.31916">
        <ele>726</ele>
        <time>2023-09-20T08:53:31Z</time>
      </trkpt>
      <trkpt lat="43.6103" lon="6.31922">
        <ele>726</ele>
      </trkpt>
      <trkpt lat="43.61028" lon="6.31928">
        <ele>726</ele>
        <time>2023-09-20T08:53:39Z</time>
      </trkpt>
      <trkpt lat="43.61026" lon="6.31934">
        <ele>726</ele>
      </trkpt>
      <trkpt lat="43.61024" lon="6.3194">
        <ele>726</ele>
        <time>2023-09-20T08:53:47Z</time>
      </trkpt>
      <trkpt lat="43.61021" lon="6.31947">
        <ele>726.1</ele>
      </trkpt>
      <trkpt lat="43.61018" lon="6.31953">
        <ele>726.2</ele>
        <time>2023-09-20T08:53:55Z</time>
      </trkpt>
      <trkpt lat="43.61017" lon="6.31961">
        <ele>726.4</ele>
      </trkpt>
      <trkpt lat="43.61016" lon="6.31969">
        <ele>726.5</ele>
        <time>2023-09-20T08:54:12Z</time>
      </trkpt>
      <trkpt lat="43.61012" lon="6.31979">
        <ele>726.8</ele>
        <time>2023-09-20T08:54:20Z</time>
      </trkpt>
      <trkpt lat="43.61009" lon="6.31984">
        <ele>727</ele>
      </trkpt>
      <trkpt lat="43.61005" lon="6.31988">
        <ele>727.2</ele>
        <time>2023-09-20T08:54:28Z</time>
      </trkpt>
      <trkpt lat="43.61" lon="6.31994">
        <ele>727.6</ele>
        <time>2023-09-20T08:54:37Z</time>
      </trkpt>
      <trkpt lat="43.60995" lon="6.31997">
        <ele>727.5</ele>
      </trkpt>
      <trkpt lat="43.6099" lon="6.32">
        <ele>727.3</ele>
        <time>2023-09-20T08:54:45Z</time>
      </trkpt>
      <trkpt lat="43.60985" lon="6.32004">
        <ele>727</ele>
      </trkpt>
      <trkpt lat="43.60979" lon="6.32007">
        <ele>726.7</ele>
        <time>2023-09-20T08:54:53Z</time>
      </trkpt>
      <trkpt lat="43.60974" lon="6.3201">
        <ele>726.5</ele>
      </trkpt>
      <trkpt lat="43.60969" lon="6.32013">
        <ele>726.5</ele>
        <time>2023-09-20T08:55:01Z</time>
      </trkpt>
      <trkpt lat="43.60964" lon="6.32017">
        <ele>726.6</ele>
      </trkpt>
      <trkpt lat="43.60959" lon="6.3202">
        <ele>726.7</ele>
        <time>2023-09-20T08:55:10Z</time>
      </trkpt>
      <trkpt lat="43.60955" lon="6.32025">
        <ele>726.9</ele>
      </trkpt>
      <trkpt lat="43.6095" lon="6.3203">
        <ele>727.1</ele>
        <time>2023-09-20T08:55:19Z</time>
      </trkpt>
      <trkpt lat="43.60945" lon="6.32034">
        <ele>727.2</ele>
      </trkpt>
      <trkpt lat="43.6094" lon="6.32037">
        <ele>727.3</ele>
        <time>2023-09-20T08:55:27Z</time>
      </trkpt>
      <trkpt lat="43.60935" lon="6.3204">
        <ele>727.3</ele>
      </trkpt>
      <trkpt lat="43.6093" lon="6.32042">
        <ele>727.2</ele>
        <time>2023-09-20T08:55:35Z</time>
      </trkpt>
      <trkpt lat="43.60925" lon="6.32044">
        <ele>727.2</ele>
      </trkpt>
      <trkpt lat="43.6092" lon="6.32046">
        <ele>727.1</ele>
        <time>2023-09-20T08:55:43Z</time>
      </trkpt>
      <trkpt lat="43.60915" lon="6.32049">
        <ele>727</ele>
      </trkpt>
      <trkpt lat="43.6091" lon="6.32051">
        <ele>727</ele>
        <time>2023-09-20T08:55:51Z</time>
      </trkpt>
      <trkpt lat="43.60906" lon="6.32053">
        <ele>727</ele>
      </trkpt>
      <trkpt lat="43.60901" lon="6.32054">
        <ele>727</ele>
        <time>2023-09-20T08:55:59Z</time>
      </trkpt>
      <trkpt lat="43.60896" lon="6.32058">
        <ele>727</ele>
      </trkpt>
      <trkpt lat="43.60891" lon="6.32061">
        <ele>727</ele>
        <time>2023-09-20T08:56:07Z</time>
      </trkpt>
      <trkpt lat="43.60888" lon="6.32066">
        <ele>727</ele>
      </trkpt>
      <trkpt lat="43.60884" lon="6.3207">
        <ele>727</ele>
        <time>2023-09-20T08:56:15Z</time>
      </trkpt>
      <trkpt lat="43.60881" lon="6.32076">
        <ele>727</ele>
      </trkpt>
      <trkpt lat="43.60878" lon="6.32081">
        <ele>727</ele>
        <time>2023-09-20T08:56:25Z</time>
      </trkpt>
      <trkpt lat="43.60875" lon="6.32087">
        <ele>727.1</ele>
      </trkpt>
      <trkpt lat="43.60872" lon="6.32093">
        <ele>727.1</ele>
        <time>2023-09-20T08:56:34Z</time>
      </trkpt>
      <trkpt lat="43.60869" lon="6.32099">
        <ele>727.2</ele>
      </trkpt>
      <trkpt lat="43.60865" lon="6.32105">
        <ele>727.1</ele>
        <time>2023-09-20T08:56:44Z</time>
      </trkpt>
      <trkpt lat="43.60863" lon="6.32106">
        <ele>727.1</ele>
        <time>2023-09-20T08:57:11Z</time>
      </trkpt>
      <trkpt lat="43.60861" lon="6.32114">
        <ele>727</ele>
      </trkpt>
      <trkpt lat="43.60859" lon="6.32122">
        <ele>726.9</ele>
        <time>2023-09-20T08:57:27Z</time>
      </trkpt>
      <trkpt lat="43.60856" lon="6.32128">
        <ele>726.8</ele>
      </trkpt>
      <trkpt lat="43.60853" lon="6.32134">
        <ele>726.7</ele>
        <time>2023-09-20T08:57:35Z</time>
      </trkpt>
      <trkpt lat="43.60851" lon="6.32141">
        <ele>726.7</ele>
      </trkpt>
      <trkpt lat="43.60849" lon="6.32147">
        <ele>726.9</ele>
        <time>2023-09-20T08:57:43Z</time>
      </trkpt>
      <trkpt lat="43.60846" lon="6.32154">
        <ele>727</ele>
      </trkpt>
      <trkpt lat="43.60843" lon="6.32161">
        <ele>726.9</ele>
        <time>2023-09-20T08:57:51Z</time>
      </trkpt>
      <trkpt lat="43.6084" lon="6.32167">
        <ele>726.7</ele>
      </trkpt>
      <trkpt lat="43.60837" lon="6.32172">
        <ele>726.6</ele>
        <time>2023-09-20T08:57:59Z</time>
      </trkpt>
      <trkpt lat="43.60834" lon="6.32179">
        <ele>726.5</ele>
      </trkpt>
      <trkpt lat="43.60831" lon="6.32185">
        <ele>726.6</ele>
        <time>2023-09-20T08:58:08Z</time>
      </trkpt>
      <trkpt lat="43.60828" lon="6.32191">
        <ele>726.7</ele>
      </trkpt>
      <trkpt lat="43.60824" lon="6.32197">
        <ele>726.8</ele>
        <time>2023-09-20T08:58:16Z</time>
      </trkpt>
      <trkpt lat="43.60822" lon="6.32205">
        <ele>726.9</ele>
      </trkpt>
      <trkpt lat="43.60819" lon="6.32212">
        <ele>727.1</ele>
        <time>2023-09-20T08:58:25Z</time>
      </trkpt>
      <trkpt lat="43.60816" lon="6.32218">
        <ele>727.2</ele>
      </trkpt>
      <trkpt lat="43.60812" lon="6.32224">
        <ele>727.3</ele>
        <time>2023-09-20T08:58:33Z</time>
      </trkpt>
      <trkpt lat="43.60808" lon="6.32229">
        <ele>727.3</ele>
      </trkpt>
      <trkpt lat="43.60804" lon="6.32234">
        <ele>727.4</ele>
        <time>2023-09-20T08:58:41Z</time>
      </trkpt>
      <trkpt lat="43.60799" lon="6.32239">
        <ele>727.4</ele>
      </trkpt>
      <trkpt lat="43.60794" lon="6.32244">
        <ele>727.4</ele>
        <time>2023-09-20T08:58:49Z</time>
      </trkpt>
      <trkpt lat="43.60789" lon="6.32248">
        <ele>727.3</ele>
      </trkpt>
      <trkpt lat="43.60784" lon="6.32251">
        <ele>727.3</ele>
        <time>2023-09-20T08:58:58Z</time>
      </trkpt>
      <trkpt lat="43.60779" lon="6.32254">
        <ele>727.2</ele>
      </trkpt>
      <trkpt lat="43.60774" lon="6.32257">
        <ele>727</ele>
        <time>2023-09-20T08:59:06Z</time>
      </trkpt>
      <trkpt lat="43.60769" lon="6.3226">
        <ele>726.8</ele>
      </trkpt>
      <trkpt lat="43.60763" lon="6.32263">
        <ele>726.7</ele>
        <time>2023-09-20T08:59:15Z</time>
      </trkpt>
      <trkpt lat="43.60758" lon="6.32265">
        <ele>726.5</ele>
      </trkpt>
      <trkpt lat="43.60753" lon="6.32267">
        <ele>726.4</ele>
        <time>2023-09-20T08:59:23Z</time>
      </trkpt>
      <trkpt lat="43.6075" lon="6.32272">
        <ele>726.5</ele>
      </trkpt>
      <trkpt lat="43.60746" lon="6.32276">
        <ele>726.6</ele>
        <time>2023-09-20T08:59:31Z</time>
      </trkpt>
      <trkpt lat="43.60742" lon="6.32281">
        <ele>726.5</ele>
      </trkpt>
      <trkpt lat="43.60738" lon="6.32286">
        <ele>726.3</ele>
        <time>2023-09-20T08:59:39Z</time>
      </trkpt>
      <trkpt lat="43.60735" lon="6.32291">
        <ele>726.1</ele>
      </trkpt>
      <trkpt lat="43.60731" lon="6.32296">
        <ele>726.1</ele>
        <time>2023-09-20T08:59:47Z</time>
      </trkpt>
      <trkpt lat="43.60727" lon="6.323">
        <ele>726</ele>
      </trkpt>
      <trkpt lat="43.60723" lon="6.32304">
        <ele>726</ele>
        <time>2023-09-20T08:59:55Z</time>
      </trkpt>
      <trkpt lat="43.60719" lon="6.32308">
        <ele>725.7</ele>
      </trkpt>
      <trkpt lat="43.60715" lon="6.32312">
        <ele>725.3</ele>
        <time>2023-09-20T09:00:04Z</time>
      </trkpt>
      <trkpt lat="43.60711" lon="6.32316">
        <ele>724.9</ele>
      </trkpt>
      <trkpt lat="43.60706" lon="6.32319">
        <ele>724.6</ele>
        <time>2023-09-20T09:00:12Z</time>
      </trkpt>
      <trkpt lat="43.60702" lon="6.32323">
        <ele>724.4</ele>
      </trkpt>
      <trkpt lat="43.60698" lon="6.32327">
        <ele>724.2</ele>
        <time>2023-09-20T09:00:20Z</time>
      </trkpt>
      <trkpt lat="43.60694" lon="6.32332">
        <ele>724</ele>
      </trkpt>
      <trkpt lat="43.6069" lon="6.32336">
        <ele>723.9</ele>
        <time>2023-09-20T09:00:28Z</time>
      </trkpt>
      <trkpt lat="43.60685" lon="6.3234">
        <ele>723.9</ele>
      </trkpt>
      <trkpt lat="43.6068" lon="6.32344">
        <ele>723.9</ele>
        <time>2023-09-20T09:00:36Z</time>
      </trkpt>
      <trkpt lat="43.60676" lon="6.32347">
        <ele>723.8</ele>
      </trkpt>
      <trkpt lat="43.60671" lon="6.32349">
        <ele>723.7</ele>
        <time>2023-09-20T09:00:44Z</time>
      </trkpt>
      <trkpt lat="43.60667" lon="6.32353">
        <ele>723.7</ele>
      </trkpt>
      <trkpt lat="43.60662" lon="6.32357">
        <ele>723.5</ele>
        <time>2023-09-20T09:00:53Z</time>
      </trkpt>
      <trkpt lat="43.60657" lon="6.3236">
        <ele>723.2</ele>
      </trkpt>
      <trkpt lat="43.60651" lon="6.32363">
        <ele>722.9</ele>
        <time>2023-09-20T09:01:01Z</time>
      </trkpt>
      <trkpt lat="43.60646" lon="6.32366">
        <ele>722.6</ele>
      </trkpt>
      <trkpt lat="43.6064" lon="6.32368">
        <ele>722.3</ele>
        <time>2023-09-20T09:01:10Z</time>
      </trkpt>
      <trkpt lat="43.60635" lon="6.3237">
        <ele>722.1</ele>
      </trkpt>
      <trkpt lat="43.60629" lon="6.32372">
        <ele>721.9</ele>
        <time>2023-09-20T09:01:19Z</time>
      </trkpt>
      <trkpt lat="43.60624" lon="6.32375">
        <ele>721.7</ele>
      </trkpt>
      <trkpt lat="43.60618" lon="6.32377">
        <ele>721.4</ele>
        <time>2023-09-20T09:01:29Z</time>
      </trkpt>
      <trkpt lat="43.60613" lon="6.3238">
        <ele>721.1</ele>
      </trkpt>
      <trkpt lat="43.60607" lon="6.32383">
        <ele>720.7</ele>
        <time>2023-09-20T09:01:39Z</time>
      </trkpt>
      <trkpt lat="43.60602" lon="6.32388">
        <ele>720.4</ele>
      </trkpt>
      <trkpt lat="43.60597" lon="6.32393">
        <ele>720</ele>
        <time>2023-09-20T09:01:53Z</time>
      </trkpt>
      <trkpt lat="43.60593" lon="6.32399">
        <ele>719.7</ele>
      </trkpt>
      <trkpt lat="43.60588" lon="6.32404">
        <ele>719.3</ele>
        <time>2023-09-20T09:02:08Z</time>
      </trkpt>
      <trkpt lat="43.60585" lon="6.3241">
        <ele>719.1</ele>
      </trkpt>
      <trkpt lat="43.60582" lon="6.32415">
        <ele>719</ele>
        <time>2023-09-20T09:02:17Z</time>
      </trkpt>
      <trkpt lat="43.60578" lon="6.3242">
        <ele>718.7</ele>
      </trkpt>
      <trkpt lat="43.60574" lon="6.32424">
        <ele>718.5</ele>
        <time>2023-09-20T09:02:25Z</time>
      </trkpt>
      <trkpt lat="43.6057" lon="6.32429">
        <ele>718.3</ele>
      </trkpt>
      <trkpt lat="43.60566" lon="6.32434">
        <ele>718.1</ele>
        <time>2023-09-20T09:02:33Z</time>
      </trkpt>
      <trkpt lat="43.60562" lon="6.32439">
        <ele>718</ele>
      </trkpt>
      <trkpt lat="43.60558" lon="6.32444">
        <ele>718</ele>
        <time>2023-09-20T09:02:41Z</time>
      </trkpt>
      <trkpt lat="43.60554" lon="6.32447">
        <ele>717.9</ele>
      </trkpt>
      <trkpt lat="43.6055" lon="6.3245">
        <ele>717.6</ele>
        <time>2023-09-20T09:02:49Z</time>
      </trkpt>
      <trkpt lat="43.60545" lon="6.32453">
        <ele>717.3</ele>
      </trkpt>
      <trkpt lat="43.6054" lon="6.32456">
        <ele>717</ele>
        <time>2023-09-20T09:02:57Z</time>
      </trkpt>
      <trkpt lat="43.60536" lon="6.32461">
        <ele>716.7</ele>
      </trkpt>
      <trkpt lat="43.60532" lon="6.32466">
        <ele>716.4</ele>
        <time>2023-09-20T09:03:06Z</time>
      </trkpt>
      <trkpt lat="43.6053" lon="6.32478">
        <ele>715.9</ele>
        <time>2023-09-20T09:03:15Z</time>
      </trkpt>
      <trkpt lat="43.60531" lon="6.3249">
        <ele>715.6</ele>
        <time>2023-09-20T09:03:23Z</time>
      </trkpt>
      <trkpt lat="43.60533" lon="6.32497">
        <ele>715.5</ele>
      </trkpt>
      <trkpt lat="43.60535" lon="6.32503">
        <ele>715.4</ele>
        <time>2023-09-20T09:03:31Z</time>
      </trkpt>
      <trkpt lat="43.60537" lon="6.32514">
        <ele>715.2</ele>
        <time>2023-09-20T09:03:41Z</time>
      </trkpt>
      <trkpt lat="43.60538" lon="6.32522">
        <ele>714.9</ele>
      </trkpt>
      <trkpt lat="43.60538" lon="6.32529">
        <ele>714.7</ele>
        <time>2023-09-20T09:03:50Z</time>
      </trkpt>
      <trkpt lat="43.60539" lon="6.32536">
        <ele>714.4</ele>
      </trkpt>
      <trkpt lat="43.60539" lon="6.32543">
        <ele>714</ele>
        <time>2023-09-20T09:04:04Z</time>
      </trkpt>
      <trkpt lat="43.60537" lon="6.3255">
        <ele>713.6</ele>
      </trkpt>
      <trkpt lat="43.60535" lon="6.32557">
        <ele>713.3</ele>
        <time>2023-09-20T09:04:12Z</time>
      </trkpt>
      <trkpt lat="43.60533" lon="6.32564">
        <ele>713.2</ele>
      </trkpt>
      <trkpt lat="43.60531" lon="6.3257">
        <ele>713.2</ele>
        <time>2023-09-20T09:04:20Z</time>
      </trkpt>
      <trkpt lat="43.60529" lon="6.32577">
        <ele>713.1</ele>
      </trkpt>
      <trkpt lat="43.60527" lon="6.32583">
        <ele>713</ele>
        <time>2023-09-20T09:04:28Z</time>
      </trkpt>
      <trkpt lat="43.60525" lon="6.3259">
        <ele>712.9</ele>
      </trkpt>
      <trkpt lat="43.60523" lon="6.32597">
        <ele>712.8</ele>
        <time>2023-09-20T09:04:36Z</time>
      </trkpt>
      <trkpt lat="43.60522" lon="6.32604">
        <ele>712.6</ele>
      </trkpt>
      <trkpt lat="43.60521" lon="6.32611">
        <ele>712.5</ele>
        <time>2023-09-20T09:04:44Z</time>
      </trkpt>
      <trkpt lat="43.60522" lon="6.32618">
        <ele>712.4</ele>
      </trkpt>
      <trkpt lat="43.60522" lon="6.32624">
        <ele>712.3</ele>
        <time>2023-09-20T09:04:52Z</time>
      </trkpt>
      <trkpt lat="43.60523" lon="6.32636">
        <ele>712.2</ele>
        <time>2023-09-20T09:04:59Z</time>
      </trkpt>
      <trkpt lat="43.60523" lon="6.32644">
        <ele>712.1</ele>
      </trkpt>
      <trkpt lat="43.60523" lon="6.32651">
        <ele>711.9</ele>
        <time>2023-09-20T09:05:07Z</time>
      </trkpt>
      <trkpt lat="43.60523" lon="6.32663">
        <ele>711.6</ele>
        <time>2023-09-20T09:05:14Z</time>
      </trkpt>
      <trkpt lat="43.60522" lon="6.3267">
        <ele>711.6</ele>
      </trkpt>
      <trkpt lat="43.6052" lon="6.32677">
        <ele>711.6</ele>
        <time>2023-09-20T09:05:22Z</time>
      </trkpt>
      <trkpt lat="43.60518" lon="6.32684">
        <ele>711.6</ele>
      </trkpt>
      <trkpt lat="43.60516" lon="6.3269">
        <ele>711.6</ele>
        <time>2023-09-20T09:05:30Z</time>
      </trkpt>
      <trkpt lat="43.60513" lon="6.32697">
        <ele>711.4</ele>
      </trkpt>
      <trkpt lat="43.6051" lon="6.32704">
        <ele>711.2</ele>
        <time>2023-09-20T09:05:39Z</time>
      </trkpt>
      <trkpt lat="43.60507" lon="6.3271">
        <ele>710.9</ele>
      </trkpt>
      <trkpt lat="43.60503" lon="6.32716">
        <ele>710.5</ele>
        <time>2023-09-20T09:05:47Z</time>
      </trkpt>
      <trkpt lat="43.605" lon="6.32723">
        <ele>710</ele>
      </trkpt>
      <trkpt lat="43.60496" lon="6.32729">
        <ele>710.2</ele>
        <time>2023-09-20T09:05:56Z</time>
      </trkpt>
      <trkpt lat="43.60493" lon="6.32735">
        <ele>710.2</ele>
      </trkpt>
      <trkpt lat="43.60489" lon="6.3274">
        <ele>710</ele>
        <time>2023-09-20T09:06:05Z</time>
      </trkpt>
      <trkpt lat="43.60486" lon="6.32745">
        <ele>709.8</ele>
      </trkpt>
      <trkpt lat="43.60483" lon="6.3275">
        <ele>709.4</ele>
        <time>2023-09-20T09:06:14Z</time>
      </trkpt>
      <trkpt lat="43.6048" lon="6.32756">
        <ele>709.4</ele>
      </trkpt>
      <trkpt lat="43.60477" lon="6.32761">
        <ele>709.4</ele>
        <time>2023-09-20T09:06:30Z</time>
      </trkpt>
      <trkpt lat="43.60474" lon="6.32767">
        <ele>709.2</ele>
      </trkpt>
      <trkpt lat="43.60471" lon="6.32772">
        <ele>709</ele>
        <time>2023-09-20T09:06:49Z</time>
      </trkpt>
      <trkpt lat="43.6047" lon="6.32779">
        <ele>709.1</ele>
      </trkpt>
      <trkpt lat="43.60469" lon="6.32785">
        <ele>709.7</ele>
        <time>2023-09-20T09:07:06Z</time>
      </trkpt>
      <trkpt lat="43.60465" lon="6.32791">
        <ele>710</ele>
      </trkpt>
      <trkpt lat="43.60461" lon="6.32796">
        <ele>710.2</ele>
        <time>2023-09-20T09:07:20Z</time>
      </trkpt>
      <trkpt lat="43.60455" lon="6.32801">
        <ele>710</ele>
        <time>2023-09-20T09:07:30Z</time>
      </trkpt>
      <trkpt lat="43.60448" lon="6.32797">
        <ele>709.3</ele>
        <time>2023-09-20T09:08:01Z</time>
      </trkpt>
      <trkpt lat="43.60443" lon="6.32797">
        <ele>709</ele>
      </trkpt>
      <trkpt lat="43.60438" lon="6.32796">
        <ele>708.8</ele>
        <time>2023-09-20T09:08:15Z</time>
      </trkpt>
      <trkpt lat="43.60434" lon="6.32793">
        <ele>708.6</ele>
      </trkpt>
      <trkpt lat="43.6043" lon="6.32789">
        <ele>708.4</ele>
        <time>2023-09-20T09:08:24Z</time>
      </trkpt>
      <trkpt lat="43.60426" lon="6.32785">
        <ele>708</ele>
      </trkpt>
      <trkpt lat="43.60422" lon="6.32781">
        <ele>707.6</ele>
        <time>2023-09-20T09:08:32Z</time>
      </trkpt>
      <trkpt lat="43.60416" lon="6.32782">
        <ele>707.3</ele>
      </trkpt>
      <trkpt lat="43.60409" lon="6.32782">
        <ele>707.3</ele>
        <time>2023-09-20T09:08:40Z</time>
      </trkpt>
      <trkpt lat="43.60405" lon="6.32783">
        <ele>707.3</ele>
      </trkpt>
      <trkpt lat="43.604" lon="6.32784">
        <ele>707.3</ele>
        <time>2023-09-20T09:08:48Z</time>
      </trkpt>
      <trkpt lat="43.60392" lon="6.32789">
        <ele>707.4</ele>
        <time>2023-09-20T09:08:56Z</time>
      </trkpt>
      <trkpt lat="43.60387" lon="6.32792">
        <ele>707.4</ele>
      </trkpt>
      <trkpt lat="43.60382" lon="6.32794">
        <ele>707.3</ele>
        <time>2023-09-20T09:09:05Z</time>
      </trkpt>
      <trkpt lat="43.60377" lon="6.32797">
        <ele>707.2</ele>
      </trkpt>
      <trkpt lat="43.60371" lon="6.328">
        <ele>707.2</ele>
        <time>2023-09-20T09:09:13Z</time>
      </trkpt>
      <trkpt lat="43.60366" lon="6.328">
        <ele>707</ele>
      </trkpt>
      <trkpt lat="43.6036" lon="6.328">
        <ele>706.8</ele>
        <time>2023-09-20T09:09:22Z</time>
      </trkpt>
      <trkpt lat="43.60355" lon="6.328">
        <ele>706.8</ele>
      </trkpt>
      <trkpt lat="43.60349" lon="6.328">
        <ele>706.7</ele>
        <time>2023-09-20T09:09:31Z</time>
      </trkpt>
      <trkpt lat="43.60344" lon="6.328">
        <ele>706.7</ele>
      </trkpt>
      <trkpt lat="43.60338" lon="6.328">
        <ele>706.6</ele>
        <time>2023-09-20T09:09:40Z</time>
      </trkpt>
      <trkpt lat="43.60333" lon="6.32799">
        <ele>706.5</ele>
      </trkpt>
      <trkpt lat="43.60327" lon="6.32797">
        <ele>706.2</ele>
        <time>2023-09-20T09:09:49Z</time>
      </trkpt>
      <trkpt lat="43.60322" lon="6.32795">
        <ele>705.9</ele>
      </trkpt>
      <trkpt lat="43.60317" lon="6.32793">
        <ele>705.6</ele>
        <time>2023-09-20T09:09:58Z</time>
      </trkpt>
      <trkpt lat="43.60312" lon="6.3279">
        <ele>704.9</ele>
      </trkpt>
      <trkpt lat="43.60306" lon="6.32786">
        <ele>704.2</ele>
        <time>2023-09-20T09:10:07Z</time>
      </trkpt>
      <trkpt lat="43.603" lon="6.32786">
        <ele>704</ele>
      </trkpt>
      <trkpt lat="43.60294" lon="6.32786">
        <ele>703.8</ele>
        <time>2023-09-20T09:10:16Z</time>
      </trkpt>
      <trkpt lat="43.60289" lon="6.32786">
        <ele>703.6</ele>
      </trkpt>
      <trkpt lat="43.60284" lon="6.32786">
        <ele>703.4</ele>
        <time>2023-09-20T09:10:25Z</time>
      </trkpt>
      <trkpt lat="43.60279" lon="6.32788">
        <ele>703.4</ele>
      </trkpt>
      <trkpt lat="43.60274" lon="6.32789">
        <ele>703.4</ele>
        <time>2023-09-20T09:10:35Z</time>
      </trkpt>
      <trkpt lat="43.60269" lon="6.32792">
        <ele>703.3</ele>
      </trkpt>
      <trkpt lat="43.60263" lon="6.32794">
        <ele>703.1</ele>
        <time>2023-09-20T09:10:45Z</time>
      </trkpt>
      <trkpt lat="43.60258" lon="6.32798">
        <ele>702.8</ele>
      </trkpt>
      <trkpt lat="43.60253" lon="6.32801">
        <ele>702.4</ele>
        <time>2023-09-20T09:10:57Z</time>
      </trkpt>
      <trkpt lat="43.60249" lon="6.32809">
        <ele>702.1</ele>
      </trkpt>
      <trkpt lat="43.60245" lon="6.32817">
        <ele>702.2</ele>
        <time>2023-09-20T09:11:07Z</time>
      </trkpt>
      <trkpt lat="43.60238" lon="6.3282">
        <ele>701.9</ele>
        <time>2023-09-20T09:11:19Z</time>
      </trkpt>
      <trkpt lat="43.60238" lon="6.32819">
        <ele>701.8</ele>
        <time>2023-09-20T09:11:22Z</time>
      </trkpt>
    </trkseg>
  </trk>
  <trk>
    <name><![CDATA[Saint Pierre de Tourtour_2]]></name>
    <extensions>
      <line xmlns="http://www.topografix.com/GPX/gpx_style/0/2">
        <color>ff0000</color>
        <opacity>1</opacity>
        <width>4</width>
      </line>
    </extensions>
    <trkseg>
      <trkpt lat="43.60591" lon="6.30791">
        <ele>697.8</ele>
      </trkpt>
      <trkpt lat="43.60596" lon="6.30779">
        <ele>697.5</ele>
      </trkpt>
      <trkpt lat="43.606" lon="6.30769">
        <ele>697.3</ele>
      </trkpt>
      <trkpt lat="43.60603" lon="6.30762">
        <ele>697.1</ele>
      </trkpt>
      <trkpt lat="43.60609" lon="6.30753">
        <ele>697</ele>
      </trkpt>
      <trkpt lat="43.6061" lon="6.3075">
        <ele>697</ele>
      </trkpt>
      <trkpt lat="43.60612" lon="6.30743">
        <ele>696.8</ele>
      </trkpt>
      <trkpt lat="43.60612" lon="6.30737">
        <ele>696.6</ele>
      </trkpt>
      <trkpt lat="43.60615" lon="6.3073">
        <ele>696.5</ele>
      </trkpt>
      <trkpt lat="43.60618" lon="6.30719">
        <ele>696.1</ele>
      </trkpt>
      <trkpt lat="43.60621" lon="6.30703">
        <ele>695.7</ele>
      </trkpt>
      <trkpt lat="43.60621" lon="6.30698">
        <ele>695.5</ele>
        <extensions>
          <visugpx:TrkExtension xmlns:visugpx="https://www.visugpx.com/editgpx/">
            <visugpx:node>25</visugpx:node>
            </visugpx:TrkExtension>
        </extensions>
      </trkpt>
      <trkpt lat="43.60621" lon="6.30691">
        <ele>695.3</ele>
      </trkpt>
      <trkpt lat="43.60621" lon="6.30684">
        <ele>695.3</ele>
      </trkpt>
      <trkpt lat="43.60624" lon="6.3068">
        <ele>695.3</ele>
      </trkpt>
      <trkpt lat="43.60635" lon="6.30671">
        <ele>694.5</ele>
      </trkpt>
      <trkpt lat="43.60644" lon="6.30667">
        <ele>694.2</ele>
      </trkpt>
      <trkpt lat="43.6065" lon="6.30659">
        <ele>694.3</ele>
      </trkpt>
      <trkpt lat="43.60664" lon="6.3064">
        <ele>693.3</ele>
      </trkpt>
      <trkpt lat="43.60679" lon="6.3061">
        <ele>693.5</ele>
      </trkpt>
      <trkpt lat="43.60681" lon="6.30604">
        <ele>693.4</ele>
      </trkpt>
      <trkpt lat="43.60683" lon="6.306">
        <ele>693.2</ele>
      </trkpt>
      <trkpt lat="43.60687" lon="6.30594">
        <ele>692.8</ele>
      </trkpt>
      <trkpt lat="43.6069" lon="6.30582">
        <ele>692.3</ele>
      </trkpt>
      <trkpt lat="43.60694" lon="6.30557">
        <ele>691.1</ele>
      </trkpt>
      <trkpt lat="43.60697" lon="6.30544">
        <ele>691.5</ele>
      </trkpt>
      <trkpt lat="43.60703" lon="6.30534">
        <ele>691.7</ele>
      </trkpt>
      <trkpt lat="43.60708" lon="6.30524">
        <ele>691.5</ele>
      </trkpt>
      <trkpt lat="43.60716" lon="6.30515">
        <ele>691</ele>
      </trkpt>
      <trkpt lat="43.60725" lon="6.305">
        <ele>690.1</ele>
      </trkpt>
      <trkpt lat="43.6073" lon="6.30491">
        <ele>690.4</ele>
      </trkpt>
      <trkpt lat="43.6074" lon="6.30466">
        <ele>690.3</ele>
      </trkpt>
      <trkpt lat="43.60746" lon="6.30454">
        <ele>689.7</ele>
      </trkpt>
      <trkpt lat="43.60751" lon="6.30446">
        <ele>689.1</ele>
      </trkpt>
      <trkpt lat="43.60758" lon="6.30438">
        <ele>689.9</ele>
      </trkpt>
      <trkpt lat="43.60765" lon="6.30434">
        <ele>690</ele>
      </trkpt>
      <trkpt lat="43.60772" lon="6.30426">
        <ele>689.4</ele>
      </trkpt>
      <trkpt lat="43.60779" lon="6.30412">
        <ele>688.9</ele>
      </trkpt>
      <trkpt lat="43.60789" lon="6.30393">
        <ele>691.8</ele>
      </trkpt>
      <trkpt lat="43.60794" lon="6.30375">
        <ele>691.2</ele>
      </trkpt>
      <trkpt lat="43.60796" lon="6.30366">
        <ele>690.4</ele>
      </trkpt>
      <trkpt lat="43.60799" lon="6.30359">
        <ele>689.5</ele>
      </trkpt>
      <trkpt lat="43.60804" lon="6.30353">
        <ele>688.6</ele>
      </trkpt>
      <trkpt lat="43.6082" lon="6.30333">
        <ele>689</ele>
      </trkpt>
      <trkpt lat="43.60833" lon="6.30312">
        <ele>686</ele>
      </trkpt>
      <trkpt lat="43.60842" lon="6.30292">
        <ele>688.2</ele>
      </trkpt>
      <trkpt lat="43.60844" lon="6.30281">
        <ele>689</ele>
      </trkpt>
      <trkpt lat="43.60848" lon="6.30226">
        <ele>687.7</ele>
      </trkpt>
      <trkpt lat="43.60849" lon="6.30219">
        <ele>687.4</ele>
      </trkpt>
      <trkpt lat="43.6085" lon="6.30211">
        <ele>687.2</ele>
      </trkpt>
      <trkpt lat="43.60852" lon="6.30192">
        <ele>686.6</ele>
      </trkpt>
      <trkpt lat="43.60853" lon="6.30171">
        <ele>685.9</ele>
      </trkpt>
      <trkpt lat="43.60856" lon="6.30141">
        <ele>683.4</ele>
      </trkpt>
      <trkpt lat="43.60857" lon="6.30126">
        <ele>682.7</ele>
      </trkpt>
      <trkpt lat="43.6086" lon="6.30116">
        <ele>681.5</ele>
      </trkpt>
      <trkpt lat="43.60863" lon="6.3011">
        <ele>681.3</ele>
      </trkpt>
      <trkpt lat="43.60866" lon="6.30099">
        <ele>681.7</ele>
      </trkpt>
      <trkpt lat="43.60868" lon="6.30087">
        <ele>681.8</ele>
      </trkpt>
      <trkpt lat="43.60873" lon="6.30079">
        <ele>682.7</ele>
      </trkpt>
      <trkpt lat="43.6088" lon="6.30067">
        <ele>682.5</ele>
      </trkpt>
      <trkpt lat="43.60891" lon="6.30053">
        <ele>679.6</ele>
      </trkpt>
      <trkpt lat="43.60906" lon="6.30039">
        <ele>679.5</ele>
      </trkpt>
      <trkpt lat="43.60918" lon="6.3003">
        <ele>676.5</ele>
      </trkpt>
      <trkpt lat="43.60922" lon="6.30028">
        <ele>677.7</ele>
      </trkpt>
      <trkpt lat="43.60926" lon="6.30005">
        <ele>679</ele>
      </trkpt>
      <trkpt lat="43.60919" lon="6.29969">
        <ele>675.4</ele>
      </trkpt>
      <trkpt lat="43.60916" lon="6.2994">
        <ele>676.2</ele>
      </trkpt>
      <trkpt lat="43.60917" lon="6.29908">
        <ele>675.5</ele>
      </trkpt>
      <trkpt lat="43.60915" lon="6.29894">
        <ele>674.5</ele>
      </trkpt>
      <trkpt lat="43.6091" lon="6.29877">
        <ele>675.9</ele>
      </trkpt>
      <trkpt lat="43.609" lon="6.29871">
        <ele>675</ele>
      </trkpt>
      <trkpt lat="43.60881" lon="6.29852">
        <ele>672</ele>
      </trkpt>
      <trkpt lat="43.60863" lon="6.29831">
        <ele>669.6</ele>
      </trkpt>
      <trkpt lat="43.60847" lon="6.29808">
        <ele>670.2</ele>
      </trkpt>
      <trkpt lat="43.60833" lon="6.29803">
        <ele>667.6</ele>
      </trkpt>
      <trkpt lat="43.60821" lon="6.29796">
        <ele>669.5</ele>
      </trkpt>
      <trkpt lat="43.60817" lon="6.29786">
        <ele>669.2</ele>
      </trkpt>
      <trkpt lat="43.60818" lon="6.29774">
        <ele>669</ele>
      </trkpt>
      <trkpt lat="43.6082" lon="6.2975">
        <ele>668.6</ele>
      </trkpt>
      <trkpt lat="43.60817" lon="6.29734">
        <ele>666.9</ele>
      </trkpt>
      <trkpt lat="43.60806" lon="6.29721">
        <ele>662.4</ele>
      </trkpt>
      <trkpt lat="43.60793" lon="6.2971">
        <ele>664</ele>
      </trkpt>
      <trkpt lat="43.60791" lon="6.29706">
        <ele>664</ele>
      </trkpt>
      <trkpt lat="43.60785" lon="6.29685">
        <ele>663.2</ele>
      </trkpt>
      <trkpt lat="43.60773" lon="6.29661">
        <ele>662.9</ele>
      </trkpt>
      <trkpt lat="43.6076" lon="6.29644">
        <ele>663</ele>
      </trkpt>
      <trkpt lat="43.60758" lon="6.29622">
        <ele>661.7</ele>
      </trkpt>
      <trkpt lat="43.60752" lon="6.29573">
        <ele>660.7</ele>
      </trkpt>
      <trkpt lat="43.60738" lon="6.29522">
        <ele>660.1</ele>
      </trkpt>
      <trkpt lat="43.60714" lon="6.29442">
        <ele>657.9</ele>
      </trkpt>
      <trkpt lat="43.60696" lon="6.29411">
        <ele>656.5</ele>
      </trkpt>
      <trkpt lat="43.60677" lon="6.29394">
        <ele>655.7</ele>
      </trkpt>
      <trkpt lat="43.60655" lon="6.29385">
        <ele>653.8</ele>
      </trkpt>
      <trkpt lat="43.60643" lon="6.29377">
        <ele>655.2</ele>
      </trkpt>
      <trkpt lat="43.60632" lon="6.29372">
        <ele>656.2</ele>
      </trkpt>
      <trkpt lat="43.60616" lon="6.29372">
        <ele>655.6</ele>
      </trkpt>
      <trkpt lat="43.60592" lon="6.2937">
        <ele>652.8</ele>
      </trkpt>
      <trkpt lat="43.60583" lon="6.29371">
        <ele>651.3</ele>
      </trkpt>
      <trkpt lat="43.60579" lon="6.29372">
        <ele>651</ele>
      </trkpt>
      <trkpt lat="43.6058" lon="6.29367">
        <ele>651.4</ele>
        <extensions>
          <visugpx:TrkExtension xmlns:visugpx="https://www.visugpx.com/editgpx/">
            <visugpx:node>24</visugpx:node>
            </visugpx:TrkExtension>
        </extensions>
      </trkpt>
      <trkpt lat="43.6058" lon="6.29367">
        <ele>651.4</ele>
      </trkpt>
      <trkpt lat="43.60583" lon="6.2936">
        <ele>651.9</ele>
      </trkpt>
      <trkpt lat="43.60592" lon="6.29351">
        <ele>653.3</ele>
      </trkpt>
      <trkpt lat="43.60602" lon="6.29343">
        <ele>653.9</ele>
      </trkpt>
      <trkpt lat="43.60613" lon="6.29335">
        <ele>653.7</ele>
      </trkpt>
      <trkpt lat="43.60626" lon="6.29326">
        <ele>655.6</ele>
      </trkpt>
      <trkpt lat="43.60631" lon="6.29323">
        <ele>656.2</ele>
      </trkpt>
      <trkpt lat="43.60636" lon="6.29317">
        <ele>656.3</ele>
      </trkpt>
      <trkpt lat="43.6064" lon="6.2931">
        <ele>655.9</ele>
      </trkpt>
      <trkpt lat="43.60644" lon="6.29303">
        <ele>655.9</ele>
      </trkpt>
      <trkpt lat="43.6065" lon="6.29296">
        <ele>656.4</ele>
      </trkpt>
      <trkpt lat="43.60656" lon="6.29293">
        <ele>657</ele>
      </trkpt>
      <trkpt lat="43.60662" lon="6.29289">
        <ele>657.2</ele>
      </trkpt>
      <trkpt lat="43.60669" lon="6.29288">
        <ele>657.8</ele>
      </trkpt>
      <trkpt lat="43.60678" lon="6.29285">
        <ele>658.5</ele>
      </trkpt>
      <trkpt lat="43.60685" lon="6.29279">
        <ele>658.2</ele>
      </trkpt>
      <trkpt lat="43.60691" lon="6.29269">
        <ele>658.1</ele>
      </trkpt>
      <trkpt lat="43.60697" lon="6.29257">
        <ele>658</ele>
      </trkpt>
      <trkpt lat="43.60703" lon="6.29245">
        <ele>658.1</ele>
      </trkpt>
      <trkpt lat="43.60707" lon="6.29237">
        <ele>658.4</ele>
      </trkpt>
      <trkpt lat="43.6071" lon="6.29233">
        <ele>658.6</ele>
      </trkpt>
      <trkpt lat="43.60714" lon="6.29232">
        <ele>658.9</ele>
      </trkpt>
      <trkpt lat="43.60718" lon="6.2923">
        <ele>659.2</ele>
      </trkpt>
      <trkpt lat="43.60718" lon="6.29234">
        <ele>659.4</ele>
      </trkpt>
      <trkpt lat="43.60719" lon="6.29237">
        <ele>659.7</ele>
      </trkpt>
      <trkpt lat="43.60718" lon="6.29241">
        <ele>659.8</ele>
      </trkpt>
      <trkpt lat="43.60715" lon="6.29246">
        <ele>659.7</ele>
      </trkpt>
      <trkpt lat="43.60709" lon="6.29253">
        <ele>659.5</ele>
      </trkpt>
      <trkpt lat="43.60706" lon="6.2926">
        <ele>660</ele>
      </trkpt>
      <trkpt lat="43.60704" lon="6.2927">
        <ele>660.8</ele>
      </trkpt>
      <trkpt lat="43.60699" lon="6.29292">
        <ele>663.4</ele>
      </trkpt>
      <trkpt lat="43.60694" lon="6.29309">
        <ele>665.4</ele>
      </trkpt>
      <trkpt lat="43.60692" lon="6.29318">
        <ele>666.5</ele>
      </trkpt>
      <trkpt lat="43.60693" lon="6.29325">
        <ele>667.7</ele>
      </trkpt>
      <trkpt lat="43.60695" lon="6.29329">
        <ele>668.5</ele>
      </trkpt>
      <trkpt lat="43.60699" lon="6.29332">
        <ele>669.3</ele>
      </trkpt>
      <trkpt lat="43.60707" lon="6.29335">
        <ele>670.2</ele>
      </trkpt>
      <trkpt lat="43.60714" lon="6.29335">
        <ele>670.9</ele>
      </trkpt>
      <trkpt lat="43.60722" lon="6.29335">
        <ele>671.6</ele>
      </trkpt>
      <trkpt lat="43.60729" lon="6.29332">
        <ele>671.9</ele>
      </trkpt>
      <trkpt lat="43.60735" lon="6.29329">
        <ele>672</ele>
      </trkpt>
      <trkpt lat="43.60741" lon="6.29323">
        <ele>672.7</ele>
      </trkpt>
      <trkpt lat="43.60744" lon="6.29317">
        <ele>673.6</ele>
      </trkpt>
      <trkpt lat="43.6075" lon="6.29311">
        <ele>675</ele>
      </trkpt>
      <trkpt lat="43.60756" lon="6.29307">
        <ele>675.8</ele>
      </trkpt>
      <trkpt lat="43.60761" lon="6.29302">
        <ele>676</ele>
      </trkpt>
      <trkpt lat="43.60765" lon="6.29298">
        <ele>676</ele>
      </trkpt>
      <trkpt lat="43.60769" lon="6.29295">
        <ele>676.1</ele>
      </trkpt>
      <trkpt lat="43.60775" lon="6.29292">
        <ele>676.4</ele>
      </trkpt>
      <trkpt lat="43.60783" lon="6.29293">
        <ele>676.5</ele>
      </trkpt>
      <trkpt lat="43.60789" lon="6.29295">
        <ele>676.4</ele>
      </trkpt>
      <trkpt lat="43.60795" lon="6.29297">
        <ele>676.3</ele>
      </trkpt>
      <trkpt lat="43.608" lon="6.29297">
        <ele>676.2</ele>
      </trkpt>
      <trkpt lat="43.60806" lon="6.29296">
        <ele>676.4</ele>
      </trkpt>
      <trkpt lat="43.60812" lon="6.29293">
        <ele>677.1</ele>
      </trkpt>
      <trkpt lat="43.60818" lon="6.29293">
        <ele>677.3</ele>
      </trkpt>
      <trkpt lat="43.60822" lon="6.29294">
        <ele>677.4</ele>
      </trkpt>
      <trkpt lat="43.60825" lon="6.29298">
        <ele>677.1</ele>
      </trkpt>
      <trkpt lat="43.60826" lon="6.29302">
        <ele>676.8</ele>
      </trkpt>
      <trkpt lat="43.60827" lon="6.29311">
        <ele>676.8</ele>
      </trkpt>
      <trkpt lat="43.60826" lon="6.29317">
        <ele>677.1</ele>
      </trkpt>
      <trkpt lat="43.60823" lon="6.29327">
        <ele>677.2</ele>
      </trkpt>
      <trkpt lat="43.60819" lon="6.29335">
        <ele>677.1</ele>
      </trkpt>
      <trkpt lat="43.60815" lon="6.29341">
        <ele>677.1</ele>
      </trkpt>
      <trkpt lat="43.60811" lon="6.29343">
        <ele>676.8</ele>
      </trkpt>
      <trkpt lat="43.60806" lon="6.29344">
        <ele>676.2</ele>
      </trkpt>
      <trkpt lat="43.60799" lon="6.29346">
        <ele>675.6</ele>
      </trkpt>
      <trkpt lat="43.60795" lon="6.29348">
        <ele>675.2</ele>
      </trkpt>
      <trkpt lat="43.60793" lon="6.29352">
        <ele>675.4</ele>
      </trkpt>
      <trkpt lat="43.60791" lon="6.29358">
        <ele>675.6</ele>
      </trkpt>
      <trkpt lat="43.6079" lon="6.29369">
        <ele>675.9</ele>
      </trkpt>
      <trkpt lat="43.6079" lon="6.29386">
        <ele>676.2</ele>
      </trkpt>
      <trkpt lat="43.60788" lon="6.29397">
        <ele>675.8</ele>
      </trkpt>
      <trkpt lat="43.60788" lon="6.29405">
        <ele>675.7</ele>
      </trkpt>
      <trkpt lat="43.60791" lon="6.29411">
        <ele>675.7</ele>
      </trkpt>
      <trkpt lat="43.60797" lon="6.2942">
        <ele>674.7</ele>
      </trkpt>
      <trkpt lat="43.60802" lon="6.29432">
        <ele>672.6</ele>
      </trkpt>
      <trkpt lat="43.60806" lon="6.29443">
        <ele>671.3</ele>
      </trkpt>
      <trkpt lat="43.6081" lon="6.29452">
        <ele>671.2</ele>
      </trkpt>
      <trkpt lat="43.60815" lon="6.2946">
        <ele>671.2</ele>
      </trkpt>
      <trkpt lat="43.60819" lon="6.29466">
        <ele>671.1</ele>
      </trkpt>
      <trkpt lat="43.6082" lon="6.29472">
        <ele>670.6</ele>
      </trkpt>
      <trkpt lat="43.6082" lon="6.29473">
        <ele>670.7</ele>
      </trkpt>
      <trkpt lat="43.6082" lon="6.29479">
        <ele>671.5</ele>
      </trkpt>
      <trkpt lat="43.60819" lon="6.29483">
        <ele>672</ele>
      </trkpt>
      <trkpt lat="43.60816" lon="6.29487">
        <ele>672.4</ele>
      </trkpt>
      <trkpt lat="43.6081" lon="6.29489">
        <ele>672.3</ele>
      </trkpt>
      <trkpt lat="43.60806" lon="6.2949">
        <ele>672.2</ele>
      </trkpt>
      <trkpt lat="43.60803" lon="6.29492">
        <ele>672.8</ele>
      </trkpt>
      <trkpt lat="43.60801" lon="6.29497">
        <ele>674.1</ele>
      </trkpt>
      <trkpt lat="43.60801" lon="6.29504">
        <ele>674.8</ele>
      </trkpt>
      <trkpt lat="43.60801" lon="6.2951">
        <ele>675.1</ele>
      </trkpt>
      <trkpt lat="43.60803" lon="6.29518">
        <ele>675.4</ele>
      </trkpt>
      <trkpt lat="43.60807" lon="6.29524">
        <ele>675.8</ele>
      </trkpt>
      <trkpt lat="43.60809" lon="6.29531">
        <ele>676.4</ele>
      </trkpt>
      <trkpt lat="43.6081" lon="6.29541">
        <ele>676.8</ele>
      </trkpt>
      <trkpt lat="43.60811" lon="6.29553">
        <ele>677.3</ele>
      </trkpt>
      <trkpt lat="43.60812" lon="6.29558">
        <ele>677.3</ele>
      </trkpt>
      <trkpt lat="43.60814" lon="6.29563">
        <ele>677.2</ele>
      </trkpt>
      <trkpt lat="43.60822" lon="6.29574">
        <ele>677.2</ele>
      </trkpt>
      <trkpt lat="43.60827" lon="6.29584">
        <ele>677.3</ele>
      </trkpt>
      <trkpt lat="43.60834" lon="6.29589">
        <ele>677.9</ele>
      </trkpt>
      <trkpt lat="43.60838" lon="6.29594">
        <ele>678.2</ele>
      </trkpt>
      <trkpt lat="43.6084" lon="6.29599">
        <ele>678.3</ele>
      </trkpt>
      <trkpt lat="43.60839" lon="6.29605">
        <ele>678</ele>
      </trkpt>
      <trkpt lat="43.60838" lon="6.29608">
        <ele>677.8</ele>
      </trkpt>
      <trkpt lat="43.60835" lon="6.29611">
        <ele>677.2</ele>
      </trkpt>
      <trkpt lat="43.6083" lon="6.29615">
        <ele>676.9</ele>
      </trkpt>
      <trkpt lat="43.60824" lon="6.2962">
        <ele>676.7</ele>
      </trkpt>
      <trkpt lat="43.60819" lon="6.29628">
        <ele>677</ele>
      </trkpt>
      <trkpt lat="43.60817" lon="6.29636">
        <ele>677.6</ele>
      </trkpt>
      <trkpt lat="43.60816" lon="6.29641">
        <ele>677.5</ele>
      </trkpt>
      <trkpt lat="43.60817" lon="6.29645">
        <ele>677</ele>
      </trkpt>
      <trkpt lat="43.6082" lon="6.29649">
        <ele>676.8</ele>
      </trkpt>
      <trkpt lat="43.60828" lon="6.29655">
        <ele>677.1</ele>
      </trkpt>
      <trkpt lat="43.60845" lon="6.29668">
        <ele>678.5</ele>
      </trkpt>
      <trkpt lat="43.60851" lon="6.29669">
        <ele>679.2</ele>
      </trkpt>
      <trkpt lat="43.60858" lon="6.29669">
        <ele>680.2</ele>
      </trkpt>
      <trkpt lat="43.60868" lon="6.29667">
        <ele>681.2</ele>
      </trkpt>
      <trkpt lat="43.60875" lon="6.29666">
        <ele>681.6</ele>
      </trkpt>
      <trkpt lat="43.60879" lon="6.29666">
        <ele>681.7</ele>
      </trkpt>
      <trkpt lat="43.60883" lon="6.29668">
        <ele>681.7</ele>
      </trkpt>
      <trkpt lat="43.60887" lon="6.29672">
        <ele>681.9</ele>
      </trkpt>
      <trkpt lat="43.60889" lon="6.29679">
        <ele>682</ele>
      </trkpt>
      <trkpt lat="43.60892" lon="6.29685">
        <ele>682.5</ele>
      </trkpt>
      <trkpt lat="43.60895" lon="6.29689">
        <ele>682.9</ele>
      </trkpt>
      <trkpt lat="43.60905" lon="6.29691">
        <ele>684.4</ele>
      </trkpt>
      <trkpt lat="43.60913" lon="6.29695">
        <ele>685.5</ele>
      </trkpt>
      <trkpt lat="43.60922" lon="6.29698">
        <ele>686.7</ele>
      </trkpt>
      <trkpt lat="43.60926" lon="6.297">
        <ele>687.1</ele>
      </trkpt>
      <trkpt lat="43.60932" lon="6.29703">
        <ele>687.8</ele>
      </trkpt>
      <trkpt lat="43.6094" lon="6.29709">
        <ele>688.6</ele>
      </trkpt>
      <trkpt lat="43.60946" lon="6.29717">
        <ele>689.1</ele>
      </trkpt>
      <trkpt lat="43.60954" lon="6.29722">
        <ele>689.7</ele>
      </trkpt>
      <trkpt lat="43.6096" lon="6.29725">
        <ele>690</ele>
      </trkpt>
      <trkpt lat="43.60965" lon="6.29727">
        <ele>690.2</ele>
      </trkpt>
      <trkpt lat="43.60968" lon="6.29728">
        <ele>690.3</ele>
      </trkpt>
      <trkpt lat="43.6097" lon="6.29728">
        <ele>690.5</ele>
        <extensions>
          <visugpx:TrkExtension xmlns:visugpx="https://www.visugpx.com/editgpx/">
            <visugpx:node>23</visugpx:node>
            </visugpx:TrkExtension>
        </extensions>
      </trkpt>
      <trkpt lat="43.60972" lon="6.29728">
        <ele>690.6</ele>
      </trkpt>
      <trkpt lat="43.60975" lon="6.29732">
        <ele>690.4</ele>
      </trkpt>
      <trkpt lat="43.6098" lon="6.29734">
        <ele>690.4</ele>
      </trkpt>
      <trkpt lat="43.60992" lon="6.29736">
        <ele>690.4</ele>
      </trkpt>
      <trkpt lat="43.61016" lon="6.29742">
        <ele>688.6</ele>
      </trkpt>
      <trkpt lat="43.61034" lon="6.29746">
        <ele>687.3</ele>
      </trkpt>
      <trkpt lat="43.61038" lon="6.29748">
        <ele>687.1</ele>
      </trkpt>
      <trkpt lat="43.61042" lon="6.29754">
        <ele>687.2</ele>
      </trkpt>
      <trkpt lat="43.61043" lon="6.29761">
        <ele>687.8</ele>
      </trkpt>
      <trkpt lat="43.61042" lon="6.2977">
        <ele>688.1</ele>
      </trkpt>
      <trkpt lat="43.61038" lon="6.2978">
        <ele>688.1</ele>
      </trkpt>
      <trkpt lat="43.61026" lon="6.29799">
        <ele>689.6</ele>
      </trkpt>
      <trkpt lat="43.61017" lon="6.29816">
        <ele>692.2</ele>
      </trkpt>
      <trkpt lat="43.61015" lon="6.29824">
        <ele>692.8</ele>
      </trkpt>
      <trkpt lat="43.61017" lon="6.29834">
        <ele>694</ele>
      </trkpt>
      <trkpt lat="43.61021" lon="6.29844">
        <ele>694.1</ele>
      </trkpt>
      <trkpt lat="43.61028" lon="6.2985">
        <ele>694.8</ele>
      </trkpt>
      <trkpt lat="43.61032" lon="6.29854">
        <ele>694.9</ele>
      </trkpt>
      <trkpt lat="43.61034" lon="6.29861">
        <ele>694.7</ele>
      </trkpt>
      <trkpt lat="43.61034" lon="6.29871">
        <ele>695.3</ele>
      </trkpt>
      <trkpt lat="43.61033" lon="6.29879">
        <ele>695.7</ele>
      </trkpt>
      <trkpt lat="43.61028" lon="6.29888">
        <ele>695</ele>
      </trkpt>
      <trkpt lat="43.61022" lon="6.29897">
        <ele>694.8</ele>
      </trkpt>
      <trkpt lat="43.61019" lon="6.29903">
        <ele>695</ele>
      </trkpt>
      <trkpt lat="43.61016" lon="6.29913">
        <ele>695.9</ele>
      </trkpt>
      <trkpt lat="43.61014" lon="6.29925">
        <ele>697.1</ele>
      </trkpt>
      <trkpt lat="43.61012" lon="6.29935">
        <ele>698</ele>
      </trkpt>
      <trkpt lat="43.61007" lon="6.29943">
        <ele>698.5</ele>
      </trkpt>
      <trkpt lat="43.61004" lon="6.29948">
        <ele>698.3</ele>
      </trkpt>
      <trkpt lat="43.60998" lon="6.29958">
        <ele>697.4</ele>
      </trkpt>
      <trkpt lat="43.60996" lon="6.29965">
        <ele>697</ele>
      </trkpt>
      <trkpt lat="43.60997" lon="6.29974">
        <ele>696.8</ele>
      </trkpt>
      <trkpt lat="43.61002" lon="6.29985">
        <ele>696.2</ele>
      </trkpt>
      <trkpt lat="43.61008" lon="6.29996">
        <ele>695.9</ele>
      </trkpt>
      <trkpt lat="43.61014" lon="6.3">
        <ele>696</ele>
      </trkpt>
      <trkpt lat="43.61016" lon="6.30002">
        <ele>696</ele>
      </trkpt>
      <trkpt lat="43.6102" lon="6.3001">
        <ele>695.6</ele>
      </trkpt>
      <trkpt lat="43.61023" lon="6.30026">
        <ele>694.6</ele>
      </trkpt>
      <trkpt lat="43.61026" lon="6.30037">
        <ele>694.5</ele>
      </trkpt>
      <trkpt lat="43.61033" lon="6.30051">
        <ele>694.9</ele>
      </trkpt>
      <trkpt lat="43.61039" lon="6.30066">
        <ele>694.7</ele>
      </trkpt>
      <trkpt lat="43.61042" lon="6.30074">
        <ele>694.4</ele>
      </trkpt>
      <trkpt lat="43.61042" lon="6.3008">
        <ele>693.8</ele>
      </trkpt>
      <trkpt lat="43.61039" lon="6.30085">
        <ele>693.4</ele>
      </trkpt>
      <trkpt lat="43.61036" lon="6.3009">
        <ele>693.5</ele>
      </trkpt>
      <trkpt lat="43.61034" lon="6.30104">
        <ele>694.5</ele>
      </trkpt>
      <trkpt lat="43.61035" lon="6.30111">
        <ele>695.3</ele>
      </trkpt>
      <trkpt lat="43.61037" lon="6.30122">
        <ele>696.1</ele>
      </trkpt>
      <trkpt lat="43.61041" lon="6.30132">
        <ele>697.1</ele>
      </trkpt>
      <trkpt lat="43.61042" lon="6.30142">
        <ele>697.5</ele>
      </trkpt>
      <trkpt lat="43.61044" lon="6.3015">
        <ele>697.7</ele>
      </trkpt>
      <trkpt lat="43.61048" lon="6.30155">
        <ele>698.2</ele>
      </trkpt>
      <trkpt lat="43.61054" lon="6.30161">
        <ele>699</ele>
      </trkpt>
      <trkpt lat="43.6106" lon="6.30166">
        <ele>699.7</ele>
      </trkpt>
      <trkpt lat="43.61064" lon="6.30173">
        <ele>700.2</ele>
      </trkpt>
      <trkpt lat="43.61066" lon="6.30181">
        <ele>700.5</ele>
      </trkpt>
      <trkpt lat="43.61065" lon="6.30199">
        <ele>700.3</ele>
      </trkpt>
      <trkpt lat="43.61065" lon="6.30213">
        <ele>699.9</ele>
      </trkpt>
      <trkpt lat="43.61066" lon="6.30222">
        <ele>699.9</ele>
      </trkpt>
      <trkpt lat="43.61069" lon="6.30231">
        <ele>699.5</ele>
      </trkpt>
      <trkpt lat="43.61072" lon="6.30239">
        <ele>699</ele>
      </trkpt>
      <trkpt lat="43.61081" lon="6.30253">
        <ele>698.3</ele>
      </trkpt>
      <trkpt lat="43.61085" lon="6.30262">
        <ele>697.5</ele>
      </trkpt>
      <trkpt lat="43.6109" lon="6.30274">
        <ele>695.9</ele>
      </trkpt>
      <trkpt lat="43.61093" lon="6.30278">
        <ele>695.4</ele>
      </trkpt>
      <trkpt lat="43.61096" lon="6.30282">
        <ele>695.8</ele>
      </trkpt>
      <trkpt lat="43.61097" lon="6.30289">
        <ele>696.5</ele>
      </trkpt>
      <trkpt lat="43.61097" lon="6.30295">
        <ele>697</ele>
      </trkpt>
      <trkpt lat="43.61095" lon="6.30299">
        <ele>697.1</ele>
      </trkpt>
      <trkpt lat="43.61086" lon="6.30309">
        <ele>696.9</ele>
      </trkpt>
      <trkpt lat="43.61082" lon="6.30318">
        <ele>697.5</ele>
      </trkpt>
      <trkpt lat="43.61081" lon="6.30327">
        <ele>698.5</ele>
      </trkpt>
      <trkpt lat="43.61081" lon="6.30338">
        <ele>699.2</ele>
      </trkpt>
      <trkpt lat="43.61084" lon="6.3035">
        <ele>699.5</ele>
      </trkpt>
      <trkpt lat="43.6109" lon="6.30357">
        <ele>699.7</ele>
      </trkpt>
      <trkpt lat="43.61098" lon="6.30365">
        <ele>699.6</ele>
      </trkpt>
      <trkpt lat="43.61107" lon="6.30372">
        <ele>699.5</ele>
      </trkpt>
      <trkpt lat="43.61116" lon="6.30382">
        <ele>699.1</ele>
      </trkpt>
      <trkpt lat="43.61124" lon="6.30389">
        <ele>698.9</ele>
      </trkpt>
      <trkpt lat="43.61129" lon="6.30395">
        <ele>699.1</ele>
      </trkpt>
      <trkpt lat="43.61132" lon="6.30403">
        <ele>699</ele>
      </trkpt>
      <trkpt lat="43.61132" lon="6.3041">
        <ele>698.7</ele>
      </trkpt>
      <trkpt lat="43.61131" lon="6.30419">
        <ele>698.6</ele>
      </trkpt>
      <trkpt lat="43.6113" lon="6.30435">
        <ele>699.5</ele>
      </trkpt>
      <trkpt lat="43.61129" lon="6.30466">
        <ele>699.9</ele>
      </trkpt>
      <trkpt lat="43.61128" lon="6.30495">
        <ele>699.5</ele>
      </trkpt>
      <trkpt lat="43.61127" lon="6.30501">
        <ele>699.3</ele>
      </trkpt>
      <trkpt lat="43.61124" lon="6.3051">
        <ele>699.4</ele>
      </trkpt>
      <trkpt lat="43.61123" lon="6.30518">
        <ele>699.7</ele>
      </trkpt>
      <trkpt lat="43.61122" lon="6.3053">
        <ele>700.2</ele>
      </trkpt>
      <trkpt lat="43.61123" lon="6.30543">
        <ele>700.5</ele>
      </trkpt>
      <trkpt lat="43.61125" lon="6.30554">
        <ele>701</ele>
      </trkpt>
      <trkpt lat="43.61129" lon="6.30571">
        <ele>701.2</ele>
      </trkpt>
      <trkpt lat="43.61132" lon="6.30584">
        <ele>701.5</ele>
      </trkpt>
      <trkpt lat="43.61142" lon="6.30612">
        <ele>701.5</ele>
      </trkpt>
      <trkpt lat="43.61146" lon="6.30624">
        <ele>701</ele>
      </trkpt>
      <trkpt lat="43.61148" lon="6.30646">
        <ele>699.7</ele>
      </trkpt>
      <trkpt lat="43.61151" lon="6.30659">
        <ele>699.7</ele>
      </trkpt>
      <trkpt lat="43.61153" lon="6.30664">
        <ele>699.7</ele>
      </trkpt>
      <trkpt lat="43.61157" lon="6.30676">
        <ele>699.7</ele>
      </trkpt>
      <trkpt lat="43.61163" lon="6.30694">
        <ele>699.7</ele>
      </trkpt>
      <trkpt lat="43.61166" lon="6.30701">
        <ele>699.7</ele>
      </trkpt>
      <trkpt lat="43.61173" lon="6.30707">
        <ele>700.2</ele>
      </trkpt>
      <trkpt lat="43.61182" lon="6.30713">
        <ele>701</ele>
      </trkpt>
      <trkpt lat="43.61191" lon="6.30717">
        <ele>701.8</ele>
      </trkpt>
      <trkpt lat="43.61205" lon="6.30726">
        <ele>703</ele>
      </trkpt>
      <trkpt lat="43.61213" lon="6.3073">
        <ele>703.7</ele>
      </trkpt>
      <trkpt lat="43.61219" lon="6.3073">
        <ele>704.4</ele>
      </trkpt>
      <trkpt lat="43.61229" lon="6.30729">
        <ele>705.5</ele>
      </trkpt>
      <trkpt lat="43.6124" lon="6.30728">
        <ele>706.7</ele>
      </trkpt>
      <trkpt lat="43.61252" lon="6.3073">
        <ele>708</ele>
      </trkpt>
      <trkpt lat="43.61265" lon="6.30734">
        <ele>709.4</ele>
      </trkpt>
      <trkpt lat="43.61275" lon="6.30738">
        <ele>710.6</ele>
      </trkpt>
      <trkpt lat="43.61284" lon="6.30744">
        <ele>711.3</ele>
      </trkpt>
      <trkpt lat="43.61298" lon="6.30755">
        <ele>711.4</ele>
      </trkpt>
      <trkpt lat="43.61307" lon="6.30764">
        <ele>711.1</ele>
      </trkpt>
      <trkpt lat="43.61311" lon="6.3077">
        <ele>711.1</ele>
      </trkpt>
      <trkpt lat="43.61316" lon="6.30777">
        <ele>711.2</ele>
      </trkpt>
      <trkpt lat="43.61322" lon="6.30785">
        <ele>710.8</ele>
      </trkpt>
      <trkpt lat="43.61328" lon="6.3079">
        <ele>710.7</ele>
      </trkpt>
      <trkpt lat="43.61338" lon="6.30794">
        <ele>711</ele>
      </trkpt>
      <trkpt lat="43.61343" lon="6.30797">
        <ele>711</ele>
      </trkpt>
      <trkpt lat="43.61346" lon="6.30803">
        <ele>710.6</ele>
      </trkpt>
      <trkpt lat="43.61348" lon="6.30809">
        <ele>710.8</ele>
      </trkpt>
      <trkpt lat="43.61348" lon="6.30816">
        <ele>711.1</ele>
      </trkpt>
      <trkpt lat="43.61345" lon="6.30823">
        <ele>711.3</ele>
      </trkpt>
      <trkpt lat="43.6134" lon="6.30837">
        <ele>711.7</ele>
      </trkpt>
      <trkpt lat="43.61339" lon="6.30844">
        <ele>712.2</ele>
      </trkpt>
      <trkpt lat="43.6134" lon="6.30853">
        <ele>712.9</ele>
      </trkpt>
      <trkpt lat="43.61343" lon="6.30871">
        <ele>713.3</ele>
      </trkpt>
      <trkpt lat="43.61346" lon="6.3088">
        <ele>713.2</ele>
      </trkpt>
      <trkpt lat="43.61351" lon="6.30888">
        <ele>713.3</ele>
      </trkpt>
      <trkpt lat="43.61357" lon="6.30892">
        <ele>713.6</ele>
      </trkpt>
      <trkpt lat="43.61362" lon="6.30893">
        <ele>713.9</ele>
      </trkpt>
      <trkpt lat="43.61373" lon="6.30895">
        <ele>714.5</ele>
      </trkpt>
      <trkpt lat="43.6138" lon="6.30898">
        <ele>714.8</ele>
      </trkpt>
    </trkseg>
  </trk>
  <trk>
    <name><![CDATA[Saint Pierre de Tourtour_3]]></name>
    <extensions>
      <line xmlns="http://www.topografix.com/GPX/gpx_style/0/2">
        <color>00ff00</color>
        <opacity>1</opacity>
        <width>4</width>
      </line>
    </extensions>
    <trkseg>
      <trkpt lat="43.61437" lon="6.31412">
        <ele>724.5</ele>
      </trkpt>
      <trkpt lat="43.61436" lon="6.31398">
        <ele>724.4</ele>
      </trkpt>
      <trkpt lat="43.61437" lon="6.31362">
        <ele>723.8</ele>
      </trkpt>
      <trkpt lat="43.61438" lon="6.31341">
        <ele>723.8</ele>
      </trkpt>
      <trkpt lat="43.6144" lon="6.31324">
        <ele>723.5</ele>
      </trkpt>
      <trkpt lat="43.61444" lon="6.31313">
        <ele>723.3</ele>
      </trkpt>
      <trkpt lat="43.6145" lon="6.31307">
        <ele>723.3</ele>
      </trkpt>
      <trkpt lat="43.61455" lon="6.31301">
        <ele>723.5</ele>
      </trkpt>
      <trkpt lat="43.61462" lon="6.31297">
        <ele>723.9</ele>
      </trkpt>
      <trkpt lat="43.61482" lon="6.3129">
        <ele>725.2</ele>
      </trkpt>
      <trkpt lat="43.61491" lon="6.31284">
        <ele>725.8</ele>
      </trkpt>
      <trkpt lat="43.61497" lon="6.31274">
        <ele>726</ele>
      </trkpt>
      <trkpt lat="43.61503" lon="6.31265">
        <ele>726.7</ele>
      </trkpt>
      <trkpt lat="43.61507" lon="6.31253">
        <ele>727.2</ele>
      </trkpt>
      <trkpt lat="43.61509" lon="6.31245">
        <ele>727.3</ele>
      </trkpt>
      <trkpt lat="43.61525" lon="6.31219">
        <ele>727.9</ele>
      </trkpt>
      <trkpt lat="43.61531" lon="6.31213">
        <ele>728.1</ele>
      </trkpt>
      <trkpt lat="43.61532" lon="6.31209">
        <ele>728.2</ele>
        <extensions>
          <visugpx:TrkExtension xmlns:visugpx="https://www.visugpx.com/editgpx/">
            <visugpx:node>17</visugpx:node>
            </visugpx:TrkExtension>
        </extensions>
      </trkpt>
      <trkpt lat="43.61533" lon="6.31207">
        <ele>728.2</ele>
      </trkpt>
      <trkpt lat="43.61534" lon="6.31201">
        <ele>728.2</ele>
      </trkpt>
      <trkpt lat="43.61533" lon="6.31195">
        <ele>728.2</ele>
      </trkpt>
      <trkpt lat="43.61531" lon="6.3117">
        <ele>727.3</ele>
      </trkpt>
      <trkpt lat="43.61528" lon="6.31164">
        <ele>727</ele>
      </trkpt>
      <trkpt lat="43.61524" lon="6.3116">
        <ele>727.1</ele>
      </trkpt>
      <trkpt lat="43.61506" lon="6.31149">
        <ele>726.8</ele>
      </trkpt>
      <trkpt lat="43.61496" lon="6.31142">
        <ele>726.1</ele>
      </trkpt>
      <trkpt lat="43.61487" lon="6.31139">
        <ele>725.5</ele>
      </trkpt>
      <trkpt lat="43.61478" lon="6.31138">
        <ele>725.2</ele>
      </trkpt>
      <trkpt lat="43.61472" lon="6.31138">
        <ele>725</ele>
      </trkpt>
      <trkpt lat="43.61468" lon="6.31136">
        <ele>724.6</ele>
      </trkpt>
      <trkpt lat="43.61465" lon="6.31131">
        <ele>724.3</ele>
      </trkpt>
      <trkpt lat="43.61463" lon="6.31124">
        <ele>724</ele>
      </trkpt>
      <trkpt lat="43.61464" lon="6.31116">
        <ele>723.8</ele>
      </trkpt>
      <trkpt lat="43.6147" lon="6.31106">
        <ele>723.6</ele>
      </trkpt>
      <trkpt lat="43.61475" lon="6.31098">
        <ele>723.1</ele>
      </trkpt>
      <trkpt lat="43.61488" lon="6.31086">
        <ele>722.7</ele>
      </trkpt>
      <trkpt lat="43.6149" lon="6.3108">
        <ele>722.6</ele>
      </trkpt>
      <trkpt lat="43.6149" lon="6.31072">
        <ele>722.6</ele>
      </trkpt>
      <trkpt lat="43.61489" lon="6.31065">
        <ele>722.5</ele>
      </trkpt>
      <trkpt lat="43.61484" lon="6.31055">
        <ele>721.7</ele>
      </trkpt>
      <trkpt lat="43.6148" lon="6.3105">
        <ele>721.1</ele>
      </trkpt>
      <trkpt lat="43.61473" lon="6.31047">
        <ele>720.1</ele>
      </trkpt>
      <trkpt lat="43.61451" lon="6.31025">
        <ele>718.7</ele>
      </trkpt>
      <trkpt lat="43.61444" lon="6.31015">
        <ele>718.9</ele>
      </trkpt>
      <trkpt lat="43.61427" lon="6.30991">
        <ele>717.2</ele>
      </trkpt>
      <trkpt lat="43.61415" lon="6.30975">
        <ele>715.8</ele>
      </trkpt>
      <trkpt lat="43.61407" lon="6.30965">
        <ele>715</ele>
      </trkpt>
      <trkpt lat="43.61402" lon="6.30955">
        <ele>714.7</ele>
      </trkpt>
      <trkpt lat="43.61399" lon="6.30946">
        <ele>714.7</ele>
      </trkpt>
      <trkpt lat="43.61397" lon="6.30933">
        <ele>714.5</ele>
        <extensions>
          <visugpx:TrkExtension xmlns:visugpx="https://www.visugpx.com/editgpx/">
            <visugpx:node>18</visugpx:node>
            </visugpx:TrkExtension>
        </extensions>
      </trkpt>
      <trkpt lat="43.61394" lon="6.30921">
        <ele>714.2</ele>
      </trkpt>
      <trkpt lat="43.6139" lon="6.30908">
        <ele>714.7</ele>
      </trkpt>
      <trkpt lat="43.6138" lon="6.30914">
        <ele>713.9</ele>
      </trkpt>
      <trkpt lat="43.61375" lon="6.3091">
        <ele>713.9</ele>
      </trkpt>
      <trkpt lat="43.61363" lon="6.30914">
        <ele>713.2</ele>
      </trkpt>
      <trkpt lat="43.61347" lon="6.30917">
        <ele>712</ele>
      </trkpt>
      <trkpt lat="43.6133" lon="6.3092">
        <ele>710.6</ele>
      </trkpt>
      <trkpt lat="43.61322" lon="6.3092">
        <ele>710.3</ele>
      </trkpt>
      <trkpt lat="43.61317" lon="6.30918">
        <ele>710.3</ele>
      </trkpt>
      <trkpt lat="43.6131" lon="6.30913">
        <ele>710.3</ele>
      </trkpt>
      <trkpt lat="43.61296" lon="6.30902">
        <ele>709.5</ele>
      </trkpt>
      <trkpt lat="43.61288" lon="6.30893">
        <ele>709</ele>
      </trkpt>
      <trkpt lat="43.61275" lon="6.30884">
        <ele>707.6</ele>
      </trkpt>
      <trkpt lat="43.61262" lon="6.30878">
        <ele>705.7</ele>
      </trkpt>
      <trkpt lat="43.61255" lon="6.30876">
        <ele>704.7</ele>
      </trkpt>
      <trkpt lat="43.61252" lon="6.30874">
        <ele>704.3</ele>
      </trkpt>
      <trkpt lat="43.61243" lon="6.30872">
        <ele>705.1</ele>
      </trkpt>
      <trkpt lat="43.61237" lon="6.30873">
        <ele>705.9</ele>
      </trkpt>
      <trkpt lat="43.61231" lon="6.30876">
        <ele>706.7</ele>
      </trkpt>
      <trkpt lat="43.61225" lon="6.30877">
        <ele>707.5</ele>
      </trkpt>
      <trkpt lat="43.61219" lon="6.30876">
        <ele>708.3</ele>
      </trkpt>
      <trkpt lat="43.61213" lon="6.30872">
        <ele>709.1</ele>
      </trkpt>
      <trkpt lat="43.612" lon="6.30865">
        <ele>710</ele>
      </trkpt>
      <trkpt lat="43.61194" lon="6.30863">
        <ele>710.2</ele>
      </trkpt>
      <trkpt lat="43.61187" lon="6.30863">
        <ele>710.7</ele>
      </trkpt>
      <trkpt lat="43.61181" lon="6.30864">
        <ele>711.2</ele>
      </trkpt>
      <trkpt lat="43.61176" lon="6.30864">
        <ele>711.6</ele>
      </trkpt>
      <trkpt lat="43.61168" lon="6.30864">
        <ele>712.2</ele>
      </trkpt>
      <trkpt lat="43.61151" lon="6.30861">
        <ele>713.1</ele>
      </trkpt>
      <trkpt lat="43.61142" lon="6.3086">
        <ele>713.6</ele>
      </trkpt>
      <trkpt lat="43.61138" lon="6.3086">
        <ele>713.8</ele>
      </trkpt>
      <trkpt lat="43.61128" lon="6.30862">
        <ele>713.8</ele>
      </trkpt>
      <trkpt lat="43.61118" lon="6.30864">
        <ele>713.7</ele>
      </trkpt>
      <trkpt lat="43.61106" lon="6.30864">
        <ele>713.7</ele>
      </trkpt>
      <trkpt lat="43.61098" lon="6.30863">
        <ele>714.1</ele>
        <extensions>
          <visugpx:TrkExtension xmlns:visugpx="https://www.visugpx.com/editgpx/">
            <visugpx:node>1</visugpx:node>
            </visugpx:TrkExtension>
        </extensions>
      </trkpt>
      <trkpt lat="43.61094" lon="6.30863">
        <ele>714.4</ele>
      </trkpt>
      <trkpt lat="43.61086" lon="6.3086">
        <ele>714.8</ele>
      </trkpt>
      <trkpt lat="43.61078" lon="6.30853">
        <ele>715.5</ele>
      </trkpt>
      <trkpt lat="43.61072" lon="6.30846">
        <ele>716.3</ele>
      </trkpt>
      <trkpt lat="43.61066" lon="6.30835">
        <ele>717.1</ele>
      </trkpt>
      <trkpt lat="43.61061" lon="6.30822">
        <ele>717.5</ele>
      </trkpt>
      <trkpt lat="43.61055" lon="6.30813">
        <ele>717.6</ele>
      </trkpt>
      <trkpt lat="43.61049" lon="6.30808">
        <ele>717.7</ele>
      </trkpt>
      <trkpt lat="43.61026" lon="6.308">
        <ele>718.6</ele>
      </trkpt>
      <trkpt lat="43.61016" lon="6.30798">
        <ele>719.6</ele>
      </trkpt>
      <trkpt lat="43.6101" lon="6.30797">
        <ele>720.2</ele>
      </trkpt>
      <trkpt lat="43.61004" lon="6.30799">
        <ele>721.1</ele>
      </trkpt>
      <trkpt lat="43.61002" lon="6.30802">
        <ele>721.5</ele>
      </trkpt>
      <trkpt lat="43.60999" lon="6.30811">
        <ele>722</ele>
      </trkpt>
      <trkpt lat="43.60997" lon="6.30824">
        <ele>722.4</ele>
      </trkpt>
      <trkpt lat="43.60996" lon="6.30847">
        <ele>723.8</ele>
      </trkpt>
      <trkpt lat="43.60994" lon="6.3087">
        <ele>725.4</ele>
      </trkpt>
      <trkpt lat="43.60994" lon="6.30909">
        <ele>728.4</ele>
      </trkpt>
      <trkpt lat="43.60994" lon="6.30931">
        <ele>729.6</ele>
      </trkpt>
      <trkpt lat="43.60994" lon="6.30941">
        <ele>729.9</ele>
      </trkpt>
      <trkpt lat="43.60993" lon="6.30941">
        <ele>729.9</ele>
        <extensions>
          <visugpx:TrkExtension xmlns:visugpx="https://www.visugpx.com/editgpx/">
            <visugpx:node>2</visugpx:node>
            </visugpx:TrkExtension>
        </extensions>
      </trkpt>
      <trkpt lat="43.6098" lon="6.30943">
        <ele>729.9</ele>
      </trkpt>
      <trkpt lat="43.60973" lon="6.30947">
        <ele>730.3</ele>
      </trkpt>
      <trkpt lat="43.60967" lon="6.30953">
        <ele>731.2</ele>
      </trkpt>
      <trkpt lat="43.60962" lon="6.30962">
        <ele>732.4</ele>
      </trkpt>
      <trkpt lat="43.60956" lon="6.30972">
        <ele>733.6</ele>
      </trkpt>
      <trkpt lat="43.60955" lon="6.30982">
        <ele>734</ele>
      </trkpt>
      <trkpt lat="43.60951" lon="6.30995">
        <ele>734.6</ele>
      </trkpt>
      <trkpt lat="43.60943" lon="6.31011">
        <ele>734.8</ele>
      </trkpt>
      <trkpt lat="43.60942" lon="6.31012">
        <ele>734.7</ele>
      </trkpt>
      <trkpt lat="43.60935" lon="6.31019">
        <ele>734</ele>
      </trkpt>
      <trkpt lat="43.60927" lon="6.31022">
        <ele>733.1</ele>
      </trkpt>
      <trkpt lat="43.60919" lon="6.3102">
        <ele>732.3</ele>
      </trkpt>
      <trkpt lat="43.6091" lon="6.31016">
        <ele>731.2</ele>
      </trkpt>
      <trkpt lat="43.60905" lon="6.31011">
        <ele>730.4</ele>
      </trkpt>
      <trkpt lat="43.60897" lon="6.30996">
        <ele>728.3</ele>
      </trkpt>
      <trkpt lat="43.60889" lon="6.30983">
        <ele>726.4</ele>
      </trkpt>
      <trkpt lat="43.60884" lon="6.30979">
        <ele>727.6</ele>
      </trkpt>
      <trkpt lat="43.60871" lon="6.30969">
        <ele>731.2</ele>
      </trkpt>
      <trkpt lat="43.60866" lon="6.30966">
        <ele>732.6</ele>
      </trkpt>
      <trkpt lat="43.60862" lon="6.30965">
        <ele>733.7</ele>
      </trkpt>
      <trkpt lat="43.60854" lon="6.3096">
        <ele>733.8</ele>
      </trkpt>
      <trkpt lat="43.60844" lon="6.30957">
        <ele>733.3</ele>
      </trkpt>
      <trkpt lat="43.60839" lon="6.30956">
        <ele>733.1</ele>
      </trkpt>
      <trkpt lat="43.60835" lon="6.30958">
        <ele>733</ele>
      </trkpt>
      <trkpt lat="43.60814" lon="6.30966">
        <ele>730.8</ele>
      </trkpt>
      <trkpt lat="43.60803" lon="6.30968">
        <ele>729.3</ele>
      </trkpt>
      <trkpt lat="43.60788" lon="6.30975">
        <ele>727.6</ele>
      </trkpt>
      <trkpt lat="43.60783" lon="6.30979">
        <ele>727</ele>
      </trkpt>
      <trkpt lat="43.6078" lon="6.30986">
        <ele>726.9</ele>
      </trkpt>
      <trkpt lat="43.60781" lon="6.30993">
        <ele>727.3</ele>
      </trkpt>
      <trkpt lat="43.60782" lon="6.31005">
        <ele>728</ele>
      </trkpt>
      <trkpt lat="43.60778" lon="6.31016">
        <ele>727.6</ele>
      </trkpt>
      <trkpt lat="43.60772" lon="6.31026">
        <ele>726.9</ele>
      </trkpt>
      <trkpt lat="43.60759" lon="6.31043">
        <ele>725.3</ele>
      </trkpt>
      <trkpt lat="43.60743" lon="6.31061">
        <ele>723.1</ele>
      </trkpt>
      <trkpt lat="43.60733" lon="6.31078">
        <ele>721.9</ele>
      </trkpt>
      <trkpt lat="43.60726" lon="6.31091">
        <ele>720.7</ele>
      </trkpt>
      <trkpt lat="43.6072" lon="6.31094">
        <ele>719.7</ele>
      </trkpt>
      <trkpt lat="43.60714" lon="6.31093">
        <ele>718.8</ele>
      </trkpt>
      <trkpt lat="43.60708" lon="6.31091">
        <ele>718</ele>
      </trkpt>
      <trkpt lat="43.60701" lon="6.31089">
        <ele>716.9</ele>
      </trkpt>
      <trkpt lat="43.60693" lon="6.31085">
        <ele>715.8</ele>
      </trkpt>
      <trkpt lat="43.60689" lon="6.31077">
        <ele>715.2</ele>
      </trkpt>
      <trkpt lat="43.60686" lon="6.31065">
        <ele>714.6</ele>
      </trkpt>
      <trkpt lat="43.60682" lon="6.31055">
        <ele>714.1</ele>
      </trkpt>
      <trkpt lat="43.60671" lon="6.31043">
        <ele>712.9</ele>
      </trkpt>
      <trkpt lat="43.60667" lon="6.31037">
        <ele>712.4</ele>
      </trkpt>
      <trkpt lat="43.60663" lon="6.3103">
        <ele>711.7</ele>
      </trkpt>
      <trkpt lat="43.60661" lon="6.31024">
        <ele>711.3</ele>
      </trkpt>
      <trkpt lat="43.60655" lon="6.31018">
        <ele>710.4</ele>
      </trkpt>
      <trkpt lat="43.60648" lon="6.31013">
        <ele>709.5</ele>
      </trkpt>
      <trkpt lat="43.60643" lon="6.31005">
        <ele>708.6</ele>
      </trkpt>
      <trkpt lat="43.6064" lon="6.30998">
        <ele>708</ele>
      </trkpt>
      <trkpt lat="43.60636" lon="6.30996">
        <ele>707.7</ele>
      </trkpt>
      <trkpt lat="43.60625" lon="6.30995">
        <ele>706.9</ele>
      </trkpt>
      <trkpt lat="43.6062" lon="6.30993">
        <ele>706.6</ele>
      </trkpt>
      <trkpt lat="43.60612" lon="6.30987">
        <ele>706</ele>
      </trkpt>
      <trkpt lat="43.60605" lon="6.30981">
        <ele>705.8</ele>
      </trkpt>
      <trkpt lat="43.606" lon="6.30974">
        <ele>705.6</ele>
      </trkpt>
      <trkpt lat="43.60597" lon="6.30962">
        <ele>705.1</ele>
      </trkpt>
      <trkpt lat="43.60597" lon="6.30949">
        <ele>704.7</ele>
      </trkpt>
      <trkpt lat="43.60597" lon="6.30944">
        <ele>704.5</ele>
      </trkpt>
      <trkpt lat="43.60613" lon="6.30931">
        <ele>704.7</ele>
      </trkpt>
      <trkpt lat="43.60625" lon="6.30914">
        <ele>704.9</ele>
      </trkpt>
      <trkpt lat="43.60628" lon="6.30904">
        <ele>704.8</ele>
      </trkpt>
      <trkpt lat="43.60626" lon="6.30896">
        <ele>704.3</ele>
      </trkpt>
      <trkpt lat="43.60622" lon="6.30886">
        <ele>703.7</ele>
      </trkpt>
      <trkpt lat="43.60616" lon="6.30878">
        <ele>702.7</ele>
      </trkpt>
      <trkpt lat="43.60613" lon="6.30874">
        <ele>702.1</ele>
      </trkpt>
      <trkpt lat="43.60606" lon="6.30859">
        <ele>700.7</ele>
      </trkpt>
      <trkpt lat="43.60603" lon="6.30853">
        <ele>700.4</ele>
      </trkpt>
      <trkpt lat="43.606" lon="6.3085">
        <ele>700.2</ele>
      </trkpt>
      <trkpt lat="43.60595" lon="6.30848">
        <ele>699.9</ele>
      </trkpt>
      <trkpt lat="43.60592" lon="6.3084">
        <ele>699.6</ele>
      </trkpt>
      <trkpt lat="43.60589" lon="6.30833">
        <ele>699.2</ele>
        <extensions>
          <visugpx:TrkExtension xmlns:visugpx="https://www.visugpx.com/editgpx/">
            <visugpx:node>3</visugpx:node>
            </visugpx:TrkExtension>
        </extensions>
      </trkpt>
      <trkpt lat="43.60584" lon="6.30823">
        <ele>698.7</ele>
      </trkpt>
      <trkpt lat="43.60568" lon="6.30836">
        <ele>698.6</ele>
      </trkpt>
      <trkpt lat="43.60557" lon="6.30848">
        <ele>699.1</ele>
      </trkpt>
      <trkpt lat="43.60552" lon="6.30855">
        <ele>699.4</ele>
      </trkpt>
      <trkpt lat="43.60544" lon="6.30859">
        <ele>699.1</ele>
      </trkpt>
      <trkpt lat="43.60522" lon="6.3088">
        <ele>699.4</ele>
      </trkpt>
      <trkpt lat="43.60509" lon="6.30892">
        <ele>699.4</ele>
      </trkpt>
      <trkpt lat="43.60507" lon="6.30902">
        <ele>699.4</ele>
      </trkpt>
      <trkpt lat="43.60508" lon="6.30908">
        <ele>699.5</ele>
      </trkpt>
      <trkpt lat="43.60509" lon="6.30911">
        <ele>699.6</ele>
      </trkpt>
      <trkpt lat="43.60512" lon="6.30924">
        <ele>700.2</ele>
      </trkpt>
      <trkpt lat="43.60511" lon="6.30933">
        <ele>700.6</ele>
      </trkpt>
      <trkpt lat="43.60513" lon="6.30936">
        <ele>700.7</ele>
      </trkpt>
      <trkpt lat="43.60522" lon="6.30944">
        <ele>700.4</ele>
      </trkpt>
      <trkpt lat="43.60525" lon="6.30949">
        <ele>700.4</ele>
      </trkpt>
      <trkpt lat="43.60527" lon="6.30955">
        <ele>700.4</ele>
      </trkpt>
      <trkpt lat="43.60525" lon="6.30963">
        <ele>700.9</ele>
      </trkpt>
      <trkpt lat="43.60523" lon="6.30973">
        <ele>701.6</ele>
      </trkpt>
      <trkpt lat="43.60516" lon="6.3101">
        <ele>703.6</ele>
      </trkpt>
      <trkpt lat="43.60515" lon="6.31024">
        <ele>703.9</ele>
      </trkpt>
      <trkpt lat="43.60517" lon="6.31036">
        <ele>703.8</ele>
      </trkpt>
      <trkpt lat="43.6052" lon="6.31055">
        <ele>703.3</ele>
      </trkpt>
      <trkpt lat="43.60528" lon="6.31086">
        <ele>703</ele>
      </trkpt>
      <trkpt lat="43.60527" lon="6.31094">
        <ele>703.1</ele>
      </trkpt>
      <trkpt lat="43.60523" lon="6.31105">
        <ele>703.3</ele>
      </trkpt>
      <trkpt lat="43.60524" lon="6.31109">
        <ele>703.3</ele>
      </trkpt>
      <trkpt lat="43.60525" lon="6.31114">
        <ele>703.3</ele>
      </trkpt>
      <trkpt lat="43.60527" lon="6.31117">
        <ele>703.3</ele>
      </trkpt>
      <trkpt lat="43.60522" lon="6.31123">
        <ele>703.8</ele>
      </trkpt>
      <trkpt lat="43.60512" lon="6.3114">
        <ele>704.6</ele>
      </trkpt>
      <trkpt lat="43.60507" lon="6.31156">
        <ele>704.9</ele>
      </trkpt>
      <trkpt lat="43.60501" lon="6.31192">
        <ele>705.1</ele>
      </trkpt>
      <trkpt lat="43.60501" lon="6.31195">
        <ele>705.1</ele>
      </trkpt>
      <trkpt lat="43.60497" lon="6.31211">
        <ele>704.9</ele>
      </trkpt>
      <trkpt lat="43.60491" lon="6.31238">
        <ele>705.6</ele>
      </trkpt>
      <trkpt lat="43.60486" lon="6.31249">
        <ele>706</ele>
      </trkpt>
      <trkpt lat="43.60476" lon="6.31268">
        <ele>705.6</ele>
      </trkpt>
      <trkpt lat="43.6047" lon="6.31273">
        <ele>705.3</ele>
      </trkpt>
      <trkpt lat="43.60459" lon="6.31276">
        <ele>705.1</ele>
      </trkpt>
      <trkpt lat="43.6043" lon="6.31282">
        <ele>705.1</ele>
      </trkpt>
      <trkpt lat="43.60414" lon="6.31288">
        <ele>705.4</ele>
      </trkpt>
      <trkpt lat="43.60405" lon="6.31292">
        <ele>705.7</ele>
      </trkpt>
      <trkpt lat="43.60385" lon="6.31304">
        <ele>706</ele>
      </trkpt>
      <trkpt lat="43.60378" lon="6.31312">
        <ele>706.1</ele>
      </trkpt>
      <trkpt lat="43.60371" lon="6.31323">
        <ele>706.4</ele>
      </trkpt>
      <trkpt lat="43.60367" lon="6.31332">
        <ele>706.8</ele>
      </trkpt>
      <trkpt lat="43.60357" lon="6.31369">
        <ele>707.3</ele>
      </trkpt>
      <trkpt lat="43.60344" lon="6.31413">
        <ele>707.9</ele>
      </trkpt>
      <trkpt lat="43.60339" lon="6.31421">
        <ele>708</ele>
      </trkpt>
      <trkpt lat="43.60334" lon="6.31426">
        <ele>708</ele>
      </trkpt>
      <trkpt lat="43.6033" lon="6.3143">
        <ele>708.1</ele>
      </trkpt>
      <trkpt lat="43.60319" lon="6.31441">
        <ele>708.5</ele>
      </trkpt>
      <trkpt lat="43.60309" lon="6.31456">
        <ele>708.9</ele>
      </trkpt>
      <trkpt lat="43.60307" lon="6.31461">
        <ele>708.9</ele>
      </trkpt>
      <trkpt lat="43.60306" lon="6.3147">
        <ele>709</ele>
      </trkpt>
      <trkpt lat="43.60304" lon="6.31503">
        <ele>709.2</ele>
      </trkpt>
      <trkpt lat="43.60305" lon="6.31514">
        <ele>709.5</ele>
      </trkpt>
      <trkpt lat="43.60308" lon="6.31528">
        <ele>710</ele>
        <extensions>
          <visugpx:TrkExtension xmlns:visugpx="https://www.visugpx.com/editgpx/">
            <visugpx:node>22</visugpx:node>
            </visugpx:TrkExtension>
        </extensions>
      </trkpt>
      <trkpt lat="43.60309" lon="6.31534">
        <ele>710.2</ele>
      </trkpt>
      <trkpt lat="43.60314" lon="6.31546">
        <ele>710.7</ele>
      </trkpt>
      <trkpt lat="43.6032" lon="6.31552">
        <ele>710.9</ele>
      </trkpt>
      <trkpt lat="43.60327" lon="6.31556">
        <ele>711</ele>
      </trkpt>
      <trkpt lat="43.60338" lon="6.3156">
        <ele>711.1</ele>
      </trkpt>
      <trkpt lat="43.60347" lon="6.31562">
        <ele>710.9</ele>
      </trkpt>
      <trkpt lat="43.60354" lon="6.31566">
        <ele>710.7</ele>
      </trkpt>
      <trkpt lat="43.60368" lon="6.31576">
        <ele>710.1</ele>
      </trkpt>
      <trkpt lat="43.60381" lon="6.31589">
        <ele>708.8</ele>
      </trkpt>
      <trkpt lat="43.60396" lon="6.31613">
        <ele>707.4</ele>
      </trkpt>
      <trkpt lat="43.60414" lon="6.31638">
        <ele>706.1</ele>
      </trkpt>
      <trkpt lat="43.60429" lon="6.31662">
        <ele>705.5</ele>
      </trkpt>
      <trkpt lat="43.60435" lon="6.31674">
        <ele>705.7</ele>
      </trkpt>
      <trkpt lat="43.60445" lon="6.31695">
        <ele>706</ele>
      </trkpt>
      <trkpt lat="43.60457" lon="6.31709">
        <ele>706.5</ele>
      </trkpt>
      <trkpt lat="43.60463" lon="6.31717">
        <ele>706.7</ele>
      </trkpt>
      <trkpt lat="43.60469" lon="6.31731">
        <ele>706.9</ele>
      </trkpt>
      <trkpt lat="43.60476" lon="6.31743">
        <ele>707.3</ele>
      </trkpt>
      <trkpt lat="43.60482" lon="6.31757">
        <ele>707.8</ele>
      </trkpt>
      <trkpt lat="43.60484" lon="6.31767">
        <ele>708.1</ele>
      </trkpt>
      <trkpt lat="43.60488" lon="6.3178">
        <ele>708.7</ele>
      </trkpt>
      <trkpt lat="43.60498" lon="6.31796">
        <ele>709.8</ele>
      </trkpt>
      <trkpt lat="43.60514" lon="6.31819">
        <ele>711.8</ele>
      </trkpt>
      <trkpt lat="43.60523" lon="6.31834">
        <ele>713.3</ele>
      </trkpt>
      <trkpt lat="43.60525" lon="6.31841">
        <ele>713.6</ele>
      </trkpt>
      <trkpt lat="43.6053" lon="6.31849">
        <ele>714.1</ele>
      </trkpt>
      <trkpt lat="43.60537" lon="6.31864">
        <ele>714.4</ele>
      </trkpt>
      <trkpt lat="43.6054" lon="6.31878">
        <ele>714.7</ele>
      </trkpt>
      <trkpt lat="43.60543" lon="6.31899">
        <ele>714.9</ele>
      </trkpt>
      <trkpt lat="43.60546" lon="6.31902">
        <ele>715</ele>
      </trkpt>
      <trkpt lat="43.60559" lon="6.31905">
        <ele>715.4</ele>
      </trkpt>
      <trkpt lat="43.60564" lon="6.3191">
        <ele>715.1</ele>
      </trkpt>
      <trkpt lat="43.6057" lon="6.31922">
        <ele>714.3</ele>
      </trkpt>
      <trkpt lat="43.60575" lon="6.31929">
        <ele>714.2</ele>
      </trkpt>
      <trkpt lat="43.60573" lon="6.31931">
        <ele>714.1</ele>
        <extensions>
          <visugpx:TrkExtension xmlns:visugpx="https://www.visugpx.com/editgpx/">
            <visugpx:node>23</visugpx:node>
            </visugpx:TrkExtension>
        </extensions>
      </trkpt>
      <trkpt lat="43.60569" lon="6.31934">
        <ele>713.9</ele>
      </trkpt>
      <trkpt lat="43.6056" lon="6.31941">
        <ele>712.8</ele>
      </trkpt>
      <trkpt lat="43.60555" lon="6.31944">
        <ele>712</ele>
      </trkpt>
      <trkpt lat="43.60548" lon="6.31947">
        <ele>712</ele>
      </trkpt>
      <trkpt lat="43.60545" lon="6.31953">
        <ele>712.1</ele>
      </trkpt>
      <trkpt lat="43.60541" lon="6.31957">
        <ele>712</ele>
      </trkpt>
      <trkpt lat="43.60539" lon="6.31963">
        <ele>711.9</ele>
      </trkpt>
      <trkpt lat="43.60539" lon="6.31979">
        <ele>711.7</ele>
      </trkpt>
      <trkpt lat="43.60538" lon="6.31991">
        <ele>711.3</ele>
      </trkpt>
      <trkpt lat="43.60534" lon="6.32009">
        <ele>710.7</ele>
      </trkpt>
      <trkpt lat="43.60531" lon="6.32029">
        <ele>710.4</ele>
      </trkpt>
      <trkpt lat="43.60521" lon="6.32061">
        <ele>711.2</ele>
      </trkpt>
      <trkpt lat="43.60506" lon="6.32085">
        <ele>711.1</ele>
      </trkpt>
      <trkpt lat="43.605" lon="6.3211">
        <ele>712</ele>
      </trkpt>
      <trkpt lat="43.605" lon="6.3215">
        <ele>712.4</ele>
      </trkpt>
      <trkpt lat="43.60496" lon="6.32165">
        <ele>712.9</ele>
      </trkpt>
      <trkpt lat="43.6049" lon="6.32187">
        <ele>713</ele>
      </trkpt>
      <trkpt lat="43.6049" lon="6.322">
        <ele>713.2</ele>
      </trkpt>
      <trkpt lat="43.60495" lon="6.32223">
        <ele>714</ele>
      </trkpt>
      <trkpt lat="43.60499" lon="6.32233">
        <ele>714.4</ele>
      </trkpt>
      <trkpt lat="43.60505" lon="6.32243">
        <ele>715</ele>
      </trkpt>
      <trkpt lat="43.60507" lon="6.32249">
        <ele>715.2</ele>
      </trkpt>
      <trkpt lat="43.60507" lon="6.32263">
        <ele>715.3</ele>
      </trkpt>
      <trkpt lat="43.60507" lon="6.323">
        <ele>715.9</ele>
      </trkpt>
      <trkpt lat="43.60507" lon="6.32315">
        <ele>716.3</ele>
      </trkpt>
      <trkpt lat="43.60509" lon="6.32325">
        <ele>716.7</ele>
      </trkpt>
      <trkpt lat="43.60514" lon="6.32341">
        <ele>717</ele>
      </trkpt>
      <trkpt lat="43.60518" lon="6.32352">
        <ele>717</ele>
      </trkpt>
      <trkpt lat="43.60518" lon="6.32365">
        <ele>717</ele>
      </trkpt>
      <trkpt lat="43.60519" lon="6.32379">
        <ele>717</ele>
      </trkpt>
      <trkpt lat="43.6052" lon="6.32387">
        <ele>717</ele>
      </trkpt>
      <trkpt lat="43.60521" lon="6.32417">
        <ele>716.3</ele>
      </trkpt>
      <trkpt lat="43.60523" lon="6.32436">
        <ele>716.7</ele>
      </trkpt>
      <trkpt lat="43.60523" lon="6.32447">
        <ele>716.9</ele>
      </trkpt>
      <trkpt lat="43.60526" lon="6.32458">
        <ele>716.6</ele>
      </trkpt>
      <trkpt lat="43.60529" lon="6.32477">
        <ele>715.9</ele>
        <extensions>
          <visugpx:TrkExtension xmlns:visugpx="https://www.visugpx.com/editgpx/">
            <visugpx:node>24</visugpx:node>
            </visugpx:TrkExtension>
        </extensions>
      </trkpt>
      <trkpt lat="43.60531" lon="6.32484">
        <ele>715.7</ele>
      </trkpt>
      <trkpt lat="43.60533" lon="6.32496">
        <ele>715.5</ele>
      </trkpt>
      <trkpt lat="43.60535" lon="6.32511">
        <ele>715.1</ele>
      </trkpt>
      <trkpt lat="43.60536" lon="6.32528">
        <ele>714.6</ele>
      </trkpt>
      <trkpt lat="43.60535" lon="6.3254">
        <ele>714</ele>
      </trkpt>
      <trkpt lat="43.60531" lon="6.32557">
        <ele>713.1</ele>
      </trkpt>
      <trkpt lat="43.60526" lon="6.32575">
        <ele>713.1</ele>
      </trkpt>
      <trkpt lat="43.60522" lon="6.3259">
        <ele>713</ele>
      </trkpt>
      <trkpt lat="43.60519" lon="6.32604">
        <ele>712.8</ele>
      </trkpt>
      <trkpt lat="43.60518" lon="6.32615">
        <ele>712.7</ele>
      </trkpt>
      <trkpt lat="43.6052" lon="6.32625">
        <ele>712.4</ele>
      </trkpt>
      <trkpt lat="43.60522" lon="6.32636">
        <ele>712.2</ele>
      </trkpt>
      <trkpt lat="43.60522" lon="6.32648">
        <ele>712</ele>
      </trkpt>
      <trkpt lat="43.60523" lon="6.32661">
        <ele>711.6</ele>
      </trkpt>
      <trkpt lat="43.60522" lon="6.32671">
        <ele>711.6</ele>
      </trkpt>
      <trkpt lat="43.60522" lon="6.32678">
        <ele>711.5</ele>
      </trkpt>
      <trkpt lat="43.60522" lon="6.32683">
        <ele>711.4</ele>
      </trkpt>
      <trkpt lat="43.60519" lon="6.32684">
        <ele>711.6</ele>
      </trkpt>
      <trkpt lat="43.60515" lon="6.32686">
        <ele>711.7</ele>
      </trkpt>
      <trkpt lat="43.60509" lon="6.32692">
        <ele>711.8</ele>
      </trkpt>
      <trkpt lat="43.605" lon="6.3271">
        <ele>710.9</ele>
      </trkpt>
      <trkpt lat="43.60486" lon="6.32733">
        <ele>710.4</ele>
      </trkpt>
      <trkpt lat="43.60471" lon="6.32757">
        <ele>709.1</ele>
      </trkpt>
      <trkpt lat="43.60465" lon="6.3277">
        <ele>709.1</ele>
      </trkpt>
      <trkpt lat="43.60459" lon="6.32781">
        <ele>709.2</ele>
      </trkpt>
      <trkpt lat="43.60455" lon="6.32787">
        <ele>709.4</ele>
      </trkpt>
      <trkpt lat="43.6045" lon="6.32792">
        <ele>709.3</ele>
      </trkpt>
      <trkpt lat="43.60445" lon="6.32792">
        <ele>709</ele>
      </trkpt>
      <trkpt lat="43.6044" lon="6.3279">
        <ele>708.8</ele>
      </trkpt>
      <trkpt lat="43.60421" lon="6.32772">
        <ele>708.3</ele>
      </trkpt>
      <trkpt lat="43.60416" lon="6.3277">
        <ele>708.4</ele>
      </trkpt>
      <trkpt lat="43.60408" lon="6.32771">
        <ele>708.1</ele>
      </trkpt>
      <trkpt lat="43.60399" lon="6.32776">
        <ele>707.3</ele>
      </trkpt>
      <trkpt lat="43.60383" lon="6.32783">
        <ele>707</ele>
      </trkpt>
      <trkpt lat="43.60365" lon="6.32787">
        <ele>706.5</ele>
      </trkpt>
      <trkpt lat="43.60352" lon="6.32788">
        <ele>706.2</ele>
      </trkpt>
      <trkpt lat="43.6034" lon="6.32789">
        <ele>706</ele>
      </trkpt>
      <trkpt lat="43.6033" lon="6.32789">
        <ele>705.7</ele>
      </trkpt>
      <trkpt lat="43.60323" lon="6.32786">
        <ele>705.1</ele>
      </trkpt>
      <trkpt lat="43.60313" lon="6.32779">
        <ele>703.7</ele>
      </trkpt>
      <trkpt lat="43.60303" lon="6.32774">
        <ele>703</ele>
      </trkpt>
      <trkpt lat="43.60296" lon="6.32772">
        <ele>702.9</ele>
      </trkpt>
      <trkpt lat="43.60284" lon="6.32774">
        <ele>702.4</ele>
      </trkpt>
      <trkpt lat="43.6027" lon="6.32778">
        <ele>702</ele>
      </trkpt>
      <trkpt lat="43.60261" lon="6.32784">
        <ele>702.4</ele>
      </trkpt>
      <trkpt lat="43.6025" lon="6.32786">
        <ele>702</ele>
      </trkpt>
      <trkpt lat="43.60243" lon="6.32811">
        <ele>701.9</ele>
        <extensions>
          <visugpx:TrkExtension xmlns:visugpx="https://www.visugpx.com/editgpx/">
            <visugpx:node>25</visugpx:node>
            </visugpx:TrkExtension>
        </extensions>
      </trkpt>
    </trkseg>
  </trk>
</gpx>